     2              OBSERVATION DATA    GPS                 RINEX VERSION / TYPE
ASRINEXO V2.4.4 UX USGS 24-FEB-96 16:19                     PGM / RUN BY / DATE
                                                            COMMENT
Contact: kwendt@isdmnl.wr.usgs.gov (Ph: 415-329-4866)       COMMENT
Contact: kwendt@isdmnl.wr.usgs.gov (Ph: 415-329-4866)       COMMENT
Contact: kwendt@isdmnl.wr.usgs.gov (Ph: 415-329-4866)       COMMENT
Contact: kwendt@isdmnl.wr.usgs.gov (Ph: 415-329-4866)       COMMENT
Contact: kwendt@isdmnl.wr.usgs.gov (Ph: 415-329-4866)       COMMENT
Contact: kwendt@isdmnl.wr.usgs.gov (Ph: 415-329-4866)       COMMENT
Original Marker Name: mo93 Mon93_offset_1899_1949_USCGS     COMMENT
Campaign Name: USGS Yucca Profile                           COMMENT
4-Character Station Name: MO93                              COMMENT
6-Character Antenna Code: ASHGD3                            COMMENT
Vertical Measurement Point: EGP                             COMMENT
Vertical Offset to Rinex Ref. Point: 0.0594                 COMMENT
Radial Measurement Point: EGP                               COMMENT
Radial Offset to Rinex Ref. Point: 0.1837                   COMMENT
Antenna Height from Field Measurement: 1.3460 m             COMMENT
Additional Antenna Identification Info.:                    COMMENT
The Whopper (700718AB)                                      COMMENT
Original XYZ: -2316243.6000 -4560199.1600 3798764.5500      COMMENT
New XYZ position is based on association with SCEC monument COMMENT
E1G0F4L2+0011. Position of that monument is believed to be  COMMENT
valid to within 1 m horizontally; vertical accuracy         COMMENT
should be no worse than 3-times this value.                 COMMENT
                                                            COMMENT
Revised Rinex header created by UCSD GPS archive for        COMMENT
GSAC on 08-Aug-2000 (2000:221) 00:26:41 GMT                 COMMENT
For assistance contact dagnew@ucsd.edu                      COMMENT
or anderson@python.ucsd.edu                                 COMMENT
                                                            COMMENT
MON 93 OFFSET 1899 1949                                     MARKER NAME
CHS US GEOLOGICAL SURVEY                                    OBSERVER / AGENCY
143 ASHTECH Z-XII3 1F00                                     REC # / TYPE / VERS
11401 ASHTECH GEODETIC III                                  ANT # / TYPE
 -2316462.7474 -4560228.2929  3799705.8725                  APPROX POSITION XYZ
        1.2740        0.0000        0.0000                  ANTENNA: DELTA H/E/N
     1     1     0                                          WAVELENGTH FACT L1/2
     5    C1    L1    L2    P1    P2                        # / TYPES OF OBSERV
    30                                                      INTERVAL
  1996     2    17    16    43   30.000000                  TIME OF FIRST OBS
  1996     2    17    23    30    0.000000                  TIME OF LAST OBS
                                                            END OF HEADER
 96  2 17 16 43 30.0000000  0  5 25 29  4 22 18
  17072878.141       52751.42319
  13861981.127       -8436.62419     -4025.16259                  13861985.3464
  17570277.510         635.86919
  14123091.088        9515.58919      4114.44059                  14123096.1994
  15700284.453      -31191.82419    -13961.25259                  15700286.1784
 96  2 17 16 44  0.0000000  0  6 25 29  4 22 18 14
  17092824.937      157581.167 9    104435.95659                  17092830.0774
  13858437.594      -27056.04159    -18533.81149  13858436.9764   13858441.9514
  17570485.922        1732.097 9      1207.70959                  17570492.4444
  14126738.257       28681.43259     19048.85549  14126737.7464   14126743.0944
  15687997.093      -95733.85959    -64253.74649  15687998.4874   15688004.3584
  13319431.378       47094.48919     27704.32359                  13319438.1914
 96  2 17 16 44 30.0000000  0  5 25 29  4 22 18
  24307730.327      262108.57259    185885.85849  24307732.6914   24307740.1784
  21049906.182      -45706.80549    -33066.87449  21049906.9594   21049912.0184
  24765760.119        3071.75659      2251.57049  24765759.0244   24765765.6994
  21325471.024       48202.70249     34260.23649  21325471.3864   21325477.2284
  22870715.681     -160382.72749   -114629.48849  22870715.8584   22870721.4024
 96  2 17 16 45  0.0000000  0  6 25 29  4 22 18 14
  24327595.948      366510.98159    267238.30759  24327601.7234   24327605.8124
  21046347.479      -64425.49959    -47652.87059  21046344.7814   21046349.7464
  24766071.057        4678.23759      3503.30959  24766065.2724   24766070.1154
  21329257.951       68097.31959     49762.53759  21329257.1314   21329262.9754
  22858379.114     -225241.93459   -165169.11259  22858372.9464   22858378.4394
  20530039.151      129014.15159     91537.77749  20530039.9574   20530046.1464
 96  2 17 16 45 30.0000000  0  6 25 29  4 22 18 14
  24347423.053      470673.49149    348403.87249  24347423.0564   24347427.9014
  21042761.127      -83254.19849    -62324.57649  21042761.6864   21042767.0174
  24766416.880        6524.38649      4941.83449  24766418.0644   24766421.5004
  21333106.173       88321.73249     65521.82949  21333106.0214   21333111.7414
  22845993.851     -290300.13249   -215863.79049  22845991.9484   22845999.1484
  20537929.076      170475.87959    123845.59959  20537930.0554   20537936.0864
 96  2 17 16 46  0.0000000  0  6 25 29  4 22 18 14
  24367203.786      574616.97649    429398.79049  24367203.8684   24367207.6114
  21039159.066     -102181.33349    -77072.99349  21039160.1774   21039165.3364
  24766816.780        8639.43659      6589.88959  24766817.9984   24766827.5594
  21337022.064      108901.62749     81558.12249  21337021.7134   21337028.0134
  22833581.630     -355530.21849   -266692.42249  22833579.8644   22833586.1334
  20545881.076      212262.94649    156406.92749  20545881.4254   20545888.2024
 96  2 17 16 46 30.0000000  0  6 25 29  4 22 18 14
  24386942.578      678337.10749    510219.63849  24386939.5414   24386945.7634
  21035542.484     -121183.79649    -91880.11549  21035543.7644   21035549.1124
  24767274.428       11028.51149      8451.46049  24767274.9684   24767277.2394
  21341007.171      129839.44849     97873.30449  21341006.3944   21341012.2654
  22821135.422     -420928.66949   -317652.24049  22821134.9544   22821141.1474
  20553895.311      254377.11749    189223.14249  20553895.8454   20553902.1464
 96  2 17 16 47  0.0000000  0  6 25 29  4 22 18 14
  24406631.302      781826.55749    590860.73549  24406633.3214   24406638.3934
  21031913.139     -140258.33749   -106743.39149  21031914.1334   21031919.3514
  24767777.517       13681.41149     10518.71149  24767778.5024   24767785.9844
  21345057.228      151127.98649    114461.79149  21345057.5804   21345063.2654
  22808658.905     -486499.35249   -368746.27149  22808657.5504   22808662.9224
  20561970.953      296812.07149    222289.31849  20561970.9304   20561977.2594
 96  2 17 16 47 30.0000000  0  6 25 29  4 22 18 14
  24426284.684      885094.89949    671329.55149  24426283.8664   24426289.1684
  21028272.647     -159387.25649   -121649.04649  21028274.2464   21028279.4014
  24768331.514       16591.58359     12786.34359  24768336.0814   24768332.7644
  21349178.288      172782.48449    131335.42749  21349178.1594   21349183.9584
  22796148.782     -552233.12749   -419967.36749  22796148.1904   22796154.6314
  20570106.625      339568.64949    255606.11149  20570107.4194   20570113.7774
 96  2 17 16 48  0.0000000  0  6 25 29  4 22 18 14
  24445892.261      988148.88749    751631.33449  24445894.7764   24445901.8124
  21024629.663     -178533.67149   -136568.33449  21024630.6754   21024635.7154
  24768934.449       19766.21749     15260.02259  24768934.3584   24768941.2454
  21353369.203      194807.12149    148497.49149  21353369.0854   21353375.2044
  22783613.720     -618112.08449   -471301.59949  22783611.3194   22783617.5074
  20578305.176      382650.41049    289176.29349  20578305.7944   20578311.8614
 96  2 17 16 48 30.0000000  0  6 25 29  4 22 18 14
  24465462.598     1090983.30149    831762.02749  24465464.2464   24465468.4774
  21020988.276     -197674.03649   -151482.90549  21020988.4694   21020993.6774
  24769588.412       23192.16249     17929.56149  24769589.8444   24769597.2454
  21357633.787      217215.35449    165958.45849  21357633.6024   21357639.3714
  22771048.185     -684133.15049   -522746.56249  22771048.5524   22771054.6004
  20586564.781      426055.63149    322998.52149  20586565.4044   20586571.7014
 96  2 17 16 49  0.0000000  0  6 25 29  4 22 18 14
  24484991.964     1193612.72349    911732.99049  24484992.9264   24484999.7004
  21017349.218     -216794.48649   -166381.96349  21017349.9234   21017355.1024
  24770291.084       26891.13749     20811.85149  24770292.9404   24770299.0734
  21361975.992      240036.36449    183741.06549  21361976.2374   21361982.0104
  22758458.746     -750292.84449   -574299.55249  22758459.2124   22758465.3654
  20594886.623      469788.10849    357075.75249  20594887.4484   20594893.3244
 96  2 17 16 49 30.0000000  0  6 25 29  4 22 18 14
  24504480.730     1296022.48749    991532.79749  24504481.0914   24504486.7534
  21013714.309     -235894.41349   -181265.02449  21013715.3664   21013720.5894
  24771049.214       30869.95749     23912.23049  24771050.5384   24771052.1704
  21366396.360      263264.02349    201840.54949  21366396.2684   21366402.1534
  22745840.374     -816599.26549   -625966.87649  22745841.1454   22745847.2404
  20603268.431      513832.86449    391396.32249  20603268.9304   20603275.1614
 96  2 17 16 50  0.0000000  0  7 25 29  4 22 19 18 14
  24523924.377     1398206.30649   1071156.48949  24523925.2194   24523932.8784
  21010084.960     -254971.60349   -196130.36549  21010085.2034   21010090.3094
  24771860.427       35129.06659     27230.97259  24771860.2964   24771868.9814
  21370893.136      286893.30949    220252.98949  21370892.9584   21370898.7524
  24428789.034     -192081.47419   -138009.85159                  24428797.5504
  22733197.694     -883040.59849   -677739.31449  22733198.0434   22733204.1534
  20611709.632      558195.92249    425964.91749  20611710.7164   20611717.1504
 96  2 17 16 50 30.0000000  0  7 25 29  4 22 19 18 14
  24543328.286     1500174.20549   1150611.98549  24543329.7024   24543335.0074
  21006455.881     -274040.33249   -210989.12049  21006456.6444   21006461.7074
  24772725.734       39678.02649     30775.62249  24772725.6384   24772732.8124
  21375465.572      310925.51349    238979.38649  21375466.1904   21375471.9614
  24413953.306     -270013.73159   -198736.25859  24413959.0284   24413968.0604
  22720527.354     -949618.32849   -729618.04949  22720528.4294   22720535.0424
  20620216.114      602893.70349    460794.33349  20620216.8204   20620223.0384
 96  2 17 16 51  0.0000000  0  7 25 29  4 22 19 18 14
  24562695.057     1601944.89049   1229913.80649  24562697.8054   24562699.8624
  21002827.125     -293107.35349   -225846.54449  21002828.4844   21002833.2644
  24773652.385       44548.86359     34571.02659  24773653.4084   24773659.7084
  21380115.146      335359.70749    258019.02849  21380115.8034   21380121.5194
  24399117.963     -348005.54459   -259509.03049  24399117.9084   24399126.3934
  22707835.927    -1016316.18249   -781590.38549  22707836.3124   22707842.6154
  20628789.406      647945.88149    495899.90549  20628789.9354   20628796.3174
 96  2 17 16 51 30.0000000  0  7 25 29  4 22 19 18 14
  24582022.863     1703503.46349   1309050.38149  24582023.5544   24582027.9304
  20999196.181     -312188.13049   -240714.68549  20999197.3794   20999202.6014
  24774633.688       49711.53059     38593.86849  24774636.0114   24774641.6044
  21384836.940      360168.92049    277350.88549  21384836.7804   21384842.5104
  24384261.203     -426071.10049   -320339.29549  24384262.7434   24384271.0834
  22695121.697    -1083135.96949   -833657.73649  22695120.8354   22695127.2994
  20637427.002      693338.86749    531271.03749  20637427.9844   20637434.1214
 96  2 17 16 52  0.0000000  0  7 25 29  4 22 19 18 14
  24601308.806     1804853.81249   1388024.61949  24601308.1804   24601314.4024
  20995562.168     -331284.11749   -255594.67749  20995563.5134   20995568.6754
  24775669.590       55159.07049     42838.72849  24775672.7234   24775680.4764
  21389631.791      385364.40249    296983.73749  21389631.4034   21389637.1884
  24369391.354     -504214.86449   -381230.50949  24369392.3234   24369400.3874
  22682382.368    -1150074.87749   -885817.89549  22682382.9894   22682389.6084
  20646130.744      739077.23549    566911.30249  20646131.7864   20646137.9484
 96  2 17 16 52 30.0000000  0  7 25 29  4 22 19 18 14
  24620554.703     1906000.53649   1466840.19949  24620557.8634   24620561.8614
  20991926.145     -350388.26049   -270481.03049  20991928.1444   20991933.2584
  24776765.117       60902.85649     47314.30249  24776765.3204   24776770.4554
  21394503.147      410970.05249    316936.19749  21394503.9724   21394510.1084
  24354508.064     -582424.47249   -442172.95449  24354509.1424   24354518.1024
  22669621.509    -1217131.45649   -938069.77249  22669622.6054   22669628.6084
  20654902.183      785170.14049    602827.82449  20654902.8774   20654909.1134
 96  2 17 16 53  0.0000000  0  7 25 29  4 22 19 18 14
  24639766.864     2006957.10249   1545507.62449  24639767.9954   24639773.4484
  20988296.004     -369468.24849   -285348.55549  20988297.3054   20988302.5994
  24777913.074       66941.06559     52019.38759  24777914.6864   24777919.6674
  21399458.135      437008.56849    337225.95649  21399459.0934   21399465.0154
  24339614.863     -660686.89649   -503156.66749  24339616.8504   24339625.1194
  22656840.403    -1284288.53249   -990399.94649  22656842.9244   22656848.6234
  20663739.992      831614.36449    639018.10449  20663740.9274   20663747.2114
 96  2 17 16 53 30.0000000  0  7 25 29  4 22 19 18 14
  24658944.208     2107723.76349   1624027.07049  24658942.9564   24658950.1054
  20984672.358     -388508.56249   -300185.16549  20984674.1504   20984679.3114
  24779118.449       73271.95859     56952.53859  24779118.2394   24779124.4744
  21404497.684      463492.38749    357862.69149  21404498.8504   21404504.6514
  24324717.454     -738980.44449   -564164.59149  24324717.8024   24324725.2604
  22644046.737    -1351539.04649  -1042802.94149  22644046.0864   22644051.9324
  20672646.189      878417.30649    675487.90449  20672647.2104   20672653.4954
 96  2 17 16 54  0.0000000  0  7 25 29  4 22 19 18 14
  24678083.131     2208303.79349   1702401.07649  24678083.1504   24678089.2624
  20981057.043     -407506.88449   -314989.05449  20981058.7214   20981064.0004
  24780383.017       79920.41659     62133.10949  24780384.5984   24780392.9044
  21409625.331      490432.89349    378855.29849  21409625.2124   21409631.0584
  24309816.095     -817289.57849   -625184.65849  24309816.8674   24309824.9084
  22631231.166    -1418869.95349  -1095268.56049  22631232.5674   22631238.9894
  20681623.865      925595.15749    712249.84149  20681624.9434   20681631.1454
 96  2 17 16 54 30.0000000  0  7 25 29  4 22 19 18 14
  24697187.631     2308714.17849   1780642.89349  24697190.6294   24697196.4804
  20977450.860     -426460.06549   -329757.76849  20977451.9774   20977457.3864
  24781713.663       86911.50549     67580.68949  24781713.2454   24781721.3004
  21414839.028      517836.43649    400208.70449  21414840.1284   21414846.0584
  24294912.454     -895603.61349   -686208.53049  24294913.2704   24294921.2314
  22618409.597    -1486258.01549  -1147778.72849  22618409.7224   22618415.8024
  20690674.200      973155.39749    749309.73849  20690675.4224   20690681.4184
 96  2 17 16 55  0.0000000  0  7 25 29  4 22 19 18 14
  24716267.117     2408969.86249   1858764.16049  24716268.0434   24716274.7884
  20973854.764     -445359.27349   -344484.43049  20973855.8864   20973861.0184
  24783111.979       94271.52049     73315.74049  24783114.3774   24783121.7554
  21420142.364      545704.81349    421924.31549  21420143.2424   21420149.2984
  24280011.240     -973905.15149   -747222.66749  24280013.1094   24280020.5044
  22605578.841    -1553679.73449  -1200315.13049  22605580.0874   22605586.0204
  20699799.044     1021108.39549    786675.68449  20699800.4234   20699806.8744
 96  2 17 16 55 30.0000000  0  7 25 29  4 22 19 18 14
  24735308.994     2509042.03749   1936742.44149  24735311.8604   24735318.4204
  20970263.193     -464232.84449   -359191.11249  20970264.2764   20970269.5014
  24784585.562      101999.83549     79337.76149  24784586.6454   24784594.9784
  21425529.711      574014.45149    443983.76449  21425530.3404   21425536.3584
  24265112.292    -1052198.13149   -808230.15449  24265115.0114   24265123.1364
  22592744.319    -1621125.58249  -1252870.32049  22592744.8734   22592751.6354
  20709000.648     1069464.36349    824355.63149  20709002.2504   20709008.7704
 96  2 17 16 56  0.0000000  0  7 25 29  4 22 19 18 14
  24754326.104     2608963.60049   2014603.35049  24754326.3044   24754333.2164
  20966682.661     -483046.25149   -373850.91249  20966684.1094   20966689.3674
  24786129.791      110123.94649     85668.20449  24786131.5714   24786138.4954
  21431007.179      602798.24449    466412.68649  21431007.8594   21431013.8954
  24250218.689    -1130464.34949   -869216.79249  24250221.4874   24250228.9314
  22579910.641    -1688562.68149  -1305418.68849  22579912.0804   22579918.3924
  20718285.956     1118255.76049    862374.87649  20718287.3314   20718293.4984
 96  2 17 16 56 30.0000000  0  7 25 29  4 22 19 18 14
  24773309.204     2708734.54349   2092346.88749  24773311.7394   24773318.0704
  20963117.298     -501783.22649   -388451.16049  20963118.5704   20963123.8114
  24787745.948      118617.03949     92286.14149  24787747.8154   24787754.4444
  21436573.208      632050.03049    489206.27849  21436574.0884   21436580.2744
  24235330.460    -1208699.88549   -930179.53449  24235332.9614   24235341.1134
  22567078.225    -1756004.88749  -1357971.05149  22567078.8304   22567084.5634
  20727653.202     1167481.43449    900732.51249  20727654.8364   20727661.0684
 96  2 17 16 57  0.0000000  0  7 25 29  4 22 19 18 14
  24792264.691     2808347.54149   2169967.36849  24792267.3484   24792273.3714
  20959570.696     -520420.56049   -402973.76349  20959572.3364   20959577.3814
  24789431.909      127463.46549     99179.45749  24789432.9084   24789439.1344
  21442228.956      661765.35149    512361.06249  21442229.1134   21442234.7224
  24220450.663    -1286892.35949   -991108.70849  24220453.6644   24220461.0484
  22554240.062    -1823464.22749  -1410536.75649  22554240.9244   22554246.8764
  20737108.073     1217164.39249    939446.48049  20737109.0444   20737115.1614
 96  2 17 16 57 30.0000000  0  7 25 29  4 22 19 18 14
  24811196.562     2907826.35649   2247483.26549  24811197.2444   24811205.1114
  20956047.458     -538935.81849   -417401.24249  20956049.1304   20956053.9464
  24791176.956      136655.89349    106342.33249  24791182.6134   24791188.4284
  21447973.914      691960.93049    535890.07349  21447975.1074   21447981.0834
  24205581.437    -1365041.70749  -1052004.31849  24205582.2284   24205591.1944
  22541397.647    -1890950.48049  -1463123.42749  22541398.5934   22541405.1024
  20746649.240     1267308.25749    978519.59149  20746651.1024   20746657.0924
 96  2 17 16 58  0.0000000  0  7 25 29  4 22 19 18 14
  24830107.595     3007202.01549   2324918.80049  24830109.3184   24830115.7324
  20952551.331     -557307.48549   -431716.83549  20952553.0264   20952558.0514
  24792997.015      146205.09749    113783.21549  24792998.4214   24793004.4954
  21453816.189      722660.08049    559811.47149  21453816.9724   21453822.8044
  24190716.976    -1443150.64049  -1112868.39949  24190719.2764   24190726.5974
  22528544.152    -1958490.44349  -1515751.96749  22528546.3904   22528552.7174
  20756277.481     1317903.75049   1017944.62349  20756279.0384   20756285.5354
 96  2 17 16 58 30.0000000  0  7 25 29  4 22 19 18 14
  24848996.557     3106470.49849   2402270.79149  24848998.3894   24849006.7904
  20949081.878     -575539.99249   -445923.98949  20949083.6674   20949088.7504
  24794881.822      156115.37559    121505.48559  24794883.4434   24794891.8794
  21459753.798      753861.68949    584124.40249  21459754.3324   21459760.1784
  24175862.970    -1521218.10749  -1173700.19849  24175863.9334   24175871.3994
  22515681.866    -2026091.19449  -1568427.87049  22515682.5864   22515689.0454
  20765989.389     1368940.32449   1057713.35149  20765990.9404   20765997.3754
 96  2 17 16 59  0.0000000  0  7 25 29  4 22 19 18 14
  24867869.633     3205634.02149   2479541.04749  24867869.1564   24867875.7844
  20945634.399     -593655.31149   -460039.82749  20945635.9694   20945641.2384
  24796842.585      166409.18049    129526.62549  24796844.0784   24796850.3624
  21465789.830      785579.69649    608839.72349  21465790.0264   21465795.7374
  24161009.490    -1599258.76549  -1234511.09249  24161012.9684   24161020.3524
  22502809.148    -2093742.19849  -1621142.93349  22502808.9374   22502814.7324
  20775782.272     1420400.24549   1097811.96249  20775783.8214   20775789.9394
 96  2 17 16 59 30.0000000  0  6 29  4 22 19 18 14
  20942212.396     -611637.20549   -474051.70449  20942214.3804   20942219.3634
  24798879.350      177118.06349    137871.16349  24798881.6964   24798887.8184
  21471930.108      817849.67749    633985.15149  21471930.6704   21471936.6374
  24146168.413    -1677256.13549  -1295288.25549  24146170.3984   24146178.5454
  22489932.280    -2161400.78349  -1673863.88749  22489933.7774   22489940.2984
  20785655.852     1472286.36149   1138242.67449  20785657.5114   20785663.7214
 96  2 17 17  0  0.0000000  0  6 29  4 22 19 18 14
  20938811.873     -629505.07949   -487974.72949  20938814.1654   20938819.5204
  24800990.942      188228.54449    146528.61749  24800994.3004   24801001.4744
  21478171.872      850647.48849    659541.87549  21478172.0674   21478178.0024
  24131335.438    -1755215.08449  -1356035.50849  24131335.5724   24131343.6234
  22477059.083    -2229050.76449  -1726578.15249  22477060.4734   22477066.7574
  20795607.891     1524586.05149   1178995.64949  20795609.4764   20795616.0264
 96  2 17 17  0 30.0000000  0  6 29  4 22 19 18 14
  20935435.365     -647250.32749   -501802.20349  20935437.3874   20935442.5464
  24803186.397      199741.47849    155499.71049  24803186.1834   24803193.3644
  21484512.008      883966.51649    685504.73849  21484512.5224   21484518.4864
  24116511.996    -1833112.68149  -1416734.93849  24116511.9734   24116519.4424
  22464195.889    -2296650.76849  -1779253.46849  22464196.8924   22464202.5694
  20805640.439     1577309.71049   1220078.99049  20805642.5054   20805649.0174
 96  2 17 17  1  0.0000000  0  6 29  4 22 19 18 14
  20932083.667     -664862.63949   -515526.08949  20932085.8294   20932091.0524
  24805448.608      211655.10949    164783.02549  24805452.9654   24805459.4794
  21490949.326      917796.01449    711865.38049  21490950.3214   21490956.1414
  24101700.706    -1910933.95449  -1477374.89649  24101702.4924   24101710.4614
  22451344.805    -2364186.01549  -1831878.33249  22451345.5474   22451351.7244
  20815757.970     1630473.20749   1261505.06649  20815759.2814   20815765.6524
 96  2 17 17  1 30.0000000  0  6 29  4 22 19 18 14
  20928763.849     -682311.06949   -529122.28049  20928765.4794   20928770.8944
  24807795.965      223975.91149    174383.62849  24807798.4054   24807806.5504
  21497482.729      952130.67249    738619.64849  21497483.7374   21497489.9264
  24086910.577    -1988652.64949  -1537934.90149  24086913.9444   24086921.6694
  22438507.283    -2431643.68149  -1884442.73149  22438508.6544   22438514.5484
  20825964.424     1684111.14449   1303300.82949  20825966.1104   20825972.7024
 96  2 17 17  2  0.0000000  0  6 29  4 22 19 18 14
  20925473.774     -699600.83049   -542594.83349  20925475.6544   20925480.8504
  24810218.828      236708.12649    184304.79949  24810220.5904   24810229.2534
  21504109.849      986954.42349    765755.03449  21504110.4404   21504116.3114
  24072141.266    -2066270.67549  -1598416.47849  24072143.0604   24072150.5494
  22425680.902    -2499044.31149  -1936962.70149  22425682.5254   22425688.6224
  20836262.113     1738223.56349   1345466.31949  20836263.4744   20836270.1844
 96  2 17 17  2 30.0000000  0  6 29  4 22 19 18 14
  20922217.409     -716712.51049   -555928.61649  20922219.3504   20922224.4854
  24812724.926      249883.52249    194571.27349  24812728.3594   24812735.1244
  21510834.009     1022294.12949    793292.46949  21510835.5344   21510841.1424
  24057395.755    -2143761.41349  -1658798.83649  24057396.9064   24057406.4574
  22412867.576    -2566378.27849  -1989430.71349  22412869.5364   22412875.3554
  20846655.102     1792841.85449   1388026.00049  20846657.1284   20846663.3864
 96  2 17 17  3  0.0000000  0  6 29  4 22 19 18 14
  20918997.827     -733630.77149   -569111.68449  20918999.9244   20919004.9084
  24815322.882      263523.74549    205199.97349  24815324.8014   24815330.7654
  21517663.623     1058181.06349    821256.30649  21517664.8704   21517670.5994
  24042676.288    -2221113.96349  -1719073.57049  24042677.7044   24042685.3774
  22400070.672    -2633636.73649  -2041839.89749  22400070.7424   22400076.9114
  20857149.600     1847988.80249   1430997.61649  20857151.3904   20857157.6744
 96  2 17 17  3 30.0000000  0  6 29  4 22 19 18 14
  20915810.933     -750380.49249   -582163.42449  20915812.5884   20915817.5444
  24818001.677      277602.96849    216170.76749  24818003.5314   24818008.2904
  21524593.115     1094595.68349    849631.32749  21524594.2224   21524599.9354
  24027974.434    -2298370.10749  -1779273.10849  24027976.7464   24027983.9294
  22387280.442    -2700844.38149  -2094209.49149  22387281.5824   22387287.5514
  20867734.729     1903619.21449   1474345.95849  20867737.3514   20867743.6204
 96  2 17 17  4  0.0000000  0  6 29  4 22 19 18 14
  20912658.425     -766945.40949   -595071.15749  20912660.5294   20912665.6514
  24820767.562      292137.86849    227496.62849  24820769.2784   24820773.9594
  21531628.055     1131561.85949    878436.13449  21531628.5974   21531634.3104
  24013295.258    -2375507.94549  -1839380.45049  24013297.2504   24013305.5104
  22374503.354    -2767982.96749  -2146525.26049  22374505.4264   22374511.2014
  20878413.739     1959730.57749   1518069.06649  20878415.0524   20878421.4904
 96  2 17 17  4 30.0000000  0  6 29  4 22 19 18 14
  20909544.422     -783306.16649   -607819.80449  20909546.8804   20909552.0304
  24823617.862      307124.03549    239174.14449  24823620.7284   24823626.1954
  21538768.388     1169085.83649    907675.59549  21538769.0104   21538774.9724
  23998641.019    -2452516.17149  -1899386.81549  23998643.3944   23998651.8904
  22361743.848    -2835034.41149  -2198773.13049  22361745.5684   22361751.6674
  20889184.708     2016333.70449   1562175.36549  20889186.3564   20889192.7834
 96  2 17 17  5  0.0000000  0  6 29  4 22 19 18 14
  20906471.865     -799457.47049   -620405.24149  20906473.5654   20906478.8214
  24826554.509      322553.54849    251197.08549  24826555.5314   24826565.6414
  21546012.349     1207154.88949    937339.77949  21546013.7454   21546019.3994
  23984009.533    -2529402.47149  -1959298.17149  23984011.7654   23984019.6894
  22349000.303    -2902001.66949  -2250955.39449  22349002.6744   22349008.6634
  20900044.312     2073402.88449   1606644.82649  20900046.3154   20900052.8704
 96  2 17 17  5 30.0000000  0  6 29  4 22 19 18 14
  20903435.072     -815411.01249   -632836.58449  20903437.8514   20903442.9584
  24829570.516      338418.81249    263559.57949  24829575.7524   24829582.3734
  21553355.195     1245742.55549    967408.08149  21553356.4354   21553362.1204
  23969403.582    -2606169.98849  -2019116.96849  23969404.3524   23969410.9344
  22336270.990    -2968893.66349  -2303079.01749  22336273.1454   22336279.5014
  20910988.936     2130918.61849   1651462.24949  20910991.1014   20910997.6914
 96  2 17 17  6  0.0000000  0  6 29  4 22 19 18 14
  20900437.639     -831166.97049   -645113.96649  20900439.8004   20900444.7134
  24832675.268      354723.66949    276264.61949  24832678.5934   24832684.4824
  21560798.432     1284856.51149    997886.48049  21560799.5424   21560805.4514
  23954820.073    -2682794.86749  -2078824.60649  23954821.9314   23954830.1784
  22323557.114    -3035712.55549  -2355145.68049  22323558.1684   22323563.9914
  20922023.156     2188899.13149   1696641.83749  20922024.5184   20922031.0604
 96  2 17 17  6 30.0000000  0  6 29  4 22 19 18 14
  20897475.500     -846730.50149   -657241.39749  20897478.0614   20897483.1194
  24835861.531      371454.11849    289301.30049  24835861.9864   24835870.1284
  21568342.092     1324492.79449   1028771.88549  21568342.1184   21568348.2514
  23940263.991    -2759289.07149  -2138430.43049  23940265.5054   23940273.5734
  22310856.398    -3102456.55149  -2407153.97949  22310857.2634   22310863.5004
  20933145.479     2247352.78149   1742190.10449  20933148.0534   20933154.2714
 96  2 17 17  7  0.0000000  0  6 29  4 22 19 18 14
  20894547.844     -862118.41449   -669231.98649  20894549.6514   20894554.9984
  24839121.105      388598.94849    302660.86549  24839123.3164   24839131.1024
  21575982.886     1364649.88749   1060063.11449  21575983.6834   21575989.5984
  23925730.533    -2835666.40849  -2197945.18649  23925731.9214   23925739.9654
  22298167.443    -3169133.85149  -2459110.32149  22298168.7824   22298174.5424
  20944357.432     2306267.41449   1788097.57949  20944359.1174   20944365.4854
 96  2 17 17  7 30.0000000  0  6 29  4 22 19 18 14
  20891657.074     -877308.58249   -681068.49049  20891659.2774   20891664.1644
  24842467.088      406169.33549    316352.01249  24842468.7274   24842474.5494
  21583730.020     1405359.78649   1091785.09949  21583730.6704   21583736.3414
  23911220.826    -2911912.74949  -2257357.86349  23911222.4014   23911230.9804
  22285494.676    -3235731.81949  -2511004.83149  22285495.8764   22285501.9334
  20955662.148     2365675.69049   1834389.70749  20955664.1244   20955670.8634
 96  2 17 17  8  0.0000000  0  6 29  4 22 19 18 14
  20888805.902     -892291.28849   -692743.33249  20888808.3394   20888813.1614
  24845889.625      424146.55249    330360.17949  24845890.5094   24845897.2494
  21591582.116     1446627.43249   1123941.70149  21591583.7374   21591589.6274
  23896733.797    -2988038.58749  -2316676.65749  23896736.1744   23896744.2104
  22272833.032    -3302260.74849  -2562845.54149  22272835.3924   22272841.6464
  20967058.931     2425566.57949   1881057.89749  20967061.0114   20967067.5494
 96  2 17 17  8 30.0000000  0  6 29  4 22 19 18 14
  20885996.124     -907057.57249   -704249.53549  20885998.1094   20886003.2124
  24849387.624      442536.59149    344690.02849  24849389.0534   24849396.0804
  21599541.263     1488451.16749   1156531.61449  21599542.6254   21599548.3934
  23882268.216    -3064057.64149  -2375912.22849  23882270.2464   23882277.7604
  22260188.354    -3368706.03649  -2614621.08749  22260191.0084   22260197.3734
  20978546.739     2485937.16149   1928099.87249  20978549.0894   20978555.5824
 96  2 17 17  9  0.0000000  0  6 29  4 22 19 18 14
  20883226.307     -921614.63249   -715592.70849  20883227.9804   20883233.1344
  24852969.758      461355.88449    359354.32949  24852971.9574   24852978.0654
  21607606.475     1530832.64149   1189556.13249  21607607.2784   21607613.3784
  23867821.537    -3139959.36049  -2435056.36949  23867826.3774   23867834.7464
  22247564.118    -3435063.31449  -2666328.05549  22247564.3494   22247570.4154
  20990125.679     2546780.18149   1975509.98549  20990127.2564   20990133.5804
 96  2 17 17  9 30.0000000  0  6 29  4 22 19 18 14
  20880496.368     -935956.07249   -726767.86549  20880498.9404   20880504.0614
  24856630.650      480598.95849    374348.89449  24856632.6864   24856640.2744
  21615774.284     1573759.97949   1223005.99849  21615776.1274   21615782.1874
  23853401.919    -3215735.74649  -2494102.86849  23853406.1284   23853414.8814
  22234951.018    -3501335.37149  -2717968.61249  22234952.8324   22234959.1564
  21001791.299     2608086.57249   2023281.16549  21001793.6324   21001799.9934
 96  2 17 17 10  0.0000000  0  6 29  4 22 19 18 14
  20877805.293     -950100.14049   -737789.22649  20877807.4824   20877812.6754
  24860368.829      500254.39449    389664.77749  24860372.2844   24860378.8704
  21624043.524     1617212.66349   1256865.21949  21624045.3514   21624050.8754
  23839008.998    -3291390.98449  -2553054.98049  23839010.7524   23839018.9884
  22222357.783    -3567515.02749  -2769537.16549  22222359.6954   22222365.6314
  21013545.052     2669851.23449   2071409.44049  21013546.9734   21013553.4604
 96  2 17 17 10 30.0000000  0  6 29  4 22 19 18 14
  20875148.873     -964057.93649   -748665.44149  20875151.1754   20875156.2984
  24864190.549      520335.86349    405312.62449  24864194.0474   24864200.2834
  21632411.505     1661188.81249   1291132.34049  21632413.0674   21632419.2704
  23824633.284    -3366924.46849  -2611912.20749  23824636.4994   23824644.9534
  22209782.424    -3633599.96749  -2821031.93049  22209784.1714   22209789.5704
  21025388.397     2732089.19949   2119906.52449  21025390.7174   21025396.8514
 96  2 17 17 11  0.0000000  0  6 29  4 22 19 18 14
  20872530.811     -977820.24349   -759389.32649  20872532.4974   20872537.8124
  24868093.070      540832.60349    421284.03949  24868095.0324   24868102.0004
  21640881.529     1705694.42449   1325812.02849  21640882.6374   21640888.5094
  23810286.308    -3442325.76849  -2670666.44749  23810288.1824   23810296.4104
  22197222.366    -3699606.00249  -2872465.20649  22197223.1024   22197229.7724
  21037321.579     2794795.84349   2168768.81449  21037323.2764   21037329.4824
 96  2 17 17 11 30.0000000  0  6 29  4 22 19 18 14
  20869948.985     -991382.99649   -769957.71449  20869951.5704   20869956.7704
  24872068.775      561739.54749    437575.09949  24872072.2084   24872080.6034
  21649451.129     1750727.91649   1360903.04949  21649452.0674   21649458.1874
  23795960.564    -3517600.78549  -2729322.27449  23795964.1864   23795972.4594
  22184673.825    -3765546.69749  -2923847.55349  22184675.3434   22184681.6734
  21049341.815     2857966.65549   2217992.79449  21049344.1284   21049350.6084
 96  2 17 17 12  0.0000000  0  6 29  4 22 19 18 14
  20867403.582    -1004758.91349   -780380.51549  20867406.1724   20867411.2824
  24876131.707      583078.49249    454202.80849  24876133.6414   24876140.6954
  21658121.365     1796294.58149   1396409.53549  21658123.2024   21658129.4474
  23781659.439    -3592757.23749  -2787885.70149  23781661.4674   23781669.8124
  22172138.815    -3831414.93249  -2975173.45349  22172140.8274   22172147.2334
  21061454.433     2921614.54749   2267588.52549  21061456.1494   21061462.7584
 96  2 17 17 12 30.0000000  0  6 29  4 22 19 18 14
  20864892.674    -1017953.98549   -790662.40149  20864895.3144   20864900.6144
  24880273.919      604848.72349    471166.55149  24880276.1924   24880284.5154
  21666890.539     1842374.56649   1432316.00749  21666892.1194   21666897.8284
  23767378.127    -3667806.78949  -2846365.84649  23767379.8464   23767388.4274
  22159617.480    -3897223.21749  -3026452.62649  22159618.1474   22159624.6764
  21073653.512     2985721.58249   2317542.02949  21073655.0094   21073661.6074
 96  2 17 17 13  0.0000000  0  6 29  4 22 19 18 14
  20862420.768    -1030944.58849   -800784.95849  20862423.5524   20862428.8224
  24884502.289      627058.88549    488473.09949  24884502.5854   24884509.7054
  21675757.091     1888970.67949   1468624.65549  21675758.9324   21675764.6254
  23753121.773    -3742729.64349  -2904747.25849  23753123.0554   23753130.1644
  22147110.149    -3962942.24249  -3077662.25549  22147111.9324   22147118.4604
  21085940.718     3050293.57449   2367857.83849  21085942.8674   21085949.4604
 96  2 17 17 13 30.0000000  0  6 29  4 22 19 18 14
  20859985.558    -1043747.43449   -810761.21449  20859987.2764   20859992.3234
  24888808.495      649702.24049    506117.22849  24888811.6814   24888819.8734
  21684719.377     1936066.05549   1505322.34549  21684720.8614   21684726.4354
  23738885.328    -3817537.48849  -2963039.07549  23738887.4484   23738895.8264
  22134625.668    -4028554.49249  -3128788.68249  22134626.5184   22134632.9574
  21098315.664     3115324.12749   2418530.97049  21098317.8084   21098324.2374
 96  2 17 17 14  0.0000000  0  6 29  4 22 19 18 14
  20857587.005    -1056347.43749   -820579.40749  20857589.1824   20857594.5324
  24893201.012      672771.76849    524093.40749  24893202.7094   24893208.5194
  21693776.494     1983657.11149   1542406.26849  21693777.1434   21693782.6844
  23724669.657    -3892237.36949  -3021246.75549  23724672.9244   23724679.7314
  22122160.649    -4094049.50049  -3179823.75449  22122163.3524   22122169.6704
  21110778.348     3180816.48249   2469563.94549  21110780.4724   21110787.0544
 96  2 17 17 14 30.0000000  0  6 29  4 22 19 18 14
  20855233.998    -1068712.30749   -830214.38549  20855236.4724   20855241.6554
  24897666.915      696250.46649    542388.45049  24897669.7534   24897676.6834
  21702927.887     2031747.50449   1579879.29249  21702928.7694   21702934.0714
  23710478.337    -3966823.79149  -3079366.04749  23710479.3534   23710487.2144
  22109722.255    -4159427.73649  -3230767.83049  22109722.0824   22109728.8244
  21123326.053     3246753.31149   2520943.26349  21123327.7904   21123334.4414
 96  2 17 17 15  0.0000000  0  6 29  4 22 19 18 14
  20852927.894    -1080832.39049   -839658.61749  20852929.9184   20852935.2794
  24902213.155      720135.95849    561000.48749  24902215.4144   24902221.6904
  21712175.848     2080353.92349   1617754.40749  21712178.2664   21712184.0494
  23696308.644    -4041283.66149  -3137386.70949  23696310.2334   23696318.2144
  22097301.654    -4224690.53749  -3281621.95949  22097303.1464   22097309.5694
  21135956.450     3313127.11149   2572663.08149  21135958.4934   21135965.1344
 96  2 17 17 15 30.0000000  0  6 29  4 22 19 18 14
  20850661.595    -1092738.98749   -848936.49249  20850664.1294   20850669.1454
  24906831.680      744409.36149    579914.78049  24906834.9304   24906841.4174
  21721521.372     2129459.72649   1656018.65649  21721522.4314   21721528.6214
  23682157.378    -4115645.04249  -3195330.64049  23682160.2544   23682166.6924
  22084897.307    -4289873.39949  -3332413.79449  22084898.9344   22084905.5104
  21148665.211     3379913.17349   2624704.13849  21148667.2394   21148674.2774
 96  2 17 17 16  0.0000000  0  6 29  4 22 19 18 14
  20848441.359    -1104407.38249   -858028.75749  20848443.8554   20848449.1704
  24911526.973      769083.68849    599141.50849  24911529.1674   24911536.2214
  21730964.135     2179084.96249   1694687.66149  21730965.6274   21730971.5574
  23668030.498    -4189886.11049  -3253180.81549  23668031.4204   23668038.7784
  22072509.725    -4354970.71449  -3383138.96549  22072511.4374   22072517.8874
  21161455.605     3447127.56349   2677078.95449  21161457.8564   21161464.6684
 96  2 17 17 16 30.0000000  0  6 29  4 22 19 18 14
  20846265.011    -1115843.63349   -866940.12849  20846267.8184   20846272.9524
  24916299.753      794159.58149    618681.08349  24916301.1694   24916308.9884
  21740508.494     2229235.04949   1733765.63349  21740509.1694   21740515.0984
  23653929.314    -4263982.89849  -3310918.55849  23653932.2584   23653939.5954
  22060141.124    -4419967.16849  -3433785.55249  22060143.0964   22060149.5384
  21174329.933     3514781.38549   2729796.18949  21174331.9734   21174338.9094
 96  2 17 17 17  0.0000000  0  6 29  4 22 19 18 14
  20844130.012    -1127063.34349   -875682.76549  20844132.5414   20844137.9914
  24921149.016      819644.02249    638539.04149  24921152.0944   24921158.2084
  21750153.122     2279920.64949   1773260.88249  21750154.3404   21750160.1324
  23639858.779    -4337919.69549  -3368531.63249  23639862.0094   23639869.5934
  22047794.831    -4484851.09249  -3484344.44449  22047796.2514   22047802.7034
  21187292.092     3582899.39449   2782875.12849  21187294.5334   21187301.1184
 96  2 17 17 17 30.0000000  0  6 29  4 22 19 18 14
  20842035.653    -1138070.78549   -884259.99949  20842038.0564   20842043.3234
  24926071.646      845521.25649    658703.09949  24926075.5714   24926081.6154
  21759898.885     2331139.34849   1813171.54049  21759901.1414   21759906.6504
  23625819.641    -4411703.01949  -3426025.12549  23625821.8314   23625829.6654
  22035468.829    -4549617.11449  -3534811.46549  22035471.6264   22035477.9874
  21200345.606     3651493.29149   2836324.88749  21200347.7214   21200354.3644
 96  2 17 17 18  0.0000000  0  6 29  4 22 19 18 14
  20839984.913    -1148848.66649   -892658.35149  20839987.1604   20839992.3384
  24931070.468      871787.45149    679170.21749  24931073.3624   24931080.5394
  21769747.486     2382891.84049   1853498.13449  21769749.1624   21769755.3824
  23611813.992    -4485310.62149  -3483381.68649  23611814.1604   23611822.8094
  22023170.995    -4614249.26449  -3585174.16649  22023172.6304   22023179.0194
  21213490.719     3720569.90249   2890150.78949  21213492.5094   21213499.1124
 96  2 17 17 18 30.0000000  0  6 29  4 22 19 18 14
  20837974.730    -1159408.02749   -900886.43049  20837977.5784   20837983.0174
  24936143.378      898440.44849    699938.72349  24936145.5924   24936152.1334
  21779693.005     2435155.00249   1894222.65649  21779694.4304   21779700.2454
  23597835.981    -4558749.86649  -3540607.04649  23597839.5764   23597847.6294
  22010896.099    -4678758.20949  -3635440.86049  22010897.0714   22010902.9324
  21226724.133     3790115.98649   2944342.51349  21226726.3874   21226733.1054
 96  2 17 17 19  0.0000000  0  6 29  4 22 19 18 14
  20836009.708    -1169737.51049   -908935.38549  20836012.1634   20836017.4664
  24941288.325      925482.28649    721010.21149  24941290.8324   24941298.5024
  21789734.494     2487921.32249   1935339.24449  21789735.7134   21789741.3304
  23583893.496    -4632027.24449  -3597706.28549  23583895.1394   23583902.0274
  21998640.705    -4743157.29149  -3685621.95749  21998642.1824   21998648.3344
  21240045.906     3860120.99549   2998891.83949  21240048.3264   21240054.9404
 96  2 17 17 19 30.0000000  0  6 29  4 22 19 18 14
  20834085.783    -1179845.55349   -916811.78249  20834088.7984   20834093.7504
  24946505.574      952899.82749    742374.45149  24946509.2264   24946516.2384
  21799866.501     2541163.01349   1976826.25449  21799867.2674   21799873.3504
  23569975.153    -4705164.31649  -3654696.18649  23569977.4444   23569985.6994
  21986404.552    -4807457.19049  -3735725.76249  21986406.0824   21986412.2504
  21253449.083     3930551.02549   3053772.35549  21253450.7054   21253457.4244
 96  2 17 17 20  0.0010000  0  6 29  4 22 19 18 14
  20832207.091    -1189719.90849   -924506.08349  20832209.5134   20832214.6704
  24951803.065      980723.92449    764055.50549  24951804.6464   24951811.3774
  21810087.779     2594877.99849   2018682.07049  21810088.9984   21810094.7714
  23556085.200    -4778160.62349  -3711576.39649  23556087.4754   23556095.5694
  21974188.084    -4871653.54149  -3785748.88549  21974189.8904   21974196.0564
  21266931.594     4001408.51049   3108985.95349  21266934.2924   21266940.8704
 96  2 17 17 20 30.0010000  0  6 29  4 22 19 18 14
  20830371.424    -1199364.35949   -932021.24349  20830374.1624   20830379.5904
  24957173.682     1008955.54749    786054.10349  24957177.0804   24957183.3714
  21820398.277     2649065.97649   2060906.44449  21820400.6964   21820406.8404
  23542216.639    -4851037.94849  -3768363.89549  23542218.8694   23542225.7334
  21961992.634    -4935742.77449  -3835688.53849  21961994.2914   21962000.6474
  21280493.844     4072678.84349   3164521.24249  21280496.7274   21280503.3294
 96  2 17 17 21  0.0010000  0  6 29  4 22 19 18 14
  20828581.718    -1208771.32949   -939351.34649  20828584.2544   20828589.2904
  24962626.602     1037607.39849    808380.18649  24962628.9874   24962635.8084
  21830804.331     2703748.93149   2103516.52449  21830806.2464   21830812.5024
  23528372.836    -4923788.88149  -3825052.88649  23528375.0854   23528382.1054
  21949822.765    -4999698.33449  -3885524.02949  21949824.0464   21949830.0544
  21294138.968     4144378.82049   3220391.32849  21294140.6554   21294147.2114
 96  2 17 17 21 30.0010000  0  6 29  4 22 19 18 14
  20826833.517    -1217956.98149   -946508.99549  20826836.3834   20826841.3824
  24968158.995     1066673.76249    831029.23449  24968161.7224   24968166.2394
  21841302.468     2758917.34249   2146504.88649  21841304.3064   21841310.6864
  23514548.772    -4996427.67449  -3881654.50449  23514552.7864   23514560.6784
  21937675.777    -5063521.16849  -3935256.10249  21937679.0644   21937684.9414
  21307861.416     4216492.56749   3276583.82749  21307863.5484   21307870.2804
 96  2 17 17 22  0.0010000  0  6 29  4 22 19 18 14
  20825128.163    -1226919.72749   -953492.95349  20825130.7584   20825135.7064
  24973765.516     1096145.43749    853994.13049  24973769.4284   24973776.0954
  21851893.168     2814569.09949   2189869.87849  21851894.9314   21851900.7304
  23500748.272    -5068962.82649  -3938175.35649  23500748.9344   23500757.4954
  21925556.420    -5127214.96549  -3984887.62049  21925558.3674   21925564.5954
  21321663.655     4289025.67149   3333103.09849  21321666.4984   21321672.9274
 96  2 17 17 22 30.0010000  0  6 29  4 22 19 18 14
  20823467.054    -1235648.07749   -960294.26249  20823469.8064   20823475.0164
  24979453.450     1126025.57549    877277.33849  24979453.3514   24979460.3204
  21862579.267     2870724.15049   2233627.04649  21862580.9594   21862586.7094
  23486969.094    -5141365.55349  -3994593.01749  23486971.9894   23486979.2944
  21913464.055    -5190764.73749  -4034406.91849  21913465.2414   21913471.3704
  21335548.437     4361991.68349   3389959.70349  21335551.2774   21335557.5614
 96  2 17 17 23  0.0010000  0  6 29  4 22 19 18 14
  20821848.847    -1244152.55849   -966921.12749  20821851.7364   20821856.7854
  24985208.844     1156296.05149    900864.73049  24985212.3134   24985220.4254
  21873358.191     2927369.14549   2277765.98549  21873360.0274   21873365.8764
  23473215.482    -5213633.04849  -4050905.29649  23473219.0554   23473227.4854
  21901392.900    -5254196.06949  -4083833.92249  21901395.1234   21901400.9094
  21349516.249     4435390.51349   3447153.56749  21349518.7504   21349525.4514
 96  2 17 17 23 30.0010000  0  6 29  4 22 19 18 14
  20820273.742    -1252429.27949   -973370.51749  20820276.6334   20820281.4184
  24991044.934     1186941.86249    924744.51549  24991047.2624   24991054.1954
  21884230.479     2984502.67749   2322285.61649  21884232.2124   21884238.2764
  23459487.945    -5285780.06949  -4107123.70349  23459490.3014   23459497.6874
  21889340.565    -5317533.12449  -4133187.46949  21889342.0244   21889348.2644
  21363565.200     4509214.80249   3504678.95349  21363566.8254   21363573.7404
 96  2 17 17 24  0.0010000  0  6 29  4 22 19 18 14
  20818744.256    -1260468.78249   -979635.06249  20818746.6144   20818751.8144
  24996945.157     1217958.51949    948913.25749  24996948.2114   24996957.1784
  21895197.127     3042128.99249   2367189.22949  21895198.0834   21895203.8434
  23445783.759    -5357800.13849  -4163243.21449  23445785.2564   23445792.4954
  21877306.839    -5380771.29149  -4182463.95249  21877308.6134   21877314.2874
  21377694.935     4583472.49049   3562542.05649  21377697.7054   21377704.1684
 96  2 17 17 24 30.0010000  0  6 29  4 22 19 18 14
  20817261.069    -1268263.70649   -985709.02949  20817263.6374   20817268.5294
  25002920.169     1249351.31049    973375.11749  25002922.7284   25002929.8584
  21906255.264     3100240.76349   2412471.11549  21906256.4754   21906262.2984
  23432105.851    -5429684.44349  -4219256.90449  23432106.2944   23432113.7154
  21865291.133    -5443907.54949  -4231661.02849  21865293.8574   21865299.6104
  21391908.542     4658164.99549   3620743.97949  21391911.3094   21391917.7764
 96  2 17 17 25  0.0010000  0  6 29  4 22 19 18 14
  20815823.485    -1275816.80849   -991594.56249  20815826.0744   20815830.9744
  25008963.742     1281112.69649    998124.20149  25008966.5434   25008974.2794
  21917403.299     3158828.01849   2458123.51649  21917405.2854   21917411.2144
  23418448.189    -5501448.13349  -4275176.61849  23418450.6644   23418457.9664
  21853297.017    -5506937.24749  -4280775.07149  21853299.7264   21853305.9574
  21406203.787     4733284.94449   3679278.97549  21406206.1744   21406213.0604
 96  2 17 17 25 30.0010000  0  6 29  4 22 19 18 14
  20814433.512    -1283123.50149   -997288.09349  20814435.7004   20814440.4784
  25015077.904     1313241.03049   1023159.24849  25015080.5524   25015086.7684
  21928640.368     3217881.89749   2504139.51349  21928642.9124   21928648.5874
  23404816.372    -5573085.35049  -4330997.79749  23404817.6454   23404825.8564
  21841329.216    -5569834.04649  -4329785.55949  21841330.9664   21841336.8594
  21420576.568     4808815.68349   3738134.06149  21420579.0714   21420585.9104
 96  2 17 17 26  0.0010000  0  6 29  4 22 19 18 14
  20813089.777    -1290180.47149  -1002787.03249  20813092.8144   20813097.9124
  25021262.389     1345746.43449   1048488.05949  25021267.1684   25021272.4514
  21939965.689     3277397.06449   2550514.96349  21939968.1714   21939974.0064
  23391211.783    -5644567.70149  -4386698.28749  23391215.0964   23391223.0444
  21829387.685    -5632581.00149  -4378679.28349  21829390.3964   21829396.5364
  21435027.305     4884752.82549   3797305.83049  21435029.5734   21435036.4314
 96  2 17 17 26 30.0010000  0  6 29  4 22 19 18 14
  20811793.232    -1296992.39949  -1008095.03249  20811796.4524   20811801.6164
  25027521.408     1378633.66059   1074114.44449  25027524.2334   25027531.1734
  21951382.392     3337382.48149   2597256.82549  21951383.3704   21951389.2414
  23377640.027    -5715884.04849  -4442269.45149  23377644.2614   23377651.8254
  21817479.098    -5695167.85749  -4427448.25449  21817480.2944   21817486.6044
  21449555.594     4961097.14149   3856794.87249  21449557.2894   21449564.2764
 96  2 17 17 27  0.0010000  0  6 29  4 22 19 18 14
  20810544.797    -1303555.16749  -1013208.88149  20810547.6684   20810552.6364
  25033853.065     1411909.16549   1100043.31649  25033854.3414   25033860.9984
  21962890.583     3397866.88849   2644387.51849  21962892.9864   21962898.7274
  23364106.297    -5787014.43349  -4497695.68049  23364108.1204   23364116.2984
  21805603.552    -5757574.06649  -4476076.46049  21805605.0054   21805611.3374
  21464161.285     5037852.76849   3916604.41849  21464163.1694   21464170.2604
 96  2 17 17 27 30.0010000  0  6 29  4 22 19 18 14
  20809343.546    -1309870.61249  -1018130.01049  20809346.1894   20809350.9264
  25040256.491     1445562.01049   1126266.32449  25040259.5784   25040267.1014
  21974493.041     3458837.30549   2691896.91549  21974495.0904   21974500.9934
  23350603.255    -5857970.26749  -4552985.91349  23350606.4584   23350613.8594
  21793759.162    -5819817.02449  -4524577.45349  21793760.5464   21793766.8944
  21478840.854     5114998.49449   3976717.94149  21478843.7024   21478850.6764
 96  2 17 17 28  0.0010000  0  6 29  4 22 19 18 14
  20808189.519    -1315934.15849  -1022854.85549  20808191.9884   20808197.0884
  25046735.428     1479597.70349   1152787.59349  25046735.4084   25046742.5074
  21986189.970     3520298.10549   2739788.42749  21986190.9064   21986196.8084
  23337132.857    -5928757.32949  -4608144.63849  23337134.8254   23337143.8684
  21781945.199    -5881898.00149  -4572952.23849  21781947.1594   21781952.8814
  21493598.527     5192547.85349   4037145.97549  21493601.2444   21493607.8194
 96  2 17 17 28 30.0010000  0  6 29  4 22 19 18 14
  20807081.890    -1321753.00149  -1027389.02549  20807084.7654   20807089.7424
  25053278.793     1513989.74049   1179586.55849  25053281.0504   25053287.4044
  21997973.008     3582226.62749   2788044.39949  21997975.6164   21997981.1664
  23323688.612    -5999406.56149  -4663195.95249  23323691.3884   23323698.9354
  21770160.937    -5943821.22649  -4621204.09449  21770163.6194   21770169.6154
  21508434.573     5270509.15549   4097894.99949  21508436.5834   21508443.2954
 96  2 17 17 29  0.0010000  0  6 29  4 22 19 18 14
  20806026.913    -1327300.38549  -1031711.66749  20806029.0134   20806034.0764
  25059893.528     1548752.48449   1206674.40649  25059895.9724   25059904.2444
  22009846.992     3644619.44549   2836662.16349  22009848.5064   22009854.3044
  23310271.273    -6069912.52149  -4718135.64749  23310274.5024   23310281.2654
  21758409.244    -6005579.29349  -4669327.25949  21758411.4424   21758417.1274
  21523351.371     5348897.45349   4158976.76049  21523353.7224   21523360.3834
 96  2 17 17 29 30.0010000  0  6 29  4 22 19 18 14
  20805024.088    -1332564.55549  -1035813.62349  20805027.3014   20805032.3164
  25066576.433     1583880.90749   1234047.15549  25066582.0574   25066590.8884
  22021805.065     3707461.00749   2885629.59849  22021806.3194   22021812.5794
  23296882.037    -6140284.58249  -4772970.97849  23296882.8874   23296890.5674
  21746687.453    -6067176.76549  -4717325.28149  21746689.8284   21746695.6454
  21538349.978     5427716.73849   4220394.34949  21538352.4714   21538359.1044
 96  2 17 17 30  0.0010000  0  6 29  4 22 19 18 14
  20804074.167    -1337561.51949  -1039707.36849  20804076.4474   20804081.7434
  25073333.047     1619361.99549   1261694.72749  25073334.5944   25073341.1294
  22033848.792     3770748.12949   2934944.21349  22033849.9434   22033855.9794
  23283513.888    -6210517.94649  -4827698.25449  23283518.3484   23283526.0474
  21734996.281    -6128611.87449  -4765196.78949  21734998.8364   21735005.0664
  21553432.521     5506976.15049   4282154.89049  21553435.0094   21553441.9244
 96  2 17 17 30 30.0010000  0  6 29  4 22 19 18 14
  20803172.687    -1342295.05249  -1043395.84349  20803175.5324   20803180.7354
  25080151.806     1655206.38849   1289625.37149  25080154.6934   25080162.4604
  22045978.424     3834499.63749   2984620.69049  22045980.7964   22045987.3754
  23270178.529    -6280599.26549  -4882307.04849  23270182.1394   23270189.6354
  21723336.788    -6189885.89049  -4812942.76449  21723338.8764   21723344.8314
  21568598.189     5586670.18049   4344254.09849  21568600.0684   21568606.9424
 96  2 17 17 31  0.0010000  0  6 29  4 22 19 18 14
  20802327.579    -1346741.74549  -1046860.80249  20802329.7914   20802334.6334
  25087048.476     1691446.40549   1317864.30349  25087051.0204   25087060.0534
  22058205.003     3898748.64349   3034684.82849  22058207.3174   22058213.4604
  23256876.851    -6350504.53149  -4936778.67549  23256878.8784   23256886.8224
  21711708.083    -6250990.59049  -4860556.81049  21711710.9914   21711717.1424
  21583845.287     5666794.14349   4406688.31949  21583847.7034   21583854.3384
 96  2 17 17 31 30.0010000  0  6 29  4 22 19 18 14
  20801535.297    -1350901.78949  -1050102.40149  20801537.9314   20801543.3284
  25094019.272     1728082.37249   1346411.73949  25094020.9844   25094031.3924
  22070529.376     3963505.61049   3085144.79049  22070530.4134   22070536.1764
  23243611.341    -6420224.28249  -4991105.71749  23243612.4474   23243620.1364
  21700114.595    -6311922.15349  -4908035.94449  21700116.1824   21700122.2454
  21599173.259     5747347.83649   4469457.40149  21599175.9714   21599183.1924
 96  2 17 17 32  0.0010000  0  6 29  4 22 19 18 14
  20800793.619    -1354798.25249  -1053138.61149  20800796.5304   20800801.7254
  25101063.698     1765108.41049   1375263.14049  25101067.5464   25101075.6244
  22082944.705     4028756.04449   3135989.27249  22082947.2054   22082953.1644
  23230373.422    -6489771.80049  -5045298.55749  23230377.4424   23230385.2654
  21688546.930    -6372710.24149  -4955403.27749  21688548.6864   21688554.5424
  21614579.142     5828302.57549   4532538.98449  21614581.1984   21614588.2284
 96  2 17 17 32 30.0010000  0  6 29  4 22 19 18 14
  20800104.434    -1358419.45249  -1055960.33349  20800107.2984   20800112.4234
  25108186.340     1802529.42749   1404422.34849  25108189.6224   25108196.4754
  22095454.265     4094484.79149   3187206.47149  22095454.9744   22095460.7614
  23217170.160    -6559159.93349  -5099367.20149  23217173.6754   23217181.4144
  21677004.697    -6433360.70949  -5002663.36849  21677007.2584   21677012.9524
  21630059.182     5909646.79749   4595924.05949  21630060.8074   21630067.6824
 96  2 17 17 33  0.0010000  0  6 29  4 22 19 18 14
  20799472.067    -1361742.22149  -1058549.51149  20799474.9954   20799480.0564
  25115384.909     1840349.24049   1433892.30349  25115386.4064   25115394.0804
  22108050.503     4160686.31749   3238792.06649  22108052.2364   22108058.4224
  23203997.973    -6628382.34749  -5153306.74049  23204001.0564   23204008.4724
  21665494.220    -6493849.87249  -5049797.77749  21665496.3594   21665502.3294
  21645615.474     5991397.43749   4659625.81749  21645617.1744   21645624.2804
 96  2 17 17 33 30.0010000  0  5 29 22 19 18 14
  20798893.797    -1364782.79649  -1060918.79249  20798896.4604   20798901.5724
  22120736.970     4227352.56249   3290739.78649  22120739.0184   22120744.8364
  23190856.251    -6697443.71549  -5207120.77049  23190859.1124   23190866.8494
  21654015.284    -6554174.44549  -5096803.93349  21654016.9504   21654023.2314
  21661249.743     6073558.83249   4723647.64749  21661252.2124   21661259.0804
 96  2 17 17 34  0.0010000  0  5 29 22 19 18 14
  20798367.400    -1367549.82349  -1063074.92849  20798370.1394   20798375.1384
  22133511.200     4294481.96949   3343048.40849  22133513.2184   22133518.9124
  23177744.259    -6766349.50649  -5260813.55849  23177747.4454   23177754.5384
  21642571.753    -6614311.35549  -5143663.85549  21642573.2614   21642579.4954
  21676963.164     6156132.30049   4787990.57249  21676965.6884   21676972.3224
 96  2 17 17 34 30.0010000  0  5 29 22 19 18 14
  20797890.679    -1370058.76949  -1065029.95349  20797892.6744   20797897.5584
  22146371.965     4362068.63949   3395713.34449  22146374.1554   22146379.9204
  23164659.229    -6835107.07549  -5314390.87349  23164662.7404   23164670.2504
  21631165.270    -6674247.88249  -5190367.63049  21631167.8274   21631173.8874
  21692754.809     6239113.77749   4852651.43449  21692756.5004   21692763.1874
 96  2 17 17 35  0.0010000  0  5 29 22 19 18 14
  20797464.292    -1372297.36049  -1066774.31949  20797466.5364   20797471.4504
  22159325.164     4430133.49949   3448750.89549  22159327.0284   22159332.7204
  23151610.720    -6903690.81449  -5367832.71849  23151611.4274   23151619.4084
  21619800.461    -6733972.08849  -5236905.96949  21619802.6064   21619808.8674
  21708624.492     6322511.64149   4917636.74449  21708626.5574   21708633.3954
 96  2 17 17 35 30.0010000  0  5 29 22 19 18 14
  20797084.588    -1374292.78849  -1068329.20449  20797086.7504   20797091.9434
  22172363.228     4498653.75449   3502143.29249  22172365.7484   22172371.6134
  23138586.374    -6972118.28749  -5421152.79549  23138590.7724   23138597.8234
  21608469.874    -6793513.95349  -5283302.21549  21608472.1524   21608478.4564
  21724567.068     6406293.17349   4982921.01449  21724569.8534   21724576.5964
 96  2 17 17 36  0.0010000  0  5 29 22 19 18 14
  20796758.524    -1376001.90449  -1069660.99049  20796761.7244   20796767.1324
  22185493.556     4567651.21049   3555907.54149  22185495.5734   22185501.5594
  23125602.879    -7040366.29449  -5474333.05249  23125603.8344   23125610.5834
  21597179.613    -6852848.61049  -5329537.01149  21597181.2054   21597186.9894
  21740587.068     6490480.34449   5048521.37249  21740589.8854   21740597.0424
 96  2 17 17 36 30.0010000  0  5 29 22 19 18 14
  20796491.609    -1377407.14549  -1070755.99349  20796494.4184   20796499.3944
  22198711.010     4637105.74449   3610027.94849  22198712.4324   22198718.1584
  23112645.292    -7108437.03949  -5527375.14049  23112649.6174   23112657.3474
  21585920.252    -6912009.64949  -5375636.51149  21585923.1814   21585929.2224
  21756680.962     6575052.53049   5114421.73249  21756683.5364   21756690.3714
 96  2 17 17 37  0.0010000  0  6 29 22 19 18 28 14
  20796287.239    -1378480.66049  -1071592.50849  20796290.0564   20796295.1634
  22212014.026     4707015.87349   3664503.36649  22212015.7024   22212021.5164
  23099727.926    -7176329.19849  -5580278.12049  23099730.5264   23099738.0174
  21574696.780    -6970991.90449  -5421596.70049  21574699.3474   21574705.3114
  25088041.890     -427717.94419   -299662.00319  25088045.623    25088053.656
  21772847.572     6660010.73949   5180622.89249  21772850.5784   21772857.5614
 96  2 17 17 37 30.0010000  0  6 29 22 19 18 28 14
  20796149.886    -1379205.18849  -1072157.08349  20796152.1744   20796157.3244
  22225404.526     4777382.53049   3719334.50849  22225406.1074   22225411.7764
  23086844.139    -7244039.81249  -5633039.59449  23086845.7484   23086853.2944
  21563511.041    -7029774.55549  -5467401.35549  21563513.1914   21563519.2014
  25074724.196     -497688.016 9   -354184.130 9  25074731.487    25074738.837
  21789089.933     6745359.76849   5247128.58749  21789092.0464   21789099.2274
 96  2 17 17 38  0.0010000  0  6 29 22 19 18 28 14
  20796077.973    -1379579.23749  -1072448.56249  20796081.0434   20796086.0954
  22238876.980     4848185.21849   3774505.41749  22238879.3594   22238885.5204
  23073990.286    -7311574.60549  -5685664.07749  23073994.5624   23074001.5844
  21552361.189    -7088368.34449  -5513058.84449  21552363.1674   21552369.0844
  25061429.648     -567572.221 9   -408639.306 9  25061431.211    25061439.917
  21805401.589     6831085.46649   5313927.79249  21805404.7784   21805411.9084
 96  2 17 17 38 30.0010000  0  6 29 22 19 18 28 14
  20796070.116    -1379622.33649  -1072482.15549  20796072.8414   20796077.8924
  22252430.437     4919404.91349   3830001.26549  22252432.1414   22252438.3334
  23061174.492    -7378929.43549  -5738148.33449  23061176.8964   23061184.3524
  21541246.569    -7146777.18949  -5558572.21649  21541248.3594   21541254.4094
  25048147.084     -637372.074 9   -463028.774 9  25048149.368    25048157.260
  21821782.485     6917161.82149   5381000.24149  21821784.6464   21821791.6504
 96  2 17 17 39  0.0010000  0  6 29 22 19 18 28 14
  20796121.281    -1379352.81449  -1072272.15149  20796124.4414   20796129.3084
  22266063.370     4991046.87849   3885826.16049  22266065.3664   22266071.2224
  23048392.203    -7446100.77449  -5790489.61149  23048394.2754   23048401.7274
  21530169.733    -7204983.28549  -5603927.61149  21530172.0944   21530178.4314
  25034886.138     -707074.139 9   -517342.149 9  25034886.375    25034893.330
  21838231.278     7003601.12049   5448355.49849  21838233.7604   21838240.6524
 96  2 17 17 39 30.0010000  0  6 29 22 19 18 28 14
  20796227.871    -1378792.22949  -1071835.34349  20796230.7654   20796235.8894
  22279778.337     5063118.96549   3941986.20349  22279780.0994   22279786.0454
  23035647.527    -7513070.43649  -5842673.72349  23035650.7574   23035658.0794
  21519134.077    -7262982.09649  -5649121.48449  21519135.2064   21519141.5544
  25021640.840     -776674.024 9   -571575.978 9  25021642.371    25021648.018
  21854747.699     7090398.65649   5515989.90049  21854750.7194   21854757.7824
 96  2 17 17 40  0.0010000  0  6 29 22 19 18 28 14
  20796385.532    -1377964.10649  -1071190.06549  20796388.5614   20796393.3574
  22293577.433     5135631.18449   3998489.20849  22293578.6984   22293584.6064
  23022942.264    -7579839.09249  -5894701.21349  23022944.7824   23022952.4584
  21508135.398    -7320773.03849  -5694153.37849  21508137.9104   21508144.4434
  25008415.081     -846171.389 9   -625729.907 9  25008417.039    25008423.370
  21871334.570     7177560.95349   5583908.53449  21871337.3504   21871344.0834
 96  2 17 17 40 30.0010000  0  6 29 22 19 18 28 14
  20796591.319    -1376884.26549  -1070348.64349  20796593.8304   20796598.9964
  22307459.713     5208585.09549   4055336.39549  22307461.1734   22307467.2194
  23010274.340    -7646418.62149  -5946581.35049  23010275.6784   23010282.3254
  21497180.832    -7378341.63749  -5739012.02449  21497183.1944   21497189.1694
  24995209.077     -915567.713 9   -679805.044 9  24995211.069    24995217.059
  21887992.406     7265096.59149   5652118.09249  21887995.0424   21888001.6684
 96  2 17 17 41  0.0010000  0  6 29 22 19 18 28 14
  20796845.912    -1375544.50549  -1069304.68349  20796848.9744   20796854.0744
  22321429.180     5281990.08349   4112535.06749  22321429.8734   22321435.8024
  22997637.660    -7712820.73049  -5998323.20349  22997638.9694   22997646.0864
  21486270.404    -7435679.71549  -5783691.03649  21486272.3254   21486278.2054
  24982025.458     -984861.883 9   -733800.552 9  24982025.654    24982032.493
  21904724.167     7353025.72849   5720634.27349  21904727.2554   21904734.0874
 96  2 17 17 41 30.0010000  0  6 29 22 19 18 28 14
  20797153.226    -1373929.02249  -1068045.88049  20797156.5074   20797161.1814
  22335482.814     5355847.70349   4170086.43849  22335484.6864   22335490.3804
  22985033.080    -7779049.20649  -6049929.75349  22985035.6114   22985043.7484
  21475405.342    -7492774.51149  -5828180.48649  21475407.3184   21475413.4794
  24968857.955    -1054049.633 9   -787713.098 9  24968859.445    24968867.276
  21921532.694     7441353.36849   5789460.96849  21921535.6004   21921542.4464
 96  2 17 17 42  0.0010000  0  6 29 22 19 18 28 14
  20797517.863    -1372015.52349  -1066554.85049  20797520.4794   20797525.6554
  22349620.269     5430146.99249   4227981.97149  22349623.2384   22349629.1044
  22972460.127    -7845115.58649  -6101409.99749  22972464.2894   22972472.0014
  21464587.400    -7549619.04649  -5872474.92449  21464590.0824   21464596.0044
  24955712.296    -1123118.069 9   -841532.588 9  24955715.575    24955723.707
  21938421.045     7530100.03349   5858614.18949  21938423.8994   21938430.4534
 96  2 17 17 42 30.0010000  0  6 29 22 19 18 28 14
  20797940.953    -1369788.45949  -1064819.48849  20797944.0904   20797949.2324
  22363841.804     5504871.87149   4286209.12849  22363843.0664   22363849.0414
  22959918.261    -7911031.77949  -6152773.22149  22959920.5834   22959928.0584
  21453816.533    -7606227.74849  -5916585.60349  21453818.2304   21453824.0994
  24942597.471    -1192071.594 9   -895262.520 9  24942595.092    24942602.112
  21955384.271     7619244.10449   5928077.06649  21955386.9724   21955393.6184
 96  2 17 17 43  0.0010000  0  6 29 22 19 18 28 14
  20798427.938    -1367232.64149  -1062827.94849  20798431.1194   20798435.7754
  22378142.009     5580025.68149   4344770.52549  22378144.1224   22378150.0544
  22947401.922    -7976795.89949  -6204017.93349  22947406.0224   22947413.8554
  21443086.289    -7662614.25449  -5960523.13349  21443087.9574   21443094.2094
  24929492.833    -1260905.276 9   -948899.063 9  24929495.280    24929503.642
  21972421.143     7708772.37549   5997839.31649  21972423.6764   21972430.5734
 96  2 17 17 43 30.0010000  0  6 29 22 19 18 28 14
  20798978.362    -1364340.82449  -1060574.58549  20798981.0854   20798986.0494
  22392524.303     5655604.34749   4403662.97649  22392526.6264   22392532.1694
  22934920.124    -8042402.24949  -6255139.72449  22934921.8744   22934929.5164
  21432396.747    -7718783.17049  -6004291.11549  21432399.4704   21432405.5874
  24916417.715    -1329614.441 9  -1002438.575 9  24916420.641    24916428.167
  21989527.243     7798665.50949   6067885.87049  21989529.8344   21989536.4934
 96  2 17 17 44  0.0010000  0  6 29 22 19 18 28 14
  20799593.866    -1361106.38049  -1058054.24349  20799596.5894   20799601.6594
  22406988.746     5731613.06549   4462890.53249  22406990.2144   22406995.9884
  22922464.181    -8107842.96549  -6306132.43449  22922469.2384   22922476.4694
  21421747.383    -7774748.05249  -6047900.10949  21421749.6604   21421755.6324
  24903370.186    -1398194.272 9  -1055877.313 9  24903371.196    24903377.954
  22006700.340     7888910.49149   6138206.59749  22006703.1924   22006709.8464
 96  2 17 17 44 30.0010000  0  6 29 22 19 18 28 14
  20800271.635    -1357543.66449  -1055278.10449  20800274.6994   20800279.5244
  22421533.545     5808048.73649   4522450.77049  22421535.8074   22421541.5684
  22910044.398    -8173118.41149  -6356996.37849  22910047.5914   22910054.1324
  21411133.865    -7830524.60149  -6091362.35049  21411135.7814   21411141.9464
  24890340.548    -1466654.843 9  -1109223.134 9  24890343.101    24890350.382
  22023936.614     7979487.72649   6208786.22649  22023939.3134   22023945.9634
 96  2 17 17 45  0.0010000  0  6 29 22 19 18 28 14
  20801011.908    -1353653.53549  -1052246.83749  20801014.8324   20801019.8244
  22436158.605     5884902.61549   4582336.89449  22436160.5974   22436166.2344
  22897657.050    -8238213.75449  -6407719.97549  22897659.7414   22897667.3444
  21400557.807    -7886100.51649  -6134668.25549  21400560.0324   21400565.8344
  24877338.010    -1534986.369 9  -1162468.387 9  24877339.984    24877346.933
  22041238.717     8070410.78949   6279635.32849  22041241.3554   22041248.1624
 96  2 17 17 45 30.0010000  0  6 29 22 19 18 28 14
  20801812.687    -1349444.92549  -1048967.40549  20801815.8124   20801820.7204
  22450861.228     5962167.30949   4642543.13449  22450863.2924   22450869.7074
  22885308.794    -8303112.89749  -6458290.70949  22885310.1224   22885317.2244
  21390023.444    -7941460.51549  -6177805.91249  21390025.1954   21390031.2764
  24864363.829    -1603179.385 9  -1215605.721 9  24864362.950    24864369.842
  22058607.669     8161686.71749   6350759.38749  22058610.4944   22058617.4734
 96  2 17 17 46  0.0010000  0  6 29 22 19 18 28 14
  20802672.500    -1344928.44849  -1045448.06949  20802675.1904   20802680.0204
  22465642.211     6039844.83649   4703071.05549  22465645.1864   22465650.9484
  22872998.007    -8367795.94249  -6508693.04849  22873001.6644   22873008.3424
  21379532.105    -7996590.22649  -6220764.12649  21379534.0924   21379540.1974
  24851414.848    -1671223.053 9  -1268626.678 9  24851415.648    24851422.891
  22076049.436     8253340.11749   6422177.57449  22076051.4524   22076058.7574
 96  2 17 17 46 30.0010000  0  6 29 22 19 18 28 14
  20803589.421    -1340111.51349  -1041694.61049  20803591.7944   20803596.7024
  22480502.296     6117924.83849   4763912.59549  22480503.3314   22480508.8944
  22860729.739    -8432269.27049  -6558931.96749  22860732.2514   22860739.8004
  21369086.380    -8051479.87349  -6263535.26849  21369089.0894   21369095.3694
  24838494.288    -1739117.146 9  -1321531.032 9  24838494.578    24838502.455
  22093562.495     8345369.68949   6493888.89149  22093564.3024   22093571.4434
 96  2 17 17 47  0.0010000  0  6 29 22 19 18 28 14
  20804564.212    -1334985.82849  -1037700.57149  20804567.3054   20804571.9424
  22495434.715     6196400.34949   4825062.32149  22495436.5054   22495442.2314
  22848501.933    -8496528.88649  -6609004.35049  22848504.4414   22848511.5094
  21358691.383    -8106108.20249  -6306102.79449  21358693.9044   21358699.8434
  24825601.405    -1806855.778 9  -1374314.282 9  24825604.209    24825612.184
  22111143.962     8437762.66349   6565883.37849  22111146.1054   22111153.3164
 96  2 17 17 47 30.0010000  0  6 29 22 19 18 28 14
  20805597.624    -1329555.34049  -1033469.02249  20805600.5214   20805605.5404
  22510444.707     6275277.40549   4886524.94449  22510446.6904   22510452.3724
  22836313.365    -8560583.00849  -6658916.62849  22836314.9534   22836322.3754
  21348345.054    -8160479.87249  -6348470.32249  21348347.1814   21348353.3034
  24812740.490    -1874445.368 9  -1426981.402 9  24812742.489    24812750.559
  22128790.972     8530502.53349   6638148.16049  22128793.9164   22128801.0954
 96  2 17 17 48  0.0010000  0  6 29 22 19 18 28 14
  20806693.465    -1323793.23249  -1028979.06849  20806697.0924   20806702.0864
  22525532.676     6354566.62749   4948308.73549  22525534.7574   22525540.4264
  22824159.795    -8624440.26149  -6708675.50949  22824163.6334   22824170.5154
  21338047.601    -8214594.93949  -6390637.90849  21338049.5624   21338055.3874
  24799909.035    -1941879.004 9  -1479526.982 9  24799909.517    24799916.555
  22146505.358     8623592.27649   6710685.57649  22146508.2814   22146515.7924
 96  2 17 17 48 30.0010000  0  6 29 22 19 18 28 14
  20807855.459    -1317688.98949  -1024222.51549  20807858.5904   20807863.4164
  22540698.320     6434263.69649   5010410.33249  22540700.5674   22540705.9434
  22812040.743    -8688127.66749  -6758302.03449  22812044.3254   22812051.5284
  21327796.591    -8268461.54649  -6432611.87949  21327798.7474   21327805.0134
  24787102.528    -2009161.258 9  -1531954.599 9  24787107.007    24787113.530
  22164281.195     8717001.73749   6783472.12749  22164283.7714   22164290.6284
 96  2 17 17 49  0.0010000  0  6 29 22 19 18 28 14
  20809087.649    -1311216.17749  -1019178.76749  20809090.1304   20809095.3434
  22555945.107     6514390.96249   5072847.14049  22555948.0324   22555954.1784
  22799959.317    -8751614.25349  -6807772.08349  22799963.6084   22799970.3784
  21317598.535    -8322057.20049  -6474374.72449  21317600.0384   21317606.1734
  24774335.506    -2076268.485 9  -1584245.868 9  24774336.419    24774343.018
  22182120.510     8810749.01749   6856521.91149  22182123.1604   22182130.5674
 96  2 17 17 49 30.0010000  0  6 29 22 19 18 28 14
  20810389.173    -1304375.55649  -1013848.41449  20810392.1654   20810397.0834
  22571277.752     6594958.51249   5135627.03149  22571279.7074   22571285.7064
  22787914.697    -8814911.75049  -6857094.77949  22787917.8404   22787924.9814
  21307444.996    -8375408.51949  -6515947.17349  21307447.6554   21307454.0384
  24761597.532    -2143199.893 9  -1636400.127 9  24761600.255    24761606.622
  22200026.514     8904843.37549   6929842.14049  22200028.9564   22200035.6684
 96  2 17 17 50  0.0010000  0  6 29 22 19 18 28 14
  20811757.682    -1297183.75549  -1008244.41649  20811760.6224   20811765.8464
  22586689.530     6675948.12849   5198735.80049  22586691.7294   22586697.7354
  22775900.855    -8878037.71849  -6906283.79449  22775904.9624   22775912.3774
  21297336.670    -8428530.47649  -6557340.90049  21297338.9604   21297345.1264
  24748895.107    -2209958.790 9  -1688420.066 9  24748896.364    24748903.146
  22217996.042     8999273.77249   7003424.22449  22217998.3024   22218005.4794
 96  2 17 17 50 30.0010000  0  6 29 22 19 18 28 14
  20813189.111    -1289660.16449  -1002381.88349  20813192.3414   20813197.1654
  22602179.183     6757344.79749   5262161.76149  22602180.7204   22602186.7164
  22763925.435    -8940987.78849  -6955335.77149  22763926.9004   22763934.0174
  21287271.739    -8481420.53249  -6598553.93049  21287274.3284   21287280.3844
  24736220.241    -2276546.143 9  -1740306.191 9  24736225.390    24736232.586
  22236026.188     9094023.51649   7077255.14649  22236028.9804   22236035.6824
 96  2 17 17 51  0.0010000  0  6 29 22 19 18 28 14
  20814687.085    -1281792.17749   -996250.99149  20814689.7594   20814694.5354
  22617747.444     6839156.26549   5325910.93049  22617749.0784   22617755.1024
  22751984.848    -9003729.64449  -7004225.48949  22751986.6884   22751994.3694
  21277252.118    -8534070.24049  -6639579.67349  21277255.1384   21277261.6124
  24723586.843    -2342947.390 9  -1792047.260 9  24723589.012    24723596.940
  22254121.372     9189110.66449   7151348.99049  22254123.3914   22254130.4964
 96  2 17 17 51 30.0010000  0  6 29 22 19 18 28 14
  20816246.523    -1273595.63649   -989864.08349  20816249.0634   20816254.1324
  22633390.627     6921357.73849   5389964.00849  22633391.2894   22633397.6544
  22740081.869    -9066276.74349  -7052963.44149  22740084.5934   22740091.8904
  21267277.702    -8586494.55749  -6680429.78249  21267279.3884   21267285.7264
  24710983.666    -2409165.212 9  -1843645.480 9  24710986.707    24710994.954
  22272277.912     9284528.15149   7225700.24249  22272280.5564   22272287.6374
 96  2 17 17 52  0.0010000  0  6 29 22 19 18 28 14
  20817867.685    -1265078.31249   -983227.21649  20817870.1704   20817875.3094
  22649100.162     7003915.74649   5454294.90049  22649101.8304   22649107.7774
  22728213.174    -9128631.56949  -7101551.57649  22728218.7504   22728226.0684
  21257346.297    -8638677.28549  -6721091.63949  21257349.1674   21257355.3584
  24698420.287    -2475206.163 9  -1895105.881 9  24698420.003    24698427.445
  22290495.690     9380264.30049   7300299.78949  22290498.5034   22290506.2954
 96  2 17 17 52 30.0010000  0  6 29 22 19 18 28 14
  20819555.399    -1256207.35849   -976314.79449  20819558.1954   20819563.1144
  22664880.849     7086849.04249   5518918.22849  22664883.4614   22664889.3654
  22716391.561    -9190768.45949  -7149969.88749  22716394.6494   22716401.5994
  21247471.508    -8690574.92249  -6761531.35149  21247473.6094   21247479.7844
  24685890.138    -2541047.694 9  -1946410.896 9  24685891.901    24685898.871
  22308778.611     9476344.53949   7375167.45949  22308782.2754   22308789.3184
 96  2 17 17 53  0.0010000  0  6 29 22 19 18 28 14
  20821308.865    -1246991.46849   -969133.59149  20821311.9604   20821316.9234
  22680732.357     7170145.71549   5583824.71149  22680734.6364   22680740.5084
  22704604.625    -9252707.48849  -7198234.02749  22704608.0734   22704615.1314
  21237647.378    -8742200.33049  -6801758.93549  21237649.6304   21237655.8794
  24673397.257    -2606697.623 9  -1997566.587 9  24673399.080    24673405.460
  22327130.244     9572779.90249   7450311.86049  22327133.4024   22327140.8324
 96  2 17 17 53 30.0010000  0  6 29 22 19 18 28 14
  20823126.906    -1237437.92349   -961689.27949  20823129.7344   20823134.9214
  22696651.706     7253795.61249   5649006.42949  22696652.5824   22696658.7024
  22692849.610    -9314478.61749  -7246367.32749  22692852.9574   22692860.3614
  21227875.718    -8793547.37749  -6841769.61649  21227878.5074   21227884.5204
  24660942.037    -2672156.859 9  -2048573.761 9  24660942.612    24660949.105
  22345549.538     9669570.37949   7525732.97149  22345552.0574   22345559.1924
 96  2 17 17 54  0.0010000  0  6 29 22 19 18 28 14
  20825011.006    -1227536.24249   -953973.69449  20825014.2984   20825019.0434
  22712639.334     7337819.35349   5714479.46049  22712641.8824   22712647.5664
  22681130.203    -9376072.42549  -7294362.46149  22681132.5884   22681139.5844
  21218160.500    -8844605.21649  -6881554.94049  21218162.7494   21218168.5484
  24648520.702    -2737424.047 9  -2099431.282 9  24648522.810    24648529.242
  22364034.021     9766710.84149   7601426.79249  22364037.2214   22364045.0194
 96  2 17 17 54 30.0010000  0  6 29 22 19 18 28 14
  20826959.755    -1217297.14549   -945995.18449  20826962.7074   20826967.5894
  22728703.037     7422238.63149   5780260.68149  22728706.1424   22728711.7454
  22669442.004    -9437485.94649  -7342217.11249  22669445.5984   22669453.2714
  21208496.755    -8895383.61549  -6921122.51749  21208499.5254   21208505.3254
  24636138.448    -2802496.297 9  -2150136.855 9  24636139.506    24636146.359
  22382583.011     9864181.36749   7677377.80949  22382585.2704   22382592.6104
 96  2 17 17 55  0.0010000  0  6 29 22 19 18 28 14
  20828972.858    -1206719.96649   -937753.24249  20828975.5424   20828980.4904
  22744843.804     7507052.46749   5846349.37149  22744845.9114   22744851.5944
  22657791.888    -9498710.87749  -7389924.80749  22657794.9024   22657802.3534
  21198883.605    -8945903.73749  -6960488.84649  21198885.9514   21198891.8054
  24623790.173    -2867369.497 9  -2200687.274 9  24623793.738    24623801.852
  22401190.304     9961965.73949   7753573.37949  22401192.7084   22401200.2354
 96  2 17 17 55 30.0010000  0  6 29 22 19 18 28 14
  20831050.911    -1195796.65949   -929241.58149  20831053.8844   20831058.9744
  22761059.416     7592267.47849   5912750.66649  22761061.6824   22761067.5124
  22646179.593    -9559731.22049  -7437473.07749  22646182.8224   22646190.6284
  21189322.269    -8996146.43949  -6999638.99949  21189325.2084   21189331.2414
  24611486.467    -2932038.828 9  -2251078.874 9  24611487.239    24611494.965
  22419853.906    10060041.13849   7829995.73649  22419855.9134   22419863.6214
 96  2 17 17 56  0.0010000  0  6 29 22 19 18 28 14
  20833195.108    -1184530.82849   -920463.02249  20833198.1484   20833203.1374
  22777352.310     7677879.19749   5979461.06449  22777353.0224   22777358.8584
  22634610.054    -9620530.54149  -7484849.13249  22634613.1444   22634620.4964
  21179814.881    -9046109.76549  -7038571.46049  21179817.4774   21179823.4094
  24599220.490    -2996500.800 9  -2301308.940 9  24599222.265    24599227.741
  22438569.197    10158393.79649   7906634.12749  22438571.6804   22438579.3824
 96  2 17 17 56 30.0010000  0  6 29 22 19 18 28 14
  20835404.347    -1172921.26349   -911416.61549  20835407.4444   20835412.4834
  22793715.589     7763874.59049   6046470.44149  22793717.7524   22793723.7084
  22623080.645    -9681126.78449  -7532066.95349  22623082.4214   22623089.6784
  21170362.399    -9095784.20949  -7077278.81749  21170364.8934   21170370.7884
  24586995.666    -3060747.159 9  -2351371.004 9  24586996.791    24587002.751
  22457338.605    10257028.25249   7983492.09949  22457341.6874   22457349.1674
 96  2 17 17 57  0.0010000  0  6 29 22 19 18 28 14
  20837683.162    -1160948.51949   -902087.21149  20837685.5234   20837690.6144
  22810149.578     7850235.07749   6113764.31049  22810151.3854   22810157.3024
  22611586.469    -9741526.38449  -7579131.54749  22611588.7454   22611595.4634
  21160965.980    -9145163.76749  -7115756.39549  21160968.2404   21160974.0894
  24574810.457    -3124766.934 9  -2401256.529 9  24574813.185    24574819.097
  22476166.183    10355971.26149   8060590.50749  22476169.4934   22476177.2404
 96  2 17 17 57 30.0010000  0  6 29 22 19 18 28 14
  20840024.535    -1148641.96149   -892497.69149  20840027.6064   20840032.5564
  22826646.955     7936931.66249   6181320.05849  22826649.5354   22826655.0534
  22600124.724    -9801754.41449  -7626062.44849  22600127.3444   22600134.8124
  21151623.564    -9194259.44649  -7154012.77049  21151625.5904   21151631.3414
  24562666.016    -3188577.391 9  -2450978.924 9  24562669.869    24562677.484
  22495051.511    10455209.70249   8137919.12949  22495054.3874   22495061.9664
 96  2 17 17 58  0.0010000  0  6 29 22 19 18 28 14
  20842430.577    -1135998.84649   -882645.91949  20842433.2154   20842438.3214
  22843210.061     8023973.72849   6249145.01349  22843212.7104   22843218.8754
  22588694.771    -9861812.89749  -7672861.22449  22588698.7164   22588705.6964
  21142330.467    -9243090.08149  -7192062.62049  21142333.3864   21142339.5644
  24550568.606    -3252168.399 9  -2500530.296 9  24550569.376    24550576.386
  22513993.630    10554751.96749   8215484.49649  22513996.6194   22514003.6514
 96  2 17 17 58 30.0010000  0  6 29 22 19 18 28 14
  20844902.673    -1123005.41049   -872521.16749  20844905.8594   20844911.1884
  22859841.617     8111367.27449   6317243.84549  22859843.2334   22859849.4844
  22577302.827    -9921686.87949  -7719516.24849  22577305.0694   22577312.1624
  21133088.333    -9291658.35049  -7229908.02749  21133091.1764   21133097.0634
  24538508.270    -3315529.412 9  -2549902.416 9  24538512.125    24538518.922
  22532995.113    10654605.90049   8293292.71349  22532997.8334   22533005.5454
 96  2 17 17 59  0.0010000  0  6 29 22 19 18 28 14
  20847444.137    -1109654.17749   -862117.61349  20847446.4514   20847451.7884
  22876540.601     8199120.58549   6385623.01849  22876542.1614   22876548.3464
  22565949.219    -9981349.02549  -7766006.19849  22565951.7674   22565958.4614
  21123896.506    -9339966.25349  -7267550.55449  21123898.6824   21123904.6734
  24526496.991    -3378656.760 9  -2599092.528 9  24526498.635    24526506.020
  22552055.140    10754769.63849   8371342.32049  22552058.6814   22552066.9214
 96  2 17 17 59 30.0010000  0  6 29 22 19 18 28 14
  20850050.249    -1095953.68849   -851441.91249  20850053.7474   20850058.7034
  22893310.182     8287246.36849   6454292.42749  22893312.1844   22893318.1114
  22554636.902   -10040796.44749  -7812328.83149  22554638.9384   22554646.2104
  21114752.457    -9388013.22649  -7304989.75549  21114755.2854   21114761.5244
  24514525.427    -3441557.730 9  -2648106.105 9  24514528.406    24514536.244
  22571170.828    10855218.18549   8449613.86449  22571173.7364   22571180.6774
 96  2 17 18  0  0.0010000  0  6 29 22 19 18 28 14
  20852729.821    -1081876.78749   -840472.90449  20852732.2154   20852737.2664
  22910152.485     8375759.27949   6523263.49549  22910155.5904   22910161.5034
  22543365.524   -10100022.37449  -7858478.86849  22543369.0694   22543376.0574
  21105663.687    -9435779.19349  -7342209.99149  21105665.9924   21105671.9064
  24502605.654    -3504218.052 9  -2696932.365 9  24502605.705    24502610.284
  22590343.545    10955964.32849   8528117.30849  22590345.4524   22590352.5254
 96  2 17 18  0 30.0010000  0  6 29 22 19 18 28 14
  20855480.276    -1067420.60249   -829208.34849  20855483.4804   20855488.4524
  22927066.095     8464635.03949   6592517.30949  22927068.1134   22927073.5274
  22532135.173   -10159040.79349  -7904467.20649  22532137.8404   22532145.0174
  21096630.948    -9483248.61649  -7379199.15249  21096632.9994   21096638.7164
  24490724.695    -3566644.311 9  -2745576.184 9  24490727.256    24490733.118
  22609567.881    11056997.90149   8606844.72849  22609571.2924   22609578.7584
 96  2 17 18  1  0.0010000  0  6 29 22 19 18 28 14
  20858302.918    -1052587.99349   -817650.47549  20858306.0374   20858311.2424
  22944047.099     8553868.94149   6662050.19049  22944048.8994   22944054.9044
  22520941.292   -10217873.14649  -7950310.55849  22520942.8974   22520949.5594
  21087655.467    -9530411.84649  -7415949.71949  21087658.0024   21087663.7324
  24478889.683    -3628835.882 9  -2794037.139 9  24478891.410    24478897.865
  22628846.096    11158313.27449   8685791.72049  22628850.4784   22628858.8044
 96  2 17 18  1 30.0010000  0  6 29 22 19 18 28 14
  20861196.011    -1037388.64149   -805806.82649  20861198.3024   20861203.5964
  22961092.166     8643440.26049   6731845.99849  22961093.3214   22961099.3524
  22509776.534   -10276540.70549  -7996025.49649  22509778.4114   22509785.6324
  21078738.431    -9577271.43849  -7452463.68049  21078740.7624   21078746.7264
  24467099.752    -3690794.273 9  -2842316.349 9  24467101.540    24467109.089
  22648178.416    11259893.66049   8764945.22349  22648180.5584   22648188.4894
 96  2 17 18  2  0.0010000  0  6 29 22 19 18 28 14
  20864154.065    -1021838.47849   -793689.82149  20864157.1834   20864162.3234
  22978192.863     8733313.16649   6801876.81349  22978195.4724   22978201.9564
  22498642.683   -10335044.68049  -8041612.96949  22498645.7754   22498652.4744
  21069878.199    -9623830.18349  -7488743.21949  21069880.9914   21069886.9614
  24455355.516    -3752515.624 9  -2890410.836 9  24455356.659    24455363.749
  22667558.188    11361735.26649   8844302.26649  22667560.6264   22667568.3834
 96  2 17 18  2 30.0010000  0  6 29 22 19 18 28 14
  20867179.542    -1005940.10549   -781301.48149  20867182.5764   20867187.8494
  22995351.927     8823486.77049   6872141.93449  22995354.7674   22995361.7004
  22487542.575   -10393376.40749  -8087066.23249  22487545.4774   22487552.1334
  21061074.595    -9670095.72649  -7524794.28549  21061076.9494   21061082.9824
  24443655.727    -3813990.636 9  -2938313.444 9  24443658.408    24443664.308
  22686986.941    11463834.67249   8923860.21049  22686989.9014   22686997.2464
 96  2 17 18  3  0.0010000  0  6 29 22 19 18 28 14
  20870270.984     -989694.62249   -768642.66749  20870273.9604   20870279.4544
  23012573.371     8913972.41849   6942650.22049  23012574.5084   23012580.3354
  22476478.693   -10451514.22649  -8132368.38649  22476481.8374   22476489.0934
  21052327.014    -9716065.06149  -7560614.54249  21052329.4324   21052335.2314
  24432003.270    -3875205.945 9  -2986013.649 9  24432008.711    24432015.382
  22706466.633    11566201.12749   9003626.24049  22706469.7414   22706476.7674
 96  2 17 18  3 30.0010000  0  7 29 22 19 18 28 14 31
  20873426.217     -973115.37549   -755723.77949  20873428.7474   20873434.1044
  23029847.229     9004749.15549   7013385.32949  23029848.2244   23029854.6254
  22465452.441   -10509455.90949  -8177517.70849  22465456.0994   22465463.2964
  21043634.835    -9761741.40649  -7596206.49149  21043637.5194   21043643.3064
  24420404.984    -3936170.831 9  -3033518.745 9  24420407.978    24420414.694
  22725995.170    11668822.88249   9083591.20449  22725997.8864   22726004.6474
  24879001.345     -964849.74259   -732378.28459  24879005.2494   24879017.0644
 96  2 17 18  4  0.0010000  0  7 29 22 19 18 28 14 31
  20876645.795     -956193.07849   -742537.57849  20876649.0934   20876654.5754
  23047177.240     9095830.58749   7084357.85649  23047180.6894   23047186.4414
  22454466.346   -10567191.21349  -8222506.22449  22454469.4074   22454476.4354
  21035001.580    -9807111.27349  -7631559.62749  21035003.8654   21035009.7624
  24408852.898    -3996875.688 9  -3080821.202 9  24408855.164    24408862.159
  22745575.898    11771718.12749   9163769.28049  22745578.2424   22745585.9784
  24862526.780    -1051441.57249   -799852.25249  24862528.3514   24862536.6484
 96  2 17 18  4 30.0010000  0  7 29 22 19 18 28 14 31
  20879934.688     -938913.71649   -729073.14949  20879937.4154   20879942.6034
  23064570.782     9187232.37649   7155580.02049  23064573.7984   23064579.7974
  22443517.920   -10624725.49049  -8267338.09749  22443521.0694   22443528.1274
  21026428.339    -9852168.65149  -7666669.26449  21026429.5534   21026435.3614
  24397351.665    -4057322.382 9  -3127922.538 9  24397353.343    24397360.088
  22765204.725    11874875.66349   9244151.73049  22765207.8734   22765215.5474
  24846043.604    -1138067.61849   -867352.91049  24846043.9394   24846052.1254
 96  2 17 18  5  0.0010000  0  7 29 22 19 18 28 14 31
  20883289.503     -921279.65249   -715332.32949  20883292.9214   20883298.0424
  23082025.045     9278948.77049   7227047.33449  23082026.8534   23082033.3424
  22432607.409   -10682055.21349  -8312010.57749  22432611.3724   22432618.4254
  21017915.749    -9896894.91149  -7701520.88449  21017918.6444   21017924.6234
  24385899.049    -4117509.644 9  -3174821.658 9  24385898.782    24385906.899
  22784885.569    11978291.53949   9324735.48249  22784887.2864   22784894.9594
  24829547.780    -1224738.88949   -934888.79749  24829551.2644   24829559.3584
 96  2 17 18  5 30.0010000  0  7 29 22 19 18 28 14 31
  20886715.127     -903279.02249   -701305.86849  20886718.3644   20886723.6264
  23099538.972     9370986.50749   7298765.04449  23099541.2194   23099547.2244
  22421736.802   -10739185.83849  -8356527.91849  22421740.1394   22421747.0124
  21009467.824    -9941290.52549  -7736114.85949  21009470.2114   21009475.8874
  24374496.586    -4177428.232 9  -3221511.459 9  24374497.801    24374503.731
  22804613.431    12081969.28649   9405523.29749  22804616.8124   22804623.9134
  24813048.796    -1311440.66149  -1002448.48149  24813051.6754   24813060.7294
 96  2 17 18  6  0.0010000  0  7 29 22 19 18 28 14 31
  20890211.477     -884906.43249   -686989.57649  20890214.5614   20890220.1414
  23117116.680     9463356.68349   7370741.79849  23117118.5104   23117124.6754
  22410901.853   -10796118.17049  -8400890.73949  22410905.6594   22410912.9544
  21001079.247    -9985372.40549  -7770464.36249  21001081.8584   21001087.5824
  24363143.758    -4237074.203 9  -3267988.825 9  24363147.750    24363154.847
  22824392.561    12185902.25349   9486509.98749  22824394.5704   22824402.2384
  24796546.401    -1398160.88449  -1070022.55249  24796549.8804   24796558.5794
 96  2 17 18  6 30.0010000  0  7 29 22 19 18 28 14 31
  20893775.530     -866177.33349   -672395.48649  20893778.6044   20893783.9094
  23134754.630     9556045.32649   7442966.71349  23134756.2524   23134762.6414
  22400105.774   -10852859.10249  -8445104.42449  22400108.6234   22400115.6944
  20992746.745   -10029160.61149  -7804585.03849  20992749.1574   20992754.7784
  24351845.946    -4296456.662 9  -3314260.782 9  24351847.788    24351853.907
  22844217.123    12290080.22949   9567687.58049  22844219.2554   22844226.7454
  24780040.218    -1484906.15349  -1137616.19649  24780042.1914   24780050.7144
 96  2 17 18  7  0.0010000  0  7 29 22 19 18 28 14 31
  20897410.455     -847076.65649   -657511.85449  20897413.3524   20897418.6914
  23152454.480     9649059.24349   7515445.06949  23152456.1984   23152462.8904
  22389347.434   -10909398.17649  -8489160.82549  22389349.5834   22389356.4144
  20984470.233   -10072652.51849  -7838474.82449  20984472.9584   20984478.6454
  24340598.749    -4355559.131 9  -3360314.652 9  24340600.954    24340607.367
  22864091.647    12394523.90249   9649072.20149  22864094.3184   22864102.4614
  24763531.892    -1571658.28249  -1205215.21149  24763533.9804   24763542.3734
 96  2 17 18  7 30.0010000  0  7 29 22 19 18 28 14 31
  20901116.910     -827597.76349   -642333.50849  20901120.1854   20901125.5204
  23170215.884     9742402.72549   7588180.23949  23170219.1174   23170225.2814
  22378623.258   -10965745.47449  -8533067.77149  22378627.2304   22378634.1594
  20976251.444   -10115844.02449  -7872130.53349  20976253.7594   20976259.5524
  24329406.014    -4414377.901 9  -3406147.401 9  24329408.476    24329415.145
  22884017.994    12499237.62849   9730667.25049  22884021.0884   22884028.3034
  24747024.107    -1658408.00549  -1272812.39349  24747025.9254   24747033.8914
 96  2 17 18  8  0.0010000  0  7 29 22 19 18 28 14 31
  20904898.829     -807725.21349   -626848.41949  20904901.8904   20904907.0414
  23188042.395     9836075.17849   7661171.75549  23188044.6104   23188050.8114
  22367942.678   -11021881.82949  -8576810.35749  22367944.7874   22367951.5744
  20968095.632   -10158702.82549  -7905526.99249  20968098.1054   20968104.0214
  24318268.881    -4472903.739 9  -3451751.942 9  24318271.713    24318277.363
  22903997.499    12604230.44549   9812479.76149  22903999.8884   22904007.2724
  24730516.888    -1745148.92449  -1340402.69749  24730519.4104   24730527.5394
 96  2 17 18  8 30.0010000  0  7 29 22 19 18 28 14 31
  20908756.748     -787452.14049   -611051.23549  20908759.6684   20908765.1604
  23205928.680     9930064.39849   7734410.08549  23205930.2024   23205936.7704
  22357296.940   -11077819.56349  -8620398.17149  22357299.8844   22357306.7204
  20960006.757   -10201209.38349  -7938648.97649  20960009.4144   20960015.4514
  24307187.885    -4531133.195 9  -3497125.518 9  24307190.274    24307196.525
  22924028.657    12709500.03449   9894507.93549  22924032.2494   22924040.0474
  24714013.242    -1831877.30849  -1407983.18449  24714016.2004   24714023.4574
 96  2 17 18  9  0.0010000  0  7 29 22 19 18 28 14 31
  20912687.634     -766792.31049   -594952.67949  20912691.1774   20912696.3074
  23223868.076    10024339.43849   7807871.12749  23223869.8284   23223875.8674
  22346685.977   -11133586.36449  -8663852.78949  22346688.2964   22346694.6904
  20951980.785   -10243384.89049  -7971513.00249  20951983.4304   20951989.4204
  24296158.014    -4589091.976 9  -3542288.126 9  24296158.477    24296167.663
  22944104.833    12814994.30449   9976711.22749  22944106.9324   22944115.3954
  24697508.373    -1918611.86349  -1475568.54949  24697511.2804   24697516.9934
 96  2 17 18  9 30.0010000  0  7 29 22 19 18 28 14 31
  20916693.500     -745744.51049   -578551.81049  20916696.2524   20916701.7724
  23241866.729    10118919.95649   7881570.21249  23241867.8674   23241874.3014
  22336109.428   -11189156.19549  -8707153.92849  22336113.2394   22336119.9244
  20944021.160   -10285215.51849  -8004108.28649  20944023.7834   20944029.6604
  24285183.955    -4646763.163 9  -3587226.607 9  24285186.829    24285193.738
  22964222.731    12920716.15449  10059091.86449  22964225.3564   22964232.6134
  24681003.896    -2005333.77149  -1543144.06049  24681008.0164   24681015.1954
 96  2 17 18 10  0.0010000  0  7 29 22 19 18 28 14 31
  20920772.474     -724308.64949   -561848.55149  20920775.7214   20920780.6984
  23259925.293    10213814.97249   7955514.34849  23259925.8774   23259932.6504
  22325577.557   -11244507.37649  -8750284.68149  22325579.9414   22325587.0734
  20936123.530   -10326719.28049  -8036448.87249  20936125.7664   20936131.5714
  24274266.445    -4704134.038 9  -3631931.158 9  24274268.655    24274274.806
  22984381.317    13026649.24049  10141637.08549  22984383.7694   22984391.4634
  24664505.233    -2092038.20449  -1610706.03549  24664507.2264   24664515.2444
 96  2 17 18 10 30.0010000  0  7 29 22 19 18 28 14 31
  20924921.416     -702502.58149   -544856.82249  20924925.2014   20924930.2554
  23278041.328    10309027.00249   8029705.50949  23278044.5614   23278050.4864
  22315083.374   -11299644.45349  -8793248.61049  22315087.9414   22315094.8614
  20928281.771   -10367923.71449  -8068556.21549  20928284.9434   20928290.7604
  24263407.319    -4761203.156 9  -3676400.617 9  24263408.775    24263416.111
  23004576.112    13132772.83749  10224330.76549  23004578.9114   23004586.5744
  24648009.019    -2178726.16449  -1678255.04949  24648011.8624   24648019.4494
 96  2 17 18 11  0.0010000  0  7 29 22 19 18 28 14 31
  20929137.653     -680349.89449   -527595.00049  20929140.7804   20929145.9024
  23296218.700    10404542.79449   8104133.37249  23296220.3324   23296226.5904
  22304633.404   -11354570.45349  -8836048.05749  22304635.9384   22304642.5684
  20920494.487   -10408847.89149  -8100445.17949  20920496.7804   20920502.7764
  24252604.298    -4817978.151 9  -3720640.833 9  24252604.943    24252611.610
  23024806.277    13239078.01949  10307165.93549  23024807.7774   23024815.0144
  24631514.268    -2265406.39449  -1745798.01349  24631518.4754   24631526.2074
 96  2 17 18 11 30.0010000  0  7 29 22 19 18 28 14 31
  20933419.906     -657848.84049   -510061.72249  20933422.4804   20933427.6304
  23314453.202    10500356.39649   8178793.29649  23314452.8644   23314459.1824
  22294222.601   -11409287.43749  -8878684.64449  22294223.9304   22294230.2094
  20912764.081   -10449473.51949  -8132101.50449  20912766.2614   20912772.4324
  24241857.345    -4874444.574 9  -3764640.587 9  24241858.978    24241867.200
  23045073.691    13345593.71549  10390165.11649  23045077.5114   23045083.5944
  24615022.007    -2352077.96449  -1813334.20449  24615023.5264   24615032.3344
 96  2 17 18 12  0.0010000  0  7 29 22 19 18 28 14 31
  20937769.149     -634990.58649   -492250.10249  20937772.2514   20937777.5024
  23332732.697    10596433.95649   8253658.87249  23332735.7074   23332742.2714
  22283841.405   -11463823.39449  -8921180.16349  22283845.1884   22283852.5984
  20905091.956   -10489791.53749  -8163518.13449  20905093.9374   20905099.8774
  24231169.560    -4930609.170 9  -3808405.170 9  24231172.040    24231178.663
  23065382.950    13452321.95049  10473329.88849  23065387.4364   23065394.6114
  24598527.303    -2438743.84549  -1880865.93849  24598532.7674   24598540.8464
 96  2 17 18 12 30.0010000  0  7 29 22 19 18 28 14 31
  20942189.279     -611764.14349   -474151.58149  20942192.1424   20942197.2794
  23351062.935    10692758.61749   8328717.02049  23351065.9154   23351072.5424
  22273496.318   -11518193.68449  -8963546.59849  22273499.2774   22273506.3054
  20897483.289   -10529772.56049  -8194672.17249  20897485.8894   20897491.9354
  24220538.116    -4986470.883 9  -3851933.744 9  24220541.813    24220549.176
  23085737.112    13559283.49749  10556676.46849  23085741.0764   23085748.4344
  24582039.738    -2525391.59149  -1948383.58549  24582044.2444   24582052.5904
 96  2 17 18 13  0.0010000  0  7 29 22 19 18 28 14 31
  20946682.991     -588149.19549   -455750.33049  20946686.0014   20946691.0644
  23369439.647    10789328.47749   8403966.23949  23369442.5824   23369448.9464
  22263182.215   -11572394.46449  -9005780.94149  22263185.0324   22263192.2244
  20889944.020   -10569390.37349  -8225543.18549  20889946.7424   20889952.7884
  24209967.994    -5042023.094 9  -3895221.132 9  24209969.492    24209977.516
  23106138.989    13666491.10049  10640214.78349  23106142.4784   23106149.7564
  24565556.387    -2612007.77749  -2015876.58649  24565560.3004   24565568.8984
 96  2 17 18 13 30.0010000  0  7 29 22 19 18 28 14 31
  20951251.680     -564138.50749   -437040.71149  20951254.9754   20951260.2264
  23387865.329    10886155.54349   8479415.88649  23387866.7324   23387874.4684
  22252902.436   -11626416.27149  -9047875.83349  22252905.5514   22252912.2304
  20882474.862   -10608642.50249  -8256129.24849  20882477.1594   20882483.2974
  24199457.684    -5097264.485 9  -3938266.341 9  24199458.847    24199465.094
  23126585.370    13773935.32849  10723937.50249  23126588.0744   23126595.8414
  24549081.155    -2698590.63649  -2083343.57649  24549084.1094   24549093.0214
 96  2 17 18 14  0.0010000  0  7 29 22 19 18 28 14 31
  20955895.364     -539738.77949   -418027.94249  20955898.1724   20955903.4384
  23406344.665    10983264.57849   8555085.23449  23406347.2394   23406354.5054
  22242658.975   -11680244.87649  -9089820.17849  22242662.1904   22242668.9504
  20875072.910   -10647535.84249  -8286435.74049  20875075.9944   20875081.8394
  24189003.957    -5152191.747 9  -3981066.798 9  24189007.041    24189011.170
  23147072.133    13881593.68349  10807827.07049  23147074.7704   23147082.5454
  24532616.338    -2785123.61249  -2150771.73849  24532618.4274   24532626.9274
 96  2 17 18 14 30.0010000  0  8 27 29 22 19 18 28 14 31
  25070688.088     -220980.61559   -162419.20459  25070692.2874   25070700.6384
  20960610.220     -514960.33949   -398720.06949  20960613.2724   20960618.8854
  23424882.452    11080679.83049   8630993.21249  23424884.9754   23424891.0654
  22232457.942   -11733859.27249  -9131597.60649  22232459.3984   22232466.5754
  20867738.801   -10686081.94549  -8316471.65149  20867741.3524   20867746.6904
  24178614.979    -5206791.946 9  -4023612.391 9  24178615.799    24178623.379
  23167599.890    13989462.63249  10891880.72849  23167601.8004   23167609.6454
  24516158.218    -2871599.10349  -2218155.06149  24516163.1424   24516170.9824
 96  2 17 18 15  0.0010000  0  8 27 29 22 19 18 28 14 31
  25055891.432     -298748.52049   -223017.50859  25055893.6114   25055902.1994
  20965394.218     -489818.05149   -379128.68349  20965397.4364   20965403.0754
  23443474.446    11178390.58449   8707131.44549  23443478.8374   23443485.1784
  22222294.118   -11787265.61649  -9173212.91349  22222296.6984   22222303.8384
  20860462.901   -10724316.27049  -8346264.62149  20860465.3054   20860471.2614
  24168282.371    -5261077.966 9  -4065913.161 9  24168285.789    24168291.495
  23188163.356    14097524.32549  10976084.60049  23188164.9994   23188173.3494
  24499711.915    -2958039.86749  -2285511.27149  24499713.9124   24499722.0984
 96  2 17 18 15 30.0010000  0  8 27 29 22 19 18 28 14 31
  25041106.282     -376451.89359   -283565.45549  25041107.0534   25041115.7624
  20970249.357     -464306.08849   -359249.23449  20970252.2304   20970257.7874
  23462124.991    11276398.16349   8783500.98349  23462129.3934   23462135.6664
  22212171.637   -11840455.22349  -9214659.33249  22212175.0494   22212181.5084
  20853247.545   -10762228.65049  -8375806.72549  20853250.7954   20853256.7034
  24158016.952    -5315030.391 9  -4107953.990 9  24158019.183    24158025.907
  23208764.330    14205789.41049  11060446.94849  23208767.2314   23208775.5444
  24483268.556    -3044438.95849  -2352835.04149  24483271.9084   24483279.6204
 96  2 17 18 16  0.0010000  0  8 27 29 22 19 18 28 14 31
  25026328.333     -454098.49149   -344069.23349  25026331.3974   25026340.2404
  20975173.051     -438431.62749   -339087.32249  20975176.0464   20975181.3104
  23480825.595    11374660.03949   8860068.66649  23480827.5044   23480833.1924
  22202086.595   -11893453.95249  -9255957.01849  22202089.6754   22202096.3504
  20846093.909   -10799825.29649  -8405102.80349  20846096.4564   20846102.5144
  24147808.585    -5368658.490 9  -4149742.115 9  24147813.306    24147819.418
  23229403.942    14314250.23249  11144961.81549  23229406.6714   23229414.7574
  24466832.735    -3130810.35449  -2420137.26049  24466835.9824   24466843.3624
 96  2 17 18 16 30.0010000  0  8 27 29 22 19 18 28 14 31
  25011564.164     -531688.79949   -404529.16249  25011566.2564   25011574.3694
  20980169.957     -412175.74949   -318628.19749  20980172.4574   20980177.6994
  23499567.945    11473150.45049   8936814.42549  23499569.6644   23499576.6804
  22192036.881   -11946263.32549  -9297107.14949  22192040.0284   22192046.9824
  20839001.600   -10837095.96649  -8434144.87149  20839004.1534   20839010.0214
  24137668.108    -5421958.992 9  -4191274.960 9  24137670.871    24137677.697
  23250082.815    14422917.52349  11229637.54549  23250084.9814   23250093.1414
  24450405.709    -3217147.52949  -2487412.93349  24450406.4084   24450413.5794
 96  2 17 18 17  0.0010000  0  8 27 29 22 19 18 28 14 31
  24996809.084     -609232.08349   -464952.37749  24996810.4934   24996818.2544
  20985239.638     -385531.94649   -297866.79849  20985242.5974   20985248.0264
  23518350.574    11571858.69349   9013729.94349  23518353.7574   23518359.3994
  22182022.960   -11998885.03349  -9338111.04649  22182026.5104   22182033.5394
  20831975.980   -10874014.11149  -8462912.24749  20831978.7704   20831984.7564
  24127587.122    -5474932.530 9  -4232553.007 9  24127590.438    24127597.435
  23270797.935    14531775.80049  11314462.10149  23270800.6974   23270808.6544
  24433982.317    -3303444.56449  -2554657.26549  24433984.6344   24433992.2794
 96  2 17 18 17 30.0010000  0  8 27 29 22 19 18 28 14 31
  24982062.773     -686707.84149   -525323.08449  24982066.3964   24982075.7374
  20990385.386     -358493.29949   -276797.72449  20990388.2274   20990393.2764
  23537177.292    11670792.95849   9090821.55749  23537179.7454   23537186.1894
  22172048.698   -12051306.87649  -9378959.20349  22172051.4724   22172057.9674
  20825025.207   -10910542.78549  -8491376.13849  20825027.6484   20825033.4704
  24117572.197    -5527563.168 9  -4273563.888 9  24117574.943    24117581.932
  23291548.268    14640820.29549  11399431.74649  23291551.2484   23291558.8284
  24417572.233    -3389671.78149  -2621847.15649  24417575.7754   24417583.6164
 96  2 17 18 18  0.0010000  0  8 27 29 22 19 18 28 14 31
  24967335.654     -764100.38049   -585628.79949  24967340.0684   24967347.9964
  20995606.235     -331054.64949   -255416.96549  20995609.3924   20995614.5664
  23556049.496    11769969.24749   9168101.76249  23556051.9674   23556057.9794
  22162110.767   -12103523.73749  -9419647.63549  22162114.6634   22162121.5524
  20818149.603   -10946673.76149  -8519530.13149  20818152.2594   20818157.9314
  24107622.681    -5579848.143 9  -4314305.440 9  24107625.833    24107632.150
  23312334.919    14750051.04549  11484546.54849  23312337.0824   23312345.8824
  24401181.147    -3475812.14649  -2688969.36649  24401183.1864   24401192.5604
 96  2 17 18 18 30.0010000  0  8 27 29 22 19 18 28 14 31
  24952620.862     -841430.97349   -645886.31049  24952624.8354   24952633.0664
  21000898.069     -303245.80949   -233747.74749  21000901.1914   21000906.2274
  23574968.879    11869390.93449   9245573.17449  23574971.5984   23574978.0384
  22152211.343   -12155551.65349  -9460188.83049  22152213.9664   22152220.6724
  20811347.462   -10982417.51849  -8547382.39949  20811349.9834   20811355.8474
  24097737.187    -5631799.462 9  -4354786.950 9  24097740.127    24097746.903
  23333150.746    14859442.36049  11569786.45449  23333153.9484   23333161.7694
  24384804.007    -3561872.13649  -2756028.89949  24384807.1824   24384815.5024
 96  2 17 18 19  0.0010000  0  8 27 29 22 19 18 28 14 31
  24937919.440     -918683.10949   -706082.68949  24937923.4234   24937932.0034
  21006260.577     -275063.26149   -211787.32449  21006264.0574   21006269.3824
  23593938.480    11969073.65549   9323248.01149  23593939.9434   23593947.1474
  22142347.387   -12207383.20749  -9500577.01549  22142350.7394   22142357.5254
  20804621.916   -11017761.99149  -8574923.53649  20804624.6484   20804630.5614
  24087915.696    -5683405.629 9  -4394999.509 9  24087918.591    24087926.059
  23353999.530    14968998.73949  11655154.98149  23354002.5004   23354009.3494
  24368441.875    -3647856.47049  -2823029.62149  24368444.7394   24368453.0344
 96  2 17 18 19 30.0010000  0  8 27 29 22 19 18 28 14 31
  24923237.020     -995846.40949   -766209.86649  24923240.1704   24923248.6594
  21011697.654     -246493.02449   -189524.80749  21011701.0034   21011706.1204
  23612957.659    12069026.84249   9401133.57249  23612961.2674   23612967.7944
  22132524.862   -12259007.39849  -9540803.62049  22132526.7894   22132533.6304
  20797968.797   -11052721.16249  -8602164.44049  20797972.0844   20797978.0404
  24078166.028    -5734654.676 9  -4434933.796 9  24078167.348    24078173.644
  23374883.061    15078745.03049  11740671.48249  23374885.4304   23374894.3714
  24352097.097    -3733759.08249  -2889966.67149  24352098.5104   24352106.9414
 96  2 17 18 20  0.0010000  0  8 27 29 22 19 18 28 14 31
  24908561.606    -1072952.40849   -826292.39349  24908567.3934   24908575.7534
  21017205.977     -217548.68249   -166970.78049  21017208.9554   21017214.4014
  23632027.246    12169233.27549   9479216.49049  23632029.6854   23632036.5924
  22122736.115   -12310443.80449  -9580883.89349  22122739.0004   22122745.5534
  20791385.133   -11087324.11049  -8629127.76549  20791387.0504   20791393.3324
  24068477.391    -5785563.354 9  -4474602.875 9  24068479.902    24068486.119
  23395801.052    15188668.13449  11826325.80349  23395803.3064   23395812.8304
  24335760.545    -3819605.36749  -2956859.84849  24335762.3394   24335770.6874
 96  2 17 18 20 30.0010000  0  8 27 29 22 19 18 28 14 31
  24893899.413    -1150017.72349   -886343.24849  24893902.0324   24893909.6734
  21022786.564     -188220.25549   -144117.47549  21022789.8974   21022795.0594
  23651141.002    12269678.90549   9557485.78949  23651144.7444   23651150.4844
  22112985.782   -12361686.87149  -9620813.51149  22112987.5634   22112994.1144
  20784865.298   -11121582.60249  -8655822.68949  20784867.9484   20784874.1864
  24058852.684    -5836126.378 9  -4514002.593 9  24058857.101    24058863.537
  23416753.412    15298772.11349  11912121.02049  23416755.5554   23416763.7674
  24319432.935    -3905393.47649  -3023707.65749  24319436.6604   24319444.8414
 96  2 17 18 21  0.0010000  0  8 27 29 22 19 18 28 14 31
  24879241.412    -1227043.72549   -946363.43949  24879244.6904   24879252.6604
  21028445.071     -158487.58449   -120949.16849  21028447.9794   21028453.1554
  23670301.817    12370350.04949   9635930.82149  23670301.6734   23670306.7654
  22103273.147   -12412722.59349  -9660581.55849  22103275.9244   22103282.2764
  20778409.928   -11155506.37649  -8682256.79149  20778412.6964   20778418.5044
  24049300.783    -5886337.344 9  -4553128.030 9  24049302.920    24049309.401
  23437742.181    15409067.72749  11998065.63049  23437744.8324   23437752.6054
  24303120.584    -3991114.56449  -3090503.34049  24303124.6864   24303132.4144
 96  2 17 18 21 30.0010000  0  8 27 29 22 19 18 28 14 31
  24864591.170    -1304028.99049  -1006351.90049  24864594.4974   24864603.0934
  21034179.987     -128348.25749    -97463.99049  21034183.4724   21034188.4824
  23689498.564    12471243.49149   9714549.06149  23689501.2854   23689506.7174
  22093600.561   -12463550.06249  -9700187.33849  22093603.2204   22093610.1624
  20772018.139   -11189098.08649  -8708432.14049  20772020.6104   20772026.3004
  24039815.690    -5936186.508 9  -4591971.471 9  24039817.028    24039822.432
  23458768.004    15519561.88249  12084164.89749  23458770.3174   23458778.7444
  24286826.737    -4076744.31749  -3157227.75649  24286830.3284   24286838.4624
 96  2 17 18 22  0.0010000  0  8 27 29 22 19 18 28 14 31
  24849951.887    -1380970.19149  -1066306.02749  24849953.7044   24849960.3554
  21039990.487      -97814.39349    -73671.38149  21039993.4744   21039998.9334
  23708736.467    12572343.51149   9793328.28449  23708739.6774   23708745.8494
  22083964.649   -12514186.43549  -9739644.20549  22083967.7714   22083974.4274
  20765689.052   -11222353.76449  -8734345.64649  20765691.7174   20765697.7104
  24030396.294    -5985677.060 9  -4630535.554 9  24030398.451    24030405.403
  23479827.632    15630231.01849  12170400.53749  23479830.4834   23479838.7144
  24270550.124    -4162285.71449  -3223883.32249  24270552.1154   24270560.1924
 96  2 17 18 22 30.0010000  0  8 27 29 22 19 18 28 14 31
  24835322.386    -1457835.66449  -1126201.15149  24835325.3274   24835332.5304
  21045876.129      -66885.64749    -49571.06949  21045879.0824   21045884.3364
  23728014.067    12673654.26849   9872271.71349  23728018.3474   23728026.2154
  22074369.900   -12564615.07849  -9778939.21549  22074371.7804   22074378.0904
  20759427.728   -11255258.17749  -8759985.44149  20759430.2424   20759436.3834
  24021050.842    -6034794.061 9  -4668808.493 9  24021052.620    24021058.914
  23500920.737    15741077.84549  12256774.60549  23500923.8264   23500931.3624
  24254291.444    -4247723.32849  -3290458.06149  24254293.8084   24254302.3734
 96  2 17 18 23  0.0010000  0  8 27 29 22 19 18 28 14 31
  24820714.530    -1534606.04949  -1186022.17949  24820717.5704   24820725.0454
  21051833.861      -35577.93349    -25175.46349  21051837.0634   21051842.2654
  23747334.253    12775177.31149   9951380.56849  23747337.7814   23747343.6204
  22064809.962   -12614842.35949  -9818077.31649  22064813.5574   22064820.4524
  20753236.461   -11287793.35149  -8785337.51849  20753239.2234   20753245.0284
  24011772.962    -6083540.870 9  -4706792.992 9  24011775.761    24011781.584
  23522044.348    15852076.27949  12343266.82249  23522046.4774   23522054.4814
  24238050.690    -4333062.99949  -3356956.53049  24238052.9764   24238061.3934
 96  2 17 18 23 30.0010000  0  8 27 29 22 19 18 28 14 31
  24806127.786    -1611258.46749  -1245751.22149  24806130.4894   24806137.9144
  21057863.936       -3889.50549      -483.19549  21057867.0544   21057872.3314
  23766700.047    12876940.63049  10030676.65949  23766701.4894   23766709.2294
  22055291.728   -12664868.45349  -9857058.65649  22055294.0554   22055300.7024
  20747122.206   -11319924.71549  -8810374.93249  20747124.9884   20747130.7804
  24002572.271    -6131902.520 9  -4744477.409 9  24002573.597    24002579.733
  23543193.180    15963220.98049  12429872.97749  23543196.2924   23543204.4974
  24221833.249    -4418291.09149  -3423368.03849  24221835.7964   24221844.6954
 96  2 17 18 24  0.0010000  0  8 27 29 22 19 18 28 14 31
  24791558.131    -1687816.46349  -1305406.79249  24791561.9244   24791568.6634
  21063962.433       28160.59149     24490.89349  21063965.8714   21063971.3444
  23786108.853    12978933.14949  10110151.33249  23786110.1364   23786117.2504
  22045807.537   -12714707.71549  -9895894.40749  22045809.7214   22045815.9804
  20741082.777      -17369.93019     -6807.43559                  20741091.4674
  23993435.420    -6179898.006 9  -4781876.448 9  23993439.362    23993446.711
  23564365.417    16074477.40949  12516566.23249  23564367.9094   23564375.5294
  24205634.244    -4503427.75049  -3489708.21749  24205635.3744   24205642.5004
 96  2 17 18 24 30.0010000  0  8 27 29 22 19 18 28 14 31
  24777004.503    -1764302.26449  -1365006.07449  24777006.7494   24777013.0324
  21070129.903       60571.56449     49746.17749  21070133.5974   21070138.7904
  23805559.484    13081151.98549  10189802.36949  23805562.0144   23805568.7844
  22036356.886   -12764362.65749  -9934586.53349  22036360.4174   22036367.1534
  20735116.357      -48723.52859    -31238.80049  20735119.1374   20735124.9754
  23984373.860    -6227533.737 9  -4818995.202 9  23984374.989    23984381.243
  23585555.541    16185836.53949  12603339.46649  23585558.9104   23585567.1774
  24189450.708    -4588467.15149  -3555972.70649  24189453.6294   24189460.4024
 96  2 17 18 25  0.0010000  0  8 27 29 22 19 18 28 14 31
  24762453.043    -1840752.65259  -1424577.75549  24762458.8854   24762467.7424
  21076362.984       93327.83749     75270.52949  21076366.4744   21076371.9434
  23825052.458    13183573.48849  10269611.30749  23825052.3784   23825059.3954
  22026938.146   -12813865.72449  -9973160.31649  22026940.3064   22026946.7474
  20729216.907      -79728.63249    -55398.60849  20729219.0674   20729225.1884
  23975370.651    -6274829.623 9  -4855849.098 9  23975374.908    23975381.886
  23606760.811    16297273.91249  12690173.68249  23606763.5524   23606773.4064
  24173281.514    -4673433.35949  -3622180.11049  24173283.9934   24173291.3224
 96  2 17 18 25 30.0010000  0  8 27 29 22 19 18 28 14 31
  24747927.336    -1917108.95749  -1484076.04449  24747928.1114   24747937.5404
  21082676.870      126500.40849    101119.26849  21082679.6164   21082684.7654
  23844591.737    13286264.75349  10349630.45649  23844593.9454   23844600.4704
  22017560.928   -12863144.53849 -10011559.36349  22017563.2504   22017569.5454
  20723393.337     -110336.52859    -79248.90859  20723394.6694   20723400.3444
  23966453.486    -6321710.480 9  -4892379.666 9  23966453.636    23966460.294
  23628000.693    16408878.58549  12777138.22649  23628002.3654   23628010.5974
  24157139.346    -4758258.04849  -3688277.11849  24157142.7504   24157150.1794
 96  2 17 18 26  0.0010000  0  8 27 29 22 19 18 28 14 31
  24733410.857    -1993391.45449  -1543516.93149  24733413.7894   24733419.2084
  21089067.122      160084.54749    127288.70949  21089070.2254   21089075.8054
  23864180.596    13389197.57249  10429837.84349  23864182.5014   23864188.0904
  22008222.780   -12912207.92849 -10049790.54449  22008226.6904   22008233.3254
  20717636.510     -140584.09449   -102818.42749  20717638.8034   20717644.5394
  23957606.512    -6368192.882 9  -4928599.686 9  23957609.083    23957615.251
  23649269.142    16520648.65449  12864231.64449  23649271.5364   23649279.5884
  24141020.218    -4842964.07749  -3754281.80349  24141024.0404   24141030.5824
 96  2 17 18 26 30.0010000  0  8 27 29 22 19 18 28 14 31
  24718904.621    -2069617.94949  -1602914.10949  24718907.3164   24718913.0594
  21095532.160      194058.89049    153762.20449  21095535.1324   21095540.5754
  23883806.926    13492340.28049  10510208.75149  23883810.0784   23883816.0474
  21998922.795   -12961080.48649 -10087873.02349  21998926.3614   21998933.0164
  20711944.823     -170493.74649   -126124.63549  20711947.1614   20711952.8424
  23948832.991    -6414293.638 9  -4964522.321 9  23948835.698    23948842.004
  23670566.970    16632568.89349  12951442.13349  23670569.4164   23670577.4734
  24124914.806    -4927577.91249  -3820214.58049  24124917.6034   24124927.0934
 96  2 17 18 27  0.0010000  0  7 27 29 22 19 28 14 31
  24704411.614    -2145781.85149  -1662262.56049  24704414.2734   24704422.2604
  21102071.613      228423.07449    180539.47749  21102074.5144   21102080.1794
  23903475.332    13595686.56649  10590738.29549  23903475.6734   23903481.9524
  21989657.453   -13009772.73049 -10125815.00049  21989660.6644   21989667.1774
  23940132.068    -6460014.604 9  -5000149.014 9  23940135.623    23940141.868
  23691891.194    16744643.00649  13038772.48649  23691896.3134   23691904.9204
  24108832.212    -5012110.27949  -3886083.99049  24108836.9094   24108842.8394
 96  2 17 18 27 30.0010000  0  7 27 29 22 19 28 14 31
  24689930.813    -2221871.83849  -1721553.34649  24689934.4624   24689942.6854
  21108688.404      263195.25149    207634.66549  21108691.5794   21108696.9224
  23923179.277    13699247.11249  10671434.78749  23923181.9224   23923189.8214
  21980427.979   -13058274.87349 -10163608.85149  21980431.0674   21980437.6504
  23931505.137    -6505347.743 9  -5035473.543 9  23931508.601    23931514.840
  23713248.512    16856873.29949  13126224.59849  23713253.5744   23713261.7924
  24092767.945    -5096540.17449  -3951873.42249  24092769.4364   24092777.7934
 96  2 17 18 28  0.0010000  0  8 27 29 22 19 18 28 14 31
  24675466.095    -2297889.67249  -1780787.99149  24675468.6794   24675476.8904
  21115384.586      298384.27549    235054.67049  21115387.4934   21115393.0264
  23942925.966    13803011.44649  10752290.09849  23942927.7254   23942933.6054
  21971235.919   -13106580.84249 -10201249.83649  21971238.4544   21971245.0514
  20695295.635      -27769.02319    -15124.86059                  20695302.3624
  23922951.755    -6550290.522 9  -5070493.820 9  23922956.447    23922963.408
  23734635.701    16969248.49149  13213789.57649  23734637.6694   23734646.9394
  24076722.910    -5180846.64349  -4017566.58749  24076724.3664   24076733.1144
 96  2 17 18 28 30.0010000  0  8 27 29 22 19 18 28 14 31
  24661011.387    -2373830.36649  -1839962.44449  24661016.7524   24661025.1594
  21122158.581      333982.27449    262793.35349  21122161.9954   21122167.0374
  23962708.559    13906967.47449  10833294.77749  23962710.2024   23962715.8364
  21962082.484   -13154681.72649 -10238731.01649  21962085.3344   21962091.6434
  20689901.671      -56102.07459    -37202.55649  20689904.6344   20689910.7784
  23914473.685    -6594838.754 9  -5105206.689 9  23914478.676    23914485.547
  23756045.444    17081753.17349  13301455.47749  23756047.7844   23756054.5544
  24060706.410    -5265016.27749  -4083153.27949  24060710.6974   24060716.1714
 96  2 17 18 29  0.0010000  0  8 27 29 22 19 18 28 14 31
  24646575.143    -2449722.27049  -1899098.92749  24646575.8704   24646583.0704
  21129004.578      369953.65849    290822.99149  21129007.3044   21129012.5454
  23982519.807    14011078.75149  10914420.42949  23982521.6374   23982529.0024
  21952962.535   -13202603.53949 -10276072.66149  21952965.9144   21952972.5784
  20684588.650      -84025.60049    -58961.14149  20684591.4114   20684597.0144
  23906069.501    -6639020.641 9  -5139634.073 9  23906071.398    23906078.008
  23777472.322    17194354.60949  13389196.77549  23777474.3544   23777482.6274
  24044712.515    -5349070.69249  -4148650.24549  24044714.9004   24044721.8984
 96  2 17 18 29 30.0010000  0  8 27 29 22 19 18 28 14 31
  24632142.983    -2525550.97349  -1958186.15049  24632144.3114   24632154.4324
  21135923.024      406316.50749    319157.66749  21135926.6174   21135932.0514
  24002360.674    14115352.83349  10995672.93649  24002364.4174   24002372.2254
  21943885.702   -13250302.79449 -10313240.87749  21943889.0044   21943895.7564
  20679357.596     -111520.30659    -80385.57959  20679359.1484   20679365.1284
  23897737.842    -6682803.854 9  -5173750.808 9  23897740.082    23897745.501
  23798922.486    17307070.64949  13477027.35349  23798923.7714   23798931.3554
  24028745.985    -5432971.85349  -4214027.63949  24028748.3544   24028755.2814
 96  2 17 18 30  0.0010000  0  8 27 29 22 19 18 28 14 31
  24617729.602    -2601300.46649  -2017211.63049  24617731.8814   24617740.0604
  21142920.109      443081.47149    347805.67849  21142922.9634   21142928.5664
  24022237.137    14219800.62249  11077060.81449  24022240.0334   24022246.0074
  21934854.726   -13297758.43349 -10350219.27249  21934858.6774   21934865.0204
  20674205.679     -138586.09049   -101475.79349  20674208.7844   20674214.5314
  23889488.186    -6726158.272 9  -5207533.422 9  23889489.221    23889495.008
  23820395.415    17419928.41749  13564968.38949  23820400.2974   23820407.8174
  24012812.235    -5516701.03849  -4279271.02049  24012815.0104   24012822.8814
 96  2 17 18 30 30.0010000  0  8 27 29 22 19 18 28 14 31
  24603321.796    -2677003.23949  -2076200.73749  24603325.9524   24603332.1334
  21149985.290      480212.95049    376739.28949  21149988.7234   21149994.0374
  24042140.966    14324396.70249  11158564.25449  24042143.8784   24042149.9704
  21925862.545   -13345019.66349 -10387046.17749  21925865.1524   21925871.6414
  20669129.684     -165262.94449   -122262.94749  20669132.1884   20669138.0624
  23881314.362    -6769112.458 9  -5241004.165 9  23881315.312    23881322.201
  23841893.744    17532895.07749  13652994.24749  23841896.2744   23841905.0934
  23996903.652    -5600293.27149  -4344407.77749  23996907.8844   23996915.1164
 96  2 17 18 31  0.0010000  0  8 27 29 22 19 18 28 14 31
  24588924.797    -2752662.52749  -2135155.96649  24588927.4344   24588936.2374
  21157123.011      517718.55749    405964.43249  21157125.9084   21157131.2044
  24062076.549    14429143.40149  11240185.02749  24062076.5454   24062084.0124
  21916902.089   -13392108.80349 -10423738.98749  21916904.4614   21916910.7234
  20664126.108     -191553.94649   -142749.43249  20664129.2154   20664134.9154
  23873214.632    -6811663.061 9  -5274160.407 9  23873218.839    23873224.905
  23863410.510    17645969.23649  13741103.85049  23863413.2084   23863422.9084
  23981023.552    -5683747.13549  -4409436.72849  23981026.6034   23981033.4654
 96  2 17 18 31 30.0010000  0  8 27 29 22 19 18 28 14 31
  24574533.279    -2828286.95849  -2194084.00749  24574536.5804   24574544.7584
  21164330.438      555596.87549    435480.00049  21164333.7724   21164339.0184
  24082037.481    14534043.76949  11321925.55249  24082039.0204   24082046.2654
  21907971.278   -13439038.39049 -10460307.46649  21907973.9964   21907980.6294
  20659195.057     -217473.37449   -162946.37849  20659197.0904   20659202.9494
  23865193.877    -6853816.728 9  -5307007.372 9  23865197.024    23865202.599
  23884945.760    17759140.03349  13829288.78449  23884949.9464   23884957.8004
  23965167.667    -5767063.14949  -4474358.16649  23965171.1134   23965180.0804
 96  2 17 18 32  0.0010000  0  8 27 29 22 19 18 28 14 31
  24560158.335    -2903831.31149  -2252949.65149  24560161.8894   24560168.4644
  21171615.736      593878.25749    465309.64549  21171618.6824   21171623.8884
  24102035.841    14639138.17649  11403817.29249  24102037.1084   24102043.8714
  21899074.804   -13485786.54549 -10496734.57849  21899078.0454   21899084.2814
  20654339.369     -242986.90849   -182827.04749  20654341.8034   20654347.5914
  23857255.140    -6895547.416 9  -5339524.743 9  23857255.972    23857262.084
  23906505.155    17872432.42649  13917568.44349  23906508.4504   23906517.0704
  23949346.373    -5850215.15549  -4539151.83849  23949349.2674   23949356.8834
 96  2 17 18 32 30.0010000  0  8 27 29 22 19 18 28 14 31
  24545795.461    -2979309.60449  -2311763.82749  24545797.7654   24545805.3344
  21178973.504      632543.65449    495438.52549  21178976.1604   21178981.7224
  24122067.813    14744404.22049  11485842.77949  24122069.1094   24122074.8844
  21890211.266   -13532365.12849 -10533029.55049  21890214.5104   21890220.9934
  20649557.215     -268112.74549   -202405.61149  20649560.4054   20649566.4814
  23849387.129    -6936880.140 9  -5371732.037 9  23849390.840    23849396.351
  23928081.030    17985816.42749  14005919.45549  23928084.9904   23928093.4404
  23933552.517    -5933219.35449  -4603830.35749  23933554.2464   23933561.2024
 96  2 17 18 33  0.0010000  0  8 27 29 22 19 18 28 14 31
  24531452.727    -3054687.26249  -2370499.59549  24531453.7774   24531462.0504
  21186409.818      671624.59849    525891.20349  21186413.2044   21186418.6954
  24142137.296    14849871.21949  11568024.84549  24142139.1754   24142144.8824
  21881390.440   -13578718.86549 -10569149.31649  21881393.5914   21881400.3324
  20644858.697     -292810.34249   -221650.48449  20644860.8034   20644866.5154
  23841605.780    -6977779.544 9  -5403601.669 9  23841608.076    23841614.613
  23949679.571    18099322.29849  14094365.48049  23949684.1184   23949692.8694
  23917790.290    -6016039.03549  -4668365.10349  23917793.9164   23917800.6174
 96  2 17 18 33 30.0010000  0  8 27 29 22 19 18 28 14 31
  24517123.180    -3129989.31049  -2429176.44349  24517124.9504   24517132.7654
  21193921.813      711098.67649    556650.22849  21193925.0584   21193930.2184
  24162240.249    14955523.31749  11650351.12349  24162244.1974   24162251.5864
  21872611.775   -13624847.42449 -10605093.62549  21872615.7334   21872622.0244
  20640235.750     -317098.56249   -240576.36049  20640238.6884   20640244.7014
  23833902.841    -7018263.915 9  -5435147.888 9  23833903.898    23833909.647
  23971299.008    18212925.91149  14182887.64549  23971302.4434   23971310.9714
  23902063.249    -6098685.69549  -4732765.01849  23902065.5694   23902073.5244
 96  2 17 18 34  0.0010000  0  8 27 29 22 19 18 28 14 31
  24502806.996    -3205214.10849  -2487793.13349  24502809.2354   24502817.7014
  21201508.483      750969.47449    587718.38049  21201511.9794   21201517.4734
  24182379.391    15061345.73649  11732810.14449  24182381.1884   24182387.2474
  21863877.842   -13670750.60049 -10640862.30849  21863880.6064   21863886.8184
  20635689.622     -340991.95949   -259194.58449  20635691.9394   20635697.8394
  23826276.213    -7058331.206 9  -5466369.122 9  23826279.138    23826285.064
  23992932.227    18326610.91949  14271473.21549  23992935.9614   23992944.1064
  23886370.766    -6181164.43849  -4797034.07649  23886371.6034   23886379.4714
 96  2 17 18 34 30.0010000  0  8 27 29 22 19 18 28 14 31
  24488505.748    -3280368.47849  -2546354.91049  24488508.3614   24488516.0734
  21209174.719      791254.85349    619109.58349  21209178.0644   21209183.3774
  24202549.389    15167342.67749  11815405.13349  24202551.4414   24202557.0104
  21855185.529   -13716429.71949 -10676456.40149  21855187.8524   21855194.5654
  20631218.040     -364487.21549   -277502.56649  20631221.0464   20631226.8124
  23818733.326    -7097969.101 9  -5497255.785 9  23818736.254    23818742.106
  24014582.412    18440374.66549  14360120.17349  24014584.1374   24014593.4354
  23870705.772    -6263465.42049  -4861164.59549  23870708.7984   23870716.6884
 96  2 17 18 35  0.0010000  0  8 27 29 22 19 18 28 14 31
  24474217.473    -3355454.35349  -2604863.34349  24474219.4034   24474228.8944
  21216921.325      831958.63449    650826.81649  21216923.6654   21216929.4144
  24222749.676    15273502.46349  11898127.03249  24222753.7494   24222760.1704
  21846531.908   -13761902.16549 -10711889.44849  21846534.8934   21846541.4594
  20626821.901     -387592.75249   -295506.87249  20626824.1594   20626829.9604
  23811272.896    -7137177.265 9  -5527807.603 9  23811275.237    23811281.172
  24036243.616    18554209.70349  14448822.69349  24036246.9814   24036255.6734
  23855078.677    -6345590.68049  -4925158.20849  23855081.2284   23855087.0814
 96  2 17 18 35 30.0010000  0  8 27 29 22 19 18 28 14 31
  24459942.404    -3430472.67149  -2663319.10749  24459944.0324   24459949.6484
  21224746.191      873081.77749    682870.82149  21224749.4114   21224754.6034
  24242982.134    15379821.35249  11980972.91849  24242984.5334   24242992.1744
  21837914.410   -13807187.99349 -10747177.08349  21837917.2204   21837923.8014
  20622496.850     -410320.49449   -313216.79249  20622499.3054   20622505.1394
  23803893.619    -7175957.344 9  -5558025.825 9  23803895.419    23803901.541
  24057918.283    18668105.55849  14537572.57049  24057920.9464   24057929.4694
  23839482.912    -6427552.08349  -4989024.20449  23839484.5294   23839491.8824
 96  2 17 18 36  0.0010000  0  8 27 29 22 19 18 28 14 31
  24445677.797    -3505413.84949  -2721714.80349  24445681.8014   24445691.1254
  21232652.816      914631.94449    715247.56649  21232655.7744   21232661.5944
  24263247.188    15486308.62949  12063949.99949  24263248.2564   24263255.5794
  21829333.921   -13852282.94649 -10782315.98549  21829336.4774   21829342.5414
  20618247.325     -432650.63649   -330616.89449  20618249.5424   20618255.6084
  23796595.565    -7214296.954 9  -5587900.821 9  23796599.626    23796606.320
  24079605.283    18782067.68149  14626374.09949  24079606.8234   24079616.2054
  23823918.398    -6509341.89549  -5052756.40949  23823920.7884   23823927.8654
 96  2 17 18 36 30.0010000  0  8 27 29 22 19 18 28 14 31
  24431430.390    -3580301.33149  -2780068.64049  24431433.7264   24431441.9784
  21240636.491      956586.21549    747939.19949  21240639.4504   21240645.2644
  24283539.476    15592949.43149  12147046.72049  24283541.5524   24283548.4094
  21820785.075   -13897205.10449 -10817320.23849  21820787.4434   21820793.7604
  20614077.377     -454561.20349   -347690.04849  20614080.3674   20614086.2034
  23789380.916    -7252208.046 9  -5617441.943 9  23789385.106    23789390.668
  24101302.476    18896102.99049  14715232.63649  24101306.7564   24101315.0104
  23808386.936    -6590958.69049  -5116353.82949  23808389.9204   23808397.4694
 96  2 17 18 37  0.0010000  0  8 27 29 22 19 18 28 14 31
  24417191.600    -3655123.15349  -2838371.30049  24417195.5654   24417204.2594
  21248693.840      998924.85949    780930.33749  21248696.5504   21248701.8164
  24303861.659    15699742.67849  12230262.18849  24303863.3154   24303871.9734
  21812270.157   -13941948.68949 -10852185.34849  21812273.0634   21812279.4444
  20609991.486     -476036.55249   -364424.07549  20609994.0544   20609999.4614
  23782251.008    -7289688.394 9  -5646647.400 9  23782253.620    23782259.205
  24123021.642    19010218.41749  14804153.63649  24123022.4944   24123031.2234
  23792888.491    -6672396.00749  -5179811.40049  23792891.9314   23792898.8934
 96  2 17 18 37 30.0010000  0  8 27 29 22 19 18 28 14 31
  24402963.888    -3729891.55649  -2896632.35949  24402965.2094   24402976.1774
  21256819.185     1041623.50149    814201.99849  21256821.7814   21256827.0944
  24324211.431    15806679.59749  12313589.62849  24324213.6474   24324220.3734
  21803789.903   -13986519.15949 -10886915.56649  21803791.5664   21803797.9594
  20605988.406     -497070.52149   -380814.17049  20605991.1394   20605997.1404
  23775201.301    -7326751.379 9  -5675527.652 9  23775199.892    23775205.704
  24144748.361    19124395.25049  14893122.48049  24144749.7704   24144758.7724
  23777425.644    -6753660.36549  -5243134.18149  23777428.8824   23777436.2774
 96  2 17 18 38  0.0010000  0  8 27 29 22 19 18 28 14 31
  24388747.497    -3804596.70649  -2954844.13549  24388750.8454   24388760.8314
  21265014.120     1084692.54649    847762.28149  21265017.6164   21265022.9784
  24344584.809    15913756.91949  12397026.49049  24344588.3364   24344594.3644
  21795341.497   -14030902.37349 -10921499.86649  21795345.6384   21795352.0964
  20602071.591     -517651.64649   -396851.40249  20602074.8764   20602080.7214
  23768226.807    -7363385.531 9  -5704073.739 9  23768229.273    23768236.172
  24166491.671    19238659.96749  14982159.77249  24166494.0154   24166502.8074
  23761998.161    -6834728.29349  -5306303.96849  23762001.6974   23762008.8394
 96  2 17 18 38 30.0010000  0  8 27 29 22 19 18 28 14 31
  24374547.239    -3879223.69249  -3012994.98049  24374550.9634   24374556.3564
  21273281.018     1128133.93049    881612.69649  21273284.3274   21273289.6164
  24364987.877    16020964.55549  12480564.88549  24364990.2354   24364997.8304
  21786933.330   -14075096.42349 -10955936.76049  21786935.6074   21786942.2064
  20598241.051     -537786.92649   -412541.21549  20598243.2044   20598248.9244
  23761339.579    -7399585.590 9  -5732281.586 9  23761341.471    23761346.296
  24188250.858    19353022.69949  15071273.43449  24188256.7204   24188265.2834
  23746608.267    -6915598.64149  -5369319.75249  23746611.2624   23746619.3854
 96  2 17 18 39  0.0010000  0  8 27 29 22 19 18 28 14 31
  24360368.151    -3953741.65549  -3071060.86849  24360370.2494   24360376.7524
  21281626.636     1171989.65349    915785.96349  21281629.8724   21281634.8674
  24385419.263    16128324.37049  12564221.87449  24385421.0454   24385428.1224
  21778566.304   -14119067.68449 -10990200.06049  21778568.3324   21778574.9864
  20594492.571     -557481.97349   -427887.99349  20594495.3684   20594500.9614
  23754537.437    -7435322.099 9  -5760128.192 9  23754539.447    23754546.174
  24210032.637    19467488.11049  15160467.12349  24210038.5634   24210048.4154
  23731263.738    -6996256.74849  -5432170.16149  23731264.7504   23731271.9374
 96  2 17 18 39 30.0010000  0  8 27 29 22 19 18 28 14 31
  24346200.061    -4028173.79949  -3129059.85549  24346204.5824   24346213.8804
  21290052.035     1216264.49249    950285.82449  21290055.0364   21290060.3544
  24405871.252    16235821.17649  12647985.58049  24405876.4884   24405883.5534
  21770235.732   -14162834.32749 -11024303.90749  21770239.6004   21770246.3304
  20590822.518     -576768.40049   -442916.36649  20590825.4334   20590831.4484
  23747824.272    -7470604.528 9  -5787620.985 9  23747825.773    23747832.552
  24231835.569    19582040.68349  15249728.74449  24231836.6294   24231846.1994
  23715949.095    -7076717.07249  -5494866.45149  23715952.0794   23715959.7184
 96  2 17 18 40  0.0010000  0  8 27 29 22 19 18 28 14 31
  24332049.422    -4102553.83349  -3187018.24949  24332051.8404   24332061.0414
  21298553.845     1260945.23349    985101.97149  21298557.3874   21298562.6924
  24426352.464    16343430.52249  12731836.98149  24426354.1604   24426362.8704
  21761942.925   -14206418.67749 -11058265.71549  21761946.2234   21761952.6534
  20587225.218     -595673.47349   -457647.58449  20587227.6664   20587233.4954
  23741191.560    -7505447.416 9  -5814771.274 9  23741196.258    23741200.867
  24253646.361    19696655.80449  15339039.07849  24253648.3444   24253657.7824
  23700671.918    -7156999.78649  -5557424.31649  23700675.0494   23700683.8564
 96  2 17 18 40 30.0010000  0  8 27 29 22 19 18 28 14 31
  24317905.617    -4176876.82049  -3244932.22349  24317907.8524   24317915.1884
  21307135.089     1306037.77449   1020238.99849  21307138.1344   21307143.6884
  24446853.015    16451166.48249  12815787.05749  24446854.8414   24446863.8024
  21753685.218   -14249812.42349 -11092078.99749  21753688.4714   21753694.8804
  20583702.217     -614185.86749   -472072.81249  20583705.1674   20583710.7264
  23734646.491    -7539840.085 9  -5841570.756 9  23734650.634    23734656.964
  24275464.698    19811316.86549  15428385.18649  24275467.4754   24275476.6384
  23685431.312    -7237091.42949  -5619833.36549  23685433.5004   23685441.4694
 96  2 17 18 41  0.0010000  0  8 27 29 22 19 18 28 14 31
  24303770.582    -4251143.71549  -3302802.45049  24303773.6784   24303781.2144
  21315795.118     1351547.65349   1055701.22449  21315798.3074   21315803.5564
  24467378.271    16559045.59949  12899848.70249  24467382.8854   24467391.5484
  21745465.518   -14293012.68649 -11125741.50349  21745467.7044   21745473.9074
  20580256.188     -632294.19549   -486183.18249  20580258.8454   20580264.6924
  23728192.669    -7573775.759 9  -5868014.110 9  23728193.401    23728198.718
  24297292.776    19926014.73849  15517759.98049  24297293.8164   24297303.1964
  23670229.828    -7316980.48649  -5682084.48049  23670231.6744   23670239.7684
 96  2 17 18 41 30.0010000  0  8 27 29 22 19 18 28 14 31
  24289647.435    -4325365.63249  -3360637.66149  24289652.5694   24289657.4764
  21324526.822     1397432.13249   1091455.34449  21324530.0244   21324535.2974
  24487936.214    16667056.70549  12984013.17949  24487938.6944   24487944.5294
  21737277.555   -14336037.70749 -11159267.46649  21737280.3234   21737286.3594
  20576888.448     -649991.07849   -499972.95349  20576891.3294   20576897.0794
  23721816.271    -7607271.208 9  -5894114.463 9  23721818.889    23721825.044
  24319119.273    20040726.77549  15607145.81749  24319122.6724   24319132.0224
  23655062.812    -7396676.89749  -5744185.51349  23655065.4784   23655073.0644
 96  2 17 18 42  0.0010000  0  8 27 29 22 19 18 28 14 31
  24275533.662    -4399534.39249  -3418431.46649  24275535.4454   24275543.7734
  21333327.022     1443677.78549   1127490.89449  21333330.1514   21333335.6574
  24508516.843    16775200.52749  13068281.10049  24508517.8064   24508524.7484
  21729124.992   -14378874.82449 -11192647.00349  21729128.6844   21729135.0964
  20573603.252     -667256.80349   -513426.75149  20573605.9704   20573611.5944
  23715527.159    -7640321.726 9  -5919868.077 9  23715529.793    23715536.473
  24340951.362    20155448.56049  15696539.27049  24340953.8604   24340963.2224
  23639938.603    -7476168.10549  -5806126.65349  23639938.6534   23639946.1734
 96  2 17 18 42 30.0010000  0  8 27 29 22 19 18 28 14 31
  24261434.379    -4473621.62849  -3476161.70249  24261439.4424   24261444.6084
  21342195.961     1490286.12549   1163809.06249  21342199.2444   21342204.9184
  24529124.995    16883491.28249  13152663.48849  24529124.4964   24529131.5464
  21721012.141   -14421510.46349 -11225869.54949  21721015.0874   21721021.4494
  20570403.368     -684071.28449   -526528.93449  20570406.1854   20570411.6654
  23709328.555    -7672912.172 9  -5945263.213 9  23709328.240    23709333.416
  24362787.817    20270194.12949  15785951.25849  24362789.8624   24362799.0444
  23624854.154    -7555436.20949  -5867893.95849  23624855.4214   23624862.2364
 96  2 17 18 43  0.0010000  0  8 27 29 22 19 18 28 14 31
  24247353.472    -4547630.90449  -3533831.21749  24247355.4234   24247361.5544
  21351132.047     1537245.43549   1200400.71149  21351135.4254   21351141.0294
  24549753.777    16991906.85549  13237143.11649  24549757.8314   24549761.9284
  21712935.444   -14463956.90849 -11258944.67949  21712938.0974   21712944.3194
  20567287.583     -700444.70649   -539287.43649  20567290.7344   20567296.2994
  23703205.891    -7705054.137 9  -5970308.842 9  23703210.849    23703218.222
  24384626.288    20384952.49349  15875373.22049  24384628.0774   24384636.5864
  23609806.617    -7634497.91049  -5929500.41949  23609809.3704   23609817.1154
 96  2 17 18 43 30.0010000  0  8 27 29 22 19 18 28 14 31
  24233283.473    -4621561.48749  -3591439.41749  24233288.9214   24233292.2834
  21360137.511     1584568.79349   1237276.04049  21360140.5914   21360146.3894
  24570403.373    17100436.68549  13321711.78149  24570407.9434   24570414.9824
  21704894.307   -14506210.18949 -11291869.28549  21704897.3854   21704903.4974
  20564257.030     -716369.62749   -551696.45649  20564259.9594   20564265.6844
  23697183.160    -7736736.805 9  -5994996.608 9  23697183.279    23697187.854
  24406467.417    20499746.23349  15964822.73349  24406472.1234   24406481.6854
  23594805.386    -7713333.21149  -5990930.45449  23594808.5784   23594814.7044
 96  2 17 18 44  0.0010000  0  8 27 29 22 19 18 28 14 31
  24219227.341    -4695422.54349  -3648993.45049  24219229.6974   24219236.8064
  21369215.226     1632271.75349   1274447.15849  21369218.5544   21369223.6904
  24591078.945    17209060.25249  13406353.50649  24591077.1184   24591083.0864
  21696888.507   -14548282.97049 -11324653.24949  21696891.4214   21696897.5344
  20561309.783     -731859.23149   -563766.26649  20561312.5094   20561318.0314
  23691240.917    -7767959.996 9  -6019326.366 9  23691241.224    23691246.965
  24428322.654    20614589.76049  16054311.03449  24428326.5064   24428335.7564
  23579848.157    -7791934.59849  -6052178.28249  23579850.9904   23579857.5144
 96  2 17 18 44 30.0010000  0  8 27 29 22 19 18 28 14 31
  24205187.351    -4769222.64549  -3706499.95449  24205187.6844   24205193.2564
  21378368.189     1680372.30749   1311928.09449  21378371.7794   21378377.2494
  24611761.445    17317757.03049  13491052.27649  24611762.8464   24611767.2254
  21688914.003   -14590190.50849 -11357308.45449  21688916.4724   21688922.5964
  20558440.922     -746933.17749   -575512.18849  20558443.9624   20558449.3174
  23685379.893    -7798729.519 9  -6043302.550 9  23685385.305    23685392.372
  24450187.912    20729482.42049  16143837.62549  24450190.1844   24450199.6314
  23564936.039    -7870306.69749  -6113247.39549  23564937.8024   23564944.0564
 96  2 17 18 45  0.0010000  0  8 27 29 22 19 18 28 14 31
  24191148.940    -4842967.56949  -3763963.46149  24191154.3464   24191161.2334
  21387599.038     1728883.88649   1349729.31049  21387603.1384   21387608.7254
  24632460.157    17426520.86749  13575803.33249  24632459.5584   24632467.2704
  21680969.679   -14631935.43149 -11389836.94549  21680972.8554   21680979.1394
  20555651.003     -761597.60749   -586939.00449  20555653.3254   20555659.1244
  23679618.945    -7829042.548 9  -6066923.036 9  23679617.172    23679623.181
  24472062.471    20844431.60949  16233408.26649  24472063.5994   24472072.7254
  23550066.495    -7948437.24249  -6174128.27449  23550068.8254   23550076.4574
 96  2 17 18 45 30.0010000  0  8 27 29 22 19 18 28 14 31
  24177128.360    -4916665.92049  -3821390.68849  24177130.0274   24177138.0524
  21396909.232     1777804.79949   1387849.48649  21396912.6244   21396918.1964
  24653169.436    17535358.06049  13660611.53749  24653171.3224   24653177.2164
  21673056.439   -14673516.77649 -11422237.97749  21673059.8444   21673066.4244
  20552940.496     -775840.61449   -598037.44249  20552943.0474   20552948.6034
  23673933.082    -7858892.257 9  -6090182.475 9  23673936.865    23673943.456
  24493947.961    20959439.49249  16323024.63849  24493948.9124   24493958.0344
  23535249.218    -8026308.32549  -6234807.00449  23535252.3644   23535257.9114
 96  2 17 18 46  0.0010000  0  8 27 29 22 19 18 28 14 31
  24163112.747    -4990312.59949  -3878777.66049  24163115.1064   24163123.4284
  21406297.315     1827140.32049   1426292.73549  21406300.4084   21406306.1694
  24673895.600    17644285.26949  13745489.81549  24673898.5994   24673903.8544
  21665179.827   -14714912.94149 -11454494.71449  21665182.4794   21665188.8994
  20550311.916     -789652.40049   -608799.85849  20550314.9254   20550320.2934
  23668346.457    -7888270.412 9  -6113074.485 9  23668346.612    23668353.086
  24515840.529    21074486.25649  16412671.32049  24515842.3614   24515852.2544
  23520481.248    -8103914.68149  -6295279.47549  23520482.9434   23520490.5844
 96  2 17 18 46 30.0010000  0  8 27 29 22 19 18 28 14 31
  24149105.774    -5063914.28549  -3936129.52749  24149111.0344   24149118.0774
  21415763.261     1876881.38549   1465051.99549  21415765.9934   21415771.6704
  24694642.290    17753307.17749  13830441.94449  24694644.6934   24694652.3024
  21657340.082   -14756114.33449 -11486599.68149  21657342.1804   21657348.3774
  20547766.204     -803027.59449   -619222.07549  20547769.3534   20547775.1224
  23662833.909    -7917182.133 9  -6135603.029 9  23662844.319    23662850.684
  24537733.586    21189545.48249  16502327.69649  24537736.9404   24537746.9404
  23505756.984    -8181271.46349  -6355557.41849  23505761.6134   23505769.2604
 96  2 17 18 47  0.0010000  0  8 27 29 22 19 18 28 14 31
  24135114.308    -5137446.96549  -3993427.65849  24135117.7724   24135123.5164
  21425302.567     1927013.91449   1504116.29249  21425305.9364   21425311.5474
  24715410.943    17862447.53349  13915486.37449  24715413.1034   24715419.3344
  21649541.005   -14797099.60949 -11518536.24549  21649543.1394   21649549.3474
  20545310.962     -815932.04849   -629277.48649  20545313.9194   20545319.6684
  23657431.121    -7945608.765 9  -6157753.588 9  23657435.427    23657441.020
  24559632.970    21304619.32949  16591995.48449  24559634.0934   24559644.5224
  23491089.665    -8258368.32549  -6415632.89149  23491091.1774   23491098.3754
 96  2 17 18 47 30.0010000  0  8 27 29 22 19 18 28 14 31
  24121133.716    -5210915.57749  -4050675.87149  24121136.5084   24121142.8474
  21434914.076     1977522.80949   1543473.86349  21434917.4954   21434923.2334
  24736204.721    17971704.69549  14000621.78849  24736203.6604   24736210.5954
  21641782.269   -14837867.20349 -11550303.18149  21641785.2344   21641791.3104
  20542943.704     -828372.30449   -638971.17949  20542946.5334   20542951.9394
  23652105.603    -7973555.687 9  -6179530.326 9  23652117.068    23652123.156
  24581527.238    21419677.33549  16681650.90949  24581528.6084   24581540.1404
  23476464.520    -8335221.91549  -6475518.76449  23476466.6084   23476473.5194
 96  2 17 18 48  0.0010000  0  8 27 29 22 19 18 28 14 31
  24107165.296    -5284315.04549  -4107870.18849  24107168.5304   24107175.5724
  21444596.101     2028397.12449   1583116.17849  21444598.5894   21444604.4084
  24757010.986    18081055.37849  14085830.11749  24757013.2254   24757021.5524
  21634064.614   -14878420.34049 -11581903.00849  21634067.9514   21634074.3814
  20540660.956     -840367.31449   -648317.93549  20540663.7554   20540669.1454
  23646885.295    -8001033.799 9  -6200941.763 9  23646887.932    23646894.642
  24603415.786    21534709.09549  16771285.87649  24603421.6054   24603428.8334
  23461879.692    -8411858.57149  -6535235.62449  23461882.6444   23461889.2224
 96  2 17 18 48 30.0010000  0  8 27 29 22 19 18 28 14 31
  24093215.523    -5357623.25549  -4164993.43149  24093219.1254   24093226.8524
  21454346.138     2079638.51949   1623044.53549  21454349.6414   21454355.3964
  24777837.007    18190494.58449  14171107.37749  24777839.7284   24777844.8324
  21626389.172   -14918762.71549 -11613338.60049  21626391.1164   21626397.4204
  20538465.120     -851909.61949   -657311.93249  20538467.6184   20538473.3724
  23641743.884    -8028038.582 9  -6221984.368 9  23641749.298    23641754.998
  24625304.240    21649737.63649  16860918.39849  24625311.1664   24625322.9104
  23447338.305    -8488269.08549  -6594776.23649  23447342.6324   23447349.8994
 96  2 17 18 49  0.0010000  0  8 27 29 22 19 18 28 14 31
  24079286.727    -5430830.97049  -4222038.37249  24079288.5914   24079296.6924
  21464169.492     2131259.03149   1663268.30949  21464172.5964   21464178.5834
  24798677.059    18300020.59149  14256452.27849  24798681.4184   24798687.9114
  21618751.782   -14958891.56149 -11644607.81149  21618754.9854   21618761.0784
  20536353.844     -863002.45649   -665955.69249  20536356.7504   20536362.2884
  23636690.464    -8054558.138 9  -6242648.911 9  23636702.242    23636708.613
  24647197.374    21764773.21849  16950556.31559  24647198.1304   24647212.4594
  23432849.430    -8564422.93549  -6654116.87049  23432851.4934   23432858.4944
 96  2 17 18 49 30.0010000  0  8 27 29 22 19 18 28 14 31
  24065369.204    -5503961.07549  -4279022.78649  24065371.8914   24065379.6384
  21474066.586     2183269.47349   1703795.92749  21474070.0264   21474075.5524
  24819534.421    18409621.37249  14341855.51249  24819536.9184   24819543.6024
  21611155.160   -14998814.82149 -11675716.81849  21611157.8994   21611163.9654
  20534325.369     -873661.64549   -674261.54749  20534328.4594   20534333.9404
  23631747.847    -8080601.167 9  -6262942.094 9  23631747.150    23631753.029
  24669091.869    21879812.56449  17040197.21049  24669088.7834   24669101.2014
  23418402.325    -8640324.23449  -6713260.69549  23418406.7484   23418414.6524
 96  2 17 18 50  0.0010000  0  8 27 29 22 19 18 28 14 31
  24051467.038    -5577016.70749  -4335949.20949  24051469.7284   24051476.9704
  21484042.217     2235687.90149   1744641.45449  21484044.8264   21484050.4384
  24840406.139    18519292.38549  14427313.41249  24840407.5014   24840413.4234
  21603594.279   -15038540.11649 -11706671.56949  21603598.1334   21603604.3004
  20532381.274     -883881.04649   -682224.71549  20532383.7634   20532388.9294
  23626881.958    -8106161.965 9  -6282859.554 9  23626882.337    23626888.164
  24690984.822    21994874.05849  17129855.38559  24690986.7924   24690997.2194
  23404013.480    -8715954.83849  -6772193.59249  23404015.8214   23404022.6234
 96  2 17 18 50 30.0010000  0  8 27 29 22 19 18 28 14 31
  24037575.005    -5650023.10149  -4392837.28149  24037577.1124   24037584.3574
  21494093.353     2288510.61749   1785802.00849  21494096.5164   21494102.3174
  24861289.978    18629033.01249  14512825.58349  24861291.4284   24861298.2534
  21596067.394   -15078095.29049 -11737493.75249  21596071.0704   21596077.3674
  20530517.935     -893669.83949   -689852.34149  20530520.8534   20530526.6554
  23622106.807    -8131250.107 9  -6302408.716 9  23622108.811    23622115.127
  24712877.357    22109935.08958                                  24712879.6944
  23389671.207    -8791311.40049  -6830912.94749  23389674.1844   23389681.5444
 96  2 17 18 51  0.0010000  0  8 27 29 22 19 18 28 14 31
  24023691.038    -5722978.11949  -4449685.29849  24023693.3784   24023701.3554
  21504223.812     2341745.63549   1827283.84149  21504227.0544   21504232.5134
  24882187.554    18738860.84149  14598405.65749  24882189.5634   24882195.4544
  21588574.802   -15117476.63249 -11768180.48849  21588576.8864   21588583.6764
  20528736.491     -903030.74649   -697146.55949  20528739.6214   20528745.2204
  23617419.444    -8155853.958 9  -6321580.484 9  23617425.926    23617432.660
  24734777.555    22224980.08819
  23375385.400    -8866390.90949  -6889416.46549  23375388.8264   23375395.2394
 96  2 17 18 51 30.0010000  0  8 27 29 22 19 18 28 14 31
  24009819.256    -5795875.17449  -4506488.13549  24009822.3594   24009828.0484
  21514432.635     2395394.18949   1869087.91449  21514436.1644   21514441.5054
  24903100.073    18848765.14349  14684045.33249  24903104.5294   24903113.0984
  21581111.494   -15156691.85249 -11798737.77749  21581114.7404   21581120.9914
  20527037.624     -911960.48049   -704104.79349  20527040.6414   20527045.8324
  23612837.936    -8179975.351 9  -6340376.363 9  23612836.739    23612841.801
  24756664.652    22339998.89219
  23361148.366    -8941207.23649  -6947714.82149  23361150.0274   23361158.4634
 96  2 17 18 52  0.0010000  0  8 27 29 22 19 18 28 14 31
  23995967.365    -5868681.09749  -4563220.00149  23995966.9454   23995974.8294
  21524722.024     2449463.85249   1911220.11749  21524725.2684   21524730.6144
  24924030.580    18958757.34849  14769753.50149  24924034.2064   24924040.7704
  21573683.446   -15195724.66049 -11829152.92749  21573686.9304   21573693.1184
  20525426.189     -920428.27949   -710703.07349  20525429.1184   20525434.4004
  23608343.123    -8203595.271 9  -6358781.467 9  23608341.430    23608347.614
  24778550.676    22454996.80519
  23346967.844    -9015734.02049  -7005787.60049  23346970.2064   23346974.8714
 96  2 17 18 52 30.0010000  0  7 27 29 22 19 18 28 31
  23982129.475    -5941392.35549  -4619878.08749  23982130.6174   23982138.0474
  21535084.500     2503916.58949   1953650.82549  21535087.0574   21535092.7874
  24944980.751    19068828.21049  14855522.98549  24944980.8934   24944988.1994
  21566291.344   -15234568.19649 -11859420.59149  21566295.2054   21566301.6674
  20523902.443     -928433.98149   -716941.27949  20523905.4084   20523911.1044
  23603943.834    -8226721.313 9  -6376801.740 9  23603941.574    23603946.222
  23332832.438    -9089990.15349  -7063649.48049  23332837.1934   23332845.1664
 96  2 17 18 53  0.0010000  0  7 27 29 22 19 18 28 31
  23968308.106    -6014017.10349  -4676468.72949  23968309.9204   23968318.9524
  21545515.767     2558738.58749   1996369.26649  21545519.3254   21545524.7834
  24965938.784    19178954.23749  14941335.43349  24965935.7654   24965939.2774
  21558936.895   -15273223.56749 -11889541.63549  21558939.1164   21558945.4574
  20522467.553     -935977.12649   -722819.05249  20522470.2184   20522475.4814
  23599625.946    -8249360.833 9  -6394442.902 9  23599632.116    23599639.074
  23318756.590    -9163980.86949  -7121304.52749  23318758.4804   23318765.1874
 96  2 17 18 53 30.0010000  0  7 27 29 22 19 18 28 31
  23954501.537    -6086564.79049  -4732999.34449  23954506.1314   23954512.9274
  21556018.920     2613929.77849   2039375.38649  21556022.2554   21556027.5224
  24986899.499    19289134.72249  15027190.37749  24986902.7904   24986911.3814
  21551617.577   -15311681.04249 -11919508.47649  21551621.0014   21551627.3944
  20521123.532     -943038.32149   -728321.28349  20521126.3124   20521131.9184
  23595413.787    -8271508.463 9  -6411700.756 9  23595418.668    23595423.737
  23304728.059    -9237691.75549  -7178741.56549  23304731.0664   23304738.9044
 96  2 17 18 54  0.0010000  0  7 27 29 22 19 18 28 31
  23940710.864    -6159051.03849  -4789482.09649  23940711.9034   23940719.0024
  21566590.692     2669487.10749   2082666.80849  21566594.2204   21566599.8744
  25007879.671    19399400.76749  15113111.94049  25007885.7534   25007891.6234
  21544339.477   -15349931.01349 -11949313.62649  21544342.1864   21544348.3364
  20519874.355     -949605.54649   -733438.60249  20519876.7334   20519882.2004
  23591301.026    -8293152.379 9  -6428566.156 9  23591299.739    23591304.795
  23290758.550    -9311103.86749  -7235945.73049  23290761.1614   23290768.8364
 96  2 17 18 54 30.0010000  0  7 27 29 22 19 18 28 31
  23926921.081    -6231514.16449  -4845946.82749  23926923.2394   23926929.7244
  21577230.146     2725401.30349   2126236.31049  21577233.8354   21577239.7464
  25028877.920    19509725.89449  15199079.54349  25028881.2854   25028886.3094
  21537094.011   -15388005.62549 -11978982.13049  21537097.0164   21537103.2844
  20518710.829     -955717.78249   -738201.37749  20518713.8514   20518719.2524
  23587269.395    -8314312.629 9  -6445054.649 9  23587272.819    23587278.621
  23276842.249    -9384233.12349  -7292929.51049  23276845.1644   23276851.6954
 96  2 17 18 55  0.0010000  0  7 27 29 22 19 18 28 31
  23913133.807    -6303948.67349  -4902389.22749  23913137.3584   23913145.1904
  21587946.202     2781711.99549   2170114.76649  21587949.7724   21587955.5334
  25049885.283    19620122.30849  15285102.62849  25049887.5504   25049895.2264
  21529884.005   -15425894.03949 -12008505.54949  21529887.2414   21529893.3374
  20517634.515     -961371.93449   -742607.20649  20517637.4934   20517643.1494
  23583341.652    -8334970.650 9  -6461151.807 9  23583341.711    23583347.115
  23262988.185    -9457048.31649  -7349668.58849  23262990.9144   23262997.3884
 96  2 17 18 55 30.0010000  0  7 27 29 22 19 18 28 31
  23899360.451    -6376347.41249  -4958803.79349  23899361.1564   23899369.2464
  21598738.973     2838421.93549   2214304.32949  21598741.4684   21598747.0844
  25070909.373    19730594.66549  15371184.96149  25070910.4584   25070916.2654
  21522710.964   -15463589.72049 -12037878.78949  21522713.8734   21522719.7764
  20516645.485     -966570.87349   -746658.32249  20516648.5944   20516654.1944
  23579509.715    -8355118.717 9  -6476851.568 9  23579507.248    23579513.712
  23249190.776    -9529541.21649  -7406156.47449  23249193.4274   23249200.8234
 96  2 17 18 56  0.0010000  0  7 27 29 22 19 18 28 31
  23885590.206    -6448693.13549  -5015177.04849  23885594.3574   23885600.5784
  21609605.316     2895530.29249   2258804.34049  21609608.6564   21609614.2634
  25091943.320    19841123.52049  15457311.32349  25091943.9014   25091950.8374
  21515573.657   -15501097.13449 -12067105.32749  21515576.3234   21515582.2934
  20515742.509     -971313.95249   -750354.22949  20515745.4614   20515751.2834
  23575765.324    -8374756.657 9  -6492153.835 9  23575770.353    23575776.909
  23235458.539    -9601713.06549  -7462394.25849  23235461.5504   23235467.5054
 96  2 17 18 56 30.0010000  0  7 27 29 22 19 18 28 31
  23871838.700    -6520966.61449  -5071493.96349  23871841.8254   23871848.2954
  21620548.151     2953032.79949   2303611.48449  21620550.9504   21620556.5714
  25112977.513    19951675.39949  15543455.69049  25112980.7234   25112988.5974
  21508470.326   -15538422.26349 -12096189.82949  21508473.5304   21508479.8324
  20514924.800     -975613.32349   -753704.38449  20514927.5174   20514933.0304
  23572119.999    -8393893.481 9  -6507065.633 9  23572129.209    23572134.171
  23221781.573    -9673575.78649  -7518391.09949  23221784.3614   23221793.0984
 96  2 17 18 57  0.0010000  0  6 27 29 19 18 28 31
  23858102.338    -6593148.87549  -5127739.85849  23858105.2864   23858113.3104
  21631564.691     3010927.28849   2348724.06849  21631567.9714   21631573.7584
  21501406.694   -15575543.17749 -12125115.19749  21501409.7674   21501415.7804
  20514196.512     -979441.32649   -756687.23849  20514198.9424   20514204.4884
  23568580.187    -8412515.167 9  -6521576.014 9  23568585.425    23568591.044
  23208171.001    -9745114.39949  -7574135.45649  23208172.8634   23208178.5464
 96  2 17 18 57 30.0010000  0  6 27 29 19 18 28 31
  23844382.663    -6665246.15549  -5183919.51249  23844386.1514   23844392.5174
  21642653.434     3069195.94249   2394128.20649  21642656.0254   21642661.6054
  21494378.098   -15612479.39349 -12153896.65249  21494381.0964   21494387.2404
  20513556.446     -982801.64649   -759305.66649  20513559.4224   20513565.2874
  23565135.150    -8430631.304 9  -6535692.466 9  23565138.392    23565144.113
  23194614.694    -9816337.77749  -7629634.12449  23194618.0214   23194626.0214
 96  2 17 18 58  0.0010000  0  6 27 29 19 18 28 31
  23830677.418    -6737257.94049  -5240032.52249  23830681.8594   23830689.0184
  21653810.946     3127830.16249   2439817.20049  21653813.9114   21653819.1194
  21487384.466   -15649233.04749 -12182535.84549  21487386.9324   21487393.2454
  20513007.022     -985691.20549   -761557.26349  20513009.8824   20513015.0964
  23561780.550    -8448248.371 9  -6549420.020 9  23561785.435    23561791.266
  23181119.894    -9887256.68549  -7684895.53749  23181123.8324   23181130.2404
 96  2 17 18 58 30.0010000  0  6 27 29 19 18 28 31
  23816996.373    -6809172.87749  -5296070.11149  23816997.7984   23817004.8314
  21665040.947     3186844.90449   2485802.70449  21665044.1414   21665049.4884
  21480428.431   -15685785.82049 -12211018.51349  21480431.1414   21480437.2744
  20512547.264     -988106.44649   -763439.26549  20512550.2124   20512555.5374
  23558525.710    -8465352.940 9  -6562748.234 9  23558530.218    23558536.754
  23167687.551    -9957852.50949  -7739905.20149  23167689.2224   23167696.6124
 96  2 17 18 59  0.0010000  0  6 27 29 19 18 28 31
  23803327.664    -6880988.22349  -5352030.06149  23803331.3104   23803337.7474
  21676345.724     3246257.70449   2532098.38949  21676349.9614   21676355.4864
  21473514.090   -15722119.68649 -12239330.59849  21473517.1414   21473522.9754
  20512180.428     -990035.07649   -764942.08549  20512183.1734   20512188.6704
  23555377.089    -8481929.445 9  -6575664.958 9  23555376.414    23555382.359
  23154317.765   -10028105.41749  -7794647.67149  23154319.8854   23154326.7454
 96  2 17 18 59 30.0010000  0  6 27 29 19 18 28 31
  23789682.459    -6952706.68949  -5407914.54649  23789683.5624   23789690.8964
  21687728.219     3306066.22249   2578702.41949  21687731.0854   21687736.8014
  21466640.058   -15758244.92349 -12267480.11849  21466642.7124   21466648.9334
  20511902.916     -991491.59049   -766077.02849  20511905.7194   20511911.8344
  23552314.765    -8497984.230 9  -6588175.156 9  23552320.673    23552326.527
  23141010.229   -10098031.60249  -7849135.55649  23141013.6914   23141020.5044
 96  2 17 19  0  0.0010000  0  6 27 29 19 18 28 31
  23776050.931    -7024337.31649  -5463730.54249  23776052.3044   23776059.4534
  21699183.259     3366266.49149   2625611.71449  21699186.6504   21699192.6774
  21459805.400   -15794158.58749 -12295464.77949  21459808.5194   21459814.4324
  20511715.926     -992474.03249   -766842.56449  20511718.9424   20511724.7834
  23549363.898    -8513521.384 9  -6600282.012 9  23549364.256    23549369.749
  23127765.163   -10167645.19749  -7903379.83249  23127767.5144   23127774.3034
 96  2 17 19  0 30.0010000  0  6 27 29 19 18 28 31
  23762433.335    -7095891.37249  -5519486.90949  23762436.4594   23762443.2164
  21710714.650     3426862.54149   2672829.40749  21710717.9274   21710723.5994
  21453009.594   -15829866.98649 -12323289.49249  21453013.4964   21453019.5984
  20511616.712     -992998.00449   -767250.85149  20511619.3944   20511624.9664
  23546502.696    -8528539.855 9  -6611984.698 9  23546506.453    23546512.613
  23114577.678   -10236935.47049  -7957372.20049  23114581.0664   23114586.5734
 96  2 17 19  1  0.0010000  0  6 27 29 19 18 28 31
  23748828.959    -7167384.26949  -5575195.59649  23748832.4154   23748838.7354
  21722320.729     3487852.82549   2720354.29749  21722324.1264   21722329.4074
  21446254.782   -15865369.60449 -12350953.86249  21446257.5854   21446263.7294
  20511608.984     -993038.76249   -767282.60549  20511611.5074   20511617.2114
  23543748.332    -8543031.905 9  -6623277.186 9  23543748.333    23543754.464
  23101456.564   -10305894.56649  -8011106.50349  23101460.1264   23101465.4174
 96  2 17 19  1 30.0010000  0  6 27 29 19 18 28 31
  23735234.811    -7238822.38549  -5630861.62149  23735237.5804   23735244.6524
  21733998.490     3549218.45349   2768171.66349  21734001.3524   21734007.3954
  21439534.499   -15900684.26949 -12378471.76949  21439537.1784   21439543.4464
  20511694.200     -992587.58349   -766931.03249  20511697.5364   20511702.9624
  23541086.266    -8557002.063 9  -6634163.016 9  23541090.535    23541096.159
  23088397.922   -10374522.15649  -8064582.49649  23088399.7434   23088405.5274
 96  2 17 19  2  0.0010000  0  6 27 29 19 18 28 31
  23721651.912    -7310201.27749  -5686481.47949  23721654.1234   23721661.4534
  21745747.086     3610961.47649   2816283.10449  21745750.8754   21745756.4834
  21432850.368   -15935810.04449 -12405842.49049  21432853.0144   21432859.1424
  20511873.493     -991645.50049   -766196.94249  20511876.7164   20511882.1004
  23538531.456    -8570447.410 9  -6644639.895 9  23538531.623    23538538.121
  23075404.591   -10442798.51649  -8117784.77149  23075406.7824   23075414.5444
 96  2 17 19  2 30.0010000  0  6 27 29 19 18 28 31
  23708079.406    -7381524.37649  -5742057.88449  23708082.1864   23708089.4724
  21757568.278     3673081.17649   2864688.04949  21757571.6934   21757577.2964
  21426198.872   -15970763.40749 -12433078.86549  21426201.7734   21426207.5744
  20512144.068     -990226.94049   -765091.56949  20512146.5034   20512152.0434
  23536070.908    -8583371.341 9  -6654710.475 9  23536072.330    23536078.490
  23062482.148   -10510712.06649  -8170704.37249  23062483.5874   23062489.3674
 96  2 17 19  3  0.0010000  0  6 27 29 19 18 28 31
  23694522.169    -7452773.35449  -5797576.54249  23694524.2864   23694530.7144
  21769462.716     3735589.64649   2913395.93849  21769466.9454   21769472.4364
  21419581.150   -16005540.91949 -12460178.22149  21419583.6784   21419590.0224
  20512508.908     -988310.09849   -763597.92949  20512511.7784   20512517.0384
  23533713.791    -8595765.309 9  -6664368.098 9  23533713.897    23533719.476
  23049628.338   -10578256.14849  -8223336.05849  23049630.6464   23049636.4234
 96  2 17 19  3 30.0010000  0  6 27 29 19 18 28 31
  23680977.118    -7523941.59649  -5853032.28849  23680981.5934   23680987.7904
  21781434.022     3798492.05249   2962410.79449  21781436.8834   21781442.4314
  21412993.816   -16040154.91749 -12487150.15649  21412996.9104   21413003.3494
  20512961.819     -985928.55649   -761742.18249  20512964.6834   20512970.1254
  23531451.476    -8607640.219 9  -6673621.270 9  23531454.149    23531459.599
  23036842.149   -10645444.14049  -8275690.27249  23036844.7724   23036851.4914
 96  2 17 19  4  0.0010000  0  6 27 29 19 18 28 31
  23667452.598    -7595016.83549  -5908415.56349  23667456.7954   23667462.6794
  21793484.486     3861819.02949   3011756.47149  21793487.3924   21793493.0824
  21406443.292   -16074574.15649 -12513970.33249  21406446.8814   21406453.3284
  20513504.779     -983079.67149   -759522.27449  20513506.8544   20513512.1494
  23529296.155    -8618976.464 9  -6682454.688 9  23529296.634    23529301.940
  23024125.695   -10712266.51549  -8327759.56749  23024128.5904   23024135.5734
 96  2 17 19  4 30.0010000  0  6 27 29 19 18 28 31
  23653938.827    -7666031.08249  -5963751.30249  23653942.1424   23653949.3864
  21805608.273     3925532.14349   3061403.05049  21805611.9254   21805617.3054
  21399927.783   -16108819.43649 -12540654.95849  21399930.5734   21399936.6144
  20514133.195     -979772.13049   -756944.97549  20514136.2054   20514141.5024
  23527233.357    -8629792.488 9  -6690882.755 9  23527238.695    23527244.067
  23011474.092   -10778743.36449  -8379559.63249  23011478.0944   23011484.9364
 96  2 17 19  5  0.0010000  0  6 27 29 19 18 28 31
  23640438.102    -7736976.26249  -6019033.22149  23640442.0494   23640448.7814
  21817805.899     3989627.91949   3111347.79749  21817808.5794   21817814.2324
  21393449.077   -16142863.89849 -12567183.10349  21393451.9914   21393458.2134
  20514856.419     -975974.52649   -753985.80949  20514859.0204   20514864.3834
  23525282.845    -8640074.206 9  -6698894.463 9  23525282.038    23525288.020
  22998895.568   -10844856.45149  -8431076.23549  22998897.4324   22998903.8224
 96  2 17 19  5 30.0010000  0  6 27 29 19 18 28 31
  23626949.601    -7807866.75049  -6074272.53749  23626951.3604   23626958.3664
  21830071.103     4054085.44149   3161574.42649  21830074.3514   21830080.1744
  21387009.269   -16176705.87049 -12593553.46049  21387012.0354   21387018.1044
  20515671.886     -971687.49049   -750645.26449  20515674.7494   20515680.1574
  23523424.582    -8649826.933 9  -6706493.959 9  23523426.246    23523432.676
  22986384.619   -10910600.79449  -8482305.50249  22986387.3184   22986392.9494
 96  2 17 19  6  0.0010000  0  6 27 29 19 18 28 31
  23613465.412    -7878712.16449  -6129476.73249  23613470.3314   23613476.9994
  21842401.637     4118880.90049   3212064.37949  21842404.8534   21842410.4414
  21380606.751   -16210349.34949 -12619769.15049  21380610.0764   21380616.2284
  20516582.693     -966900.05949   -746914.80249  20516585.6074   20516591.0044
  23521665.337    -8659055.621 9  -6713685.111 9  23521669.269    23521676.018
  22973942.986   -10975970.17849  -8533242.58949  22973946.8994   22973953.6784
 96  2 17 19  6 30.0010000  0  6 27 29 19 18 28 31
  23600002.777    -7949489.52149  -6184627.90749  23600002.0934   23600008.7044
  21854797.159     4184019.00249   3262821.33849  21854799.9944   21854805.8924
  21374244.422   -16243788.03549 -12645825.25749  21374246.8774   21374252.8654
  20517592.120     -961597.77449   -742783.15449  20517594.8974   20517600.1634
  23520015.438    -8667753.133 9  -6720462.366 9  23520014.928    23520019.953
  22961578.954   -11040948.55449  -8583874.96349  22961581.8594   22961588.6094
 96  2 17 19  7  0.0010000  0  6 27 29 19 18 28 31
  23586548.292    -8020180.52649  -6239711.77649  23586549.7034   23586556.4764
  21867263.007     4249528.30349   3313867.53349  21867265.9964   21867271.8374
  21367922.343   -16277007.52949 -12671710.56449  21367925.4664   21367931.2684
  20518699.804     -955778.61349   -738248.74549  20518702.0964   20518707.2584
  23518460.692    -8675916.348 9  -6726823.304 9  23518462.280    23518466.747
  22949287.445   -11105545.02449  -8634209.79549  22949289.7604   22949295.4404
 96  2 17 19  7 30.0010000  0  6 27 29 19 18 28 31
  23573112.084    -8090784.00449  -6294727.43649  23573114.3544   23573121.3204
  21879798.703     4315406.25749   3365200.99049  21879802.2884   21879807.9584
  21361640.559   -16310019.98849 -12697434.55049  21361643.3064   21361649.5254
  20519898.014     -949481.10649   -733341.60349  20519900.6734   20519905.5504
  23517004.635    -8683556.499 9  -6732776.642 9  23517007.867    23517012.737
  22937060.189   -11169793.68549  -8684273.58149  22937063.3384   22937070.4484
 96  2 17 19  8  0.0010000  0  6 27 29 19 18 28 31
  23559698.316    -8161282.20149  -6349661.05949  23559699.4964   23559706.2804
  21892407.334     4381664.88949   3416831.08149  21892410.9744   21892416.6344
  21355399.657   -16342817.29149 -12722990.87849  21355402.4264   21355408.1974
  20521184.973     -942716.66149   -728070.61149  20521187.7244   20521193.1194
  23515651.175    -8690663.333 9  -6738314.416 9  23515654.990    23515661.273
  22924901.737   -11233692.68949  -8734064.93249  22924903.6604   22924909.9514
 96  2 17 19  8 30.0010000  0  6 27 29 19 18 28 31
  23546303.326    -8231678.65149  -6404515.41849  23546303.0624   23546309.3914
  21905089.299     4448306.84149   3468759.86549  21905092.4164   21905098.0494
  21349200.365   -16375397.54649 -12748378.07849  21349202.4664   21349208.3984
  20522559.280     -935492.62749   -722441.49849  20522562.1814   20522567.6114
  23514402.416    -8697237.184 9  -6743436.858 9  23514403.980    23514410.490
  22912809.412   -11297235.78149  -8783578.92549  22912812.2824   22912818.9844
 96  2 17 19  9  0.0010000  0  6 27 29 19 18 28 31
  23532920.197    -8301973.70449  -6459290.71549  23532925.7644   23532932.9114
  21917844.541     4515338.62449   3520992.41049  21917848.2374   21917853.9444
  21343041.328   -16407758.65049 -12773594.50849  21343044.2324   21343050.1654
  20524024.527     -927795.31449   -716443.59549  20524027.1424   20524032.3514
  23513253.071    -8703265.542 9  -6748134.257 9  23513256.628    23513262.462
  22900788.598   -11360402.14249  -8832799.39149  22900791.0304   22900798.7874
 96  2 17 19  9 30.0010000  0  6 27 29 19 18 28 31
  23519563.083    -8372181.25249  -6513997.84949  23519566.4394   23519573.0654
  21930670.272     4582737.16049   3573510.73549  21930673.9624   21930679.3664
  21336922.857   -16439911.32249 -12798648.52049  21336925.9234   21336931.8944
  20525575.976     -919639.53749   -710088.45049  20525579.1344   20525584.3294
  23512209.648    -8708751.657 9  -6752409.128 9  23512212.591    23512218.397
  22888844.836   -11423169.01049  -8881708.57049  22888847.1904   22888854.5794
 96  2 17 19 10  0.0010000  0  6 27 29 19 18 28 31
  23506216.963    -8442312.14349  -6568645.28049  23506220.7424   23506227.0924
  21943566.002     4650500.90849   3626313.64849  21943568.8464   21943574.3894
  21330842.693   -16471864.91249 -12823547.41349  21330845.3474   21330851.2414
  20527220.982     -910999.21849   -703355.73849  20527223.4124   20527228.7164
  23511271.507    -8713695.587 9  -6756261.504 9  23511272.489    23511278.073
  22876983.810   -11485503.98649  -8930281.22549  22876985.8254   22876992.1594
 96  2 17 19 10 30.0010000  0  6 27 29 19 18 28 31
  23492883.511    -8512375.68749  -6623240.17649  23492888.5864   23492894.9144
  21956531.383     4718633.38549   3679403.87449  21956534.3174   21956539.1224
  21324797.079   -16503628.76249 -12848298.45549  21324800.8294   21324806.6074
  20528959.352     -901861.66649   -696235.57149  20528962.4394   20528967.4934
  23510432.709    -8718100.306 9  -6759693.730 9  23510434.791    23510439.433
  22865203.002   -11547407.95149  -8978518.02149  22865205.5714   22865212.2194
 96  2 17 19 11  0.0010000  0  6 27 29 19 18 28 31
  23479567.111    -8582371.99449  -6677782.73649  23479568.5284   23479574.4884
  21969566.707     4787136.74149   3732783.10149  21969569.6414   21969575.2654
  21318786.548   -16535215.65449 -12872911.60349  21318789.8574   21318795.8224
  20530794.270     -892221.98949   -688724.13549  20530796.8234   20530801.8954
  23509699.322    -8721966.171 9  -6762706.067 9  23509698.264    23509703.128
  22853502.797   -11608898.17749  -9026432.42949  22853504.4094   22853511.1194
 96  2 17 19 11 30.0010000  0  6 27 29 19 18 28 31
  23466256.600    -8652312.62649  -6732281.87749  23466258.6034   23466265.3334
  21982671.892     4856007.44649   3786448.56749  21982675.0684   21982681.0394
  21312809.643   -16566633.42849 -12897392.97249  21312811.4354   21312817.2304
  20532722.998     -882085.90949   -680825.89249  20532725.4694   20532730.8284
  23509061.234    -8725301.368 9  -6765304.889 9  23509063.355    23509069.077
  22841877.880   -11669985.60949  -9074032.97449  22841880.0544   22841886.7094
 96  2 17 19 12  0.0010000  0  6 27 29 19 18 28 31
  23452961.091    -8722184.65549  -6786727.56749  23452962.3964   23452968.8774
  21995852.379     4925269.40149   3840418.90549  21995855.3294   21995860.8254
  21306862.815   -16597880.91949 -12921741.65149  21306865.2024   21306871.3614
  20534750.977     -871427.11149   -672520.33349  20534753.8364   20534759.2544
  23508530.785    -8728092.888 9  -6767480.071 9  23508532.551    23508538.191
  22830330.950   -11730672.35049  -9121321.30449  22830331.7844   22830337.7124
 96  2 17 19 12 30.0010000  0  6 27 29 19 18 28 31
  23439676.435    -8791999.28049  -6841128.53749  23439677.6534   23439683.8904
  22009104.164     4994905.61749   3894680.87949  22009107.0434   22009112.1484
  21300946.117   -16628969.30049 -12945966.35149  21300949.1834   21300955.2064
  20536874.306     -860269.00549   -663825.70649  20536877.1264   20536882.2724
  23508100.206    -8730354.302 9  -6769242.190 9  23508102.203    23508107.844
  22818850.167   -11790984.18249  -9168317.49649  22818854.3764   22818860.7254
 96  2 17 19 13  0.0010000  0  7 27 29 19 18 28  2 31
  23426400.289    -8861747.80749  -6895477.99949  23426404.4244   23426411.0684
  22022427.132     5064918.93649   3949236.69849  22022429.3514   22022435.5144
  21295064.802   -16659878.95449 -12970051.79249  21295067.3634   21295073.2844
  20539095.520     -848597.68549   -654731.17349  20539098.1364   20539103.0934
  23507774.051    -8732068.409 9  -6770577.821 9  23507775.757    23507781.469
  25195117.649     -279317.94819   -207047.92959                  25195128.2344
  22807448.593   -11850901.86349  -9215006.56249  22807452.5244   22807459.6364
 96  2 17 19 13 30.0010000  0  7 27 29 19 18 28  2 31
  23413140.501    -8931437.18549  -6949781.38449  23413143.2324   23413150.3374
  22035816.276     5135287.74749   4004069.51349  22035820.4684   22035826.5564
  21289215.508   -16690613.43249 -12994000.72749  21289218.3884   21289224.6684
  20541410.076     -836432.51949   -645251.82649  20541412.9144   20541418.3104
  23507549.447    -8733244.638 9  -6771494.353 9  23507551.996    23507557.541
  25177580.004     -371482.72359   -278864.44959  25177580.9674   25177589.2904
  22796123.361   -11910419.95849  -9261384.26149  22796126.7144   22796133.0594
 96  2 17 19 14  0.0010000  0  7 27 29 19 18 28  2 31
  23399891.952    -9001070.18549  -7004040.82249  23399891.9414   23399898.8024
  22049275.392     5206008.15349   4059176.31149  22049278.3034   22049284.0524
  21283400.266   -16721174.69449 -13017814.68749  21283403.0744   21283409.0544
  20543816.085     -823789.53449   -635400.14749  20543818.8504   20543824.2824
  23507429.403    -8733881.953 9  -6771990.942 9  23507430.409    23507436.000
  25160062.563     -463534.85659   -350593.29649  25160063.6474   25160072.1584
  22784875.199   -11969534.96149  -9307447.87249  22784877.0534   22784883.8094
 96  2 17 19 14 30.0010000  0  7 27 29 19 18 28  2 31
  23386649.894    -9070646.44049  -7058256.04949  23386652.7794   23386659.0254
  22062800.362     5277083.35549   4114559.57049  22062803.4234   22062809.1044
  21277619.908   -16751548.52149 -13041482.59849  21277623.0224   21277628.9574
  20546309.196     -810688.39549   -625191.46949  20546311.9094   20546317.2774
  23507409.027    -8733980.605 9  -6772067.787 9  23507411.916    23507417.310
  25142566.686     -555466.46749   -422228.11849  25142569.7074   25142578.1544
  22773704.284   -12028238.78049  -9353191.08649  22773706.8274   22773712.7224
 96  2 17 19 15  0.0010000  0  7 27 29 19 18 28  2 31
  23373420.632    -9140172.33149  -7112432.02249  23373422.2244   23373428.1504
  22076392.364     5348506.78549   4170214.17649  22076394.9304   22076400.7174
  21271874.864   -16781739.83649 -13065008.28749  21271877.7624   21271883.7074
  20548886.118     -797146.93649   -614639.68349  20548888.9544   20548894.1784
  23507493.495    -8733549.808 9  -6771732.070 9  23507493.712    23507499.600
  25125096.649     -647279.29949   -493770.47249  25125098.0544   25125106.5514
  22762610.920   -12086537.87249  -9398618.91249  22762612.5174   22762618.6624
 96  2 17 19 15 30.0010000  0  7 27 29 19 18 28  2 31
  23360203.155    -9209625.14149  -7166551.08049  23360205.8624   23360211.5874
  22090053.901     5420298.86449   4226156.03749  22090056.6844   22090062.8154
  21266165.207   -16811741.76749 -13088386.41049  21266168.8404   21266174.5714
  20551547.125     -783162.26349   -603742.54149  20551550.0194   20551555.3224
  23507671.744    -8732580.855 9  -6770977.013 9  23507677.907    23507683.928
  25107646.503     -738975.29149   -565221.68949  25107648.9954   25107657.2754
  22751597.011   -12144413.79349  -9443716.99049  22751598.8754   22751605.2544
 96  2 17 19 16  0.0010000  0  7 27 29 19 18 28  2 31
  23347000.702    -9279000.37649  -7220609.67949  23347004.4994   23347010.1164
  22103786.413     5492471.28949   4282394.27449  22103790.7074   22103796.1734
  21260495.605   -16841540.76949 -13111606.40349  21260498.3154   21260504.3804
  20554295.977     -768717.86949   -592487.17149  20554298.6764   20554303.8734
  23507966.287    -8731070.007 9  -6769799.696 9  23507965.487    23507970.951
  25090220.587     -830547.52049   -636576.54549  25090222.7434   25090232.0324
  22740663.751   -12201864.34749  -9488483.61149  22740666.1674   22740673.3644
 96  2 17 19 16 30.0010000  0  7 27 29 19 18 28  2 31
  23333818.713    -9348274.75249  -7274589.67549  23333821.2044   23333827.7224
  22117592.629     5565018.62749   4338924.65349  22117595.8654   22117601.3904
  21254866.545   -16871118.96849 -13134654.34249  21254869.3134   21254875.4524
  20557138.915     -753778.18749   -580845.86849  20557141.5634   20557146.8884
  23508357.640    -8729011.703 9  -6768195.793 9  23508357.240    23508362.856
  25072819.370     -921986.32649   -707827.41049  25072822.2944   25072831.1294
  22729811.471   -12258884.27349  -9532914.68849  22729816.2474   22729821.5264
 96  2 17 19 17  0.0010000  0  7 27 29 19 18 28  2 31
  23320651.456    -9417465.19849  -7328504.26049  23320655.0534   23320661.5184
  22131464.962     5637918.99749   4395730.12249  22131468.2464   22131473.4014
  21249278.055   -16900488.85449 -13157539.96349  21249280.8754   21249286.5654
  20560079.337     -738323.34349   -568803.13749  20560082.4284   20560088.0084
  23508848.971    -8726412.351 9  -6766170.305 9  23508852.085    23508857.946
  25055440.256    -1013316.35749   -778993.52949  25055442.8014   25055451.3914
  22719042.808   -12315482.44549  -9577017.13049  22719045.8114   22719051.5794
 96  2 17 19 17 30.0010000  0  8 27 29 16 19 18 28  2 31
  23307499.016    -9486575.17249  -7382356.15649  23307503.3314   23307510.3834
  22145405.751     5711176.87749   4452814.17149  22145409.0884   22145414.5244
  25186221.451    -2798466.98859  -2164599.77159  25186222.4704   25186229.9394
  21243729.106   -16929645.89449 -13180259.72349  21243732.2374   21243738.7224
  20563123.314     -722330.48149   -556341.17549  20563126.0844   20563131.3674
  23509449.300    -8723264.884 9  -6763717.711 9  23509451.598    23509456.800
  25038082.130    -1104537.00549   -850074.41949  25038084.5704   25038092.7734
  22708355.030   -12371649.98849  -9620784.01349  22708357.1344   22708363.5484
 96  2 17 19 18  0.0010000  0  8 27 29 16 19 18 28  2 31
  23294363.674    -9555615.87449  -7436154.08149  23294365.5604   23294371.7984
  22159412.140     5784783.74349   4510170.15049  22159415.4804   22159421.4184
  25173085.919    -2867484.44349  -2218379.61349  25173088.1234   25173094.5944
  21238223.783   -16958575.56249 -13202802.31149  21238226.9944   21238232.9144
  20566271.113     -705787.54949   -543450.58849  20566274.0114   20566279.2514
  23510153.267    -8719565.468 9  -6760835.024 9  23510155.086    23510160.859
  25020744.726    -1195644.03149   -921066.76249  25020747.0384   25020754.8374
  22697748.582   -12427385.52249  -9664214.25049  22697750.7784   22697757.5374
 96  2 17 19 18 30.0010000  0  8 27 29 16 19 18 28  2 31
  23281233.043    -9624601.48449  -7489909.07749  23281237.9304   23281244.3184
  22173484.275     5858732.30049   4567792.38849  22173487.6484   22173493.1124
  25160023.065    -2936129.62449  -2271869.36749  25160025.1284   25160032.1764
  21232759.338   -16987295.75149 -13225181.67049  21232761.8404   21232767.8374
  20569519.624     -688717.48249   -530149.24549  20569522.5664   20569527.5774
  23510958.767    -8715318.436 9  -6757525.622 9  23510962.645    23510968.993
  25003429.132    -1286632.21049   -991966.49549  25003432.4174   25003440.8524
  22687223.916   -12482692.48649  -9707310.53649  22687226.2354   22687233.5094
 96  2 17 19 19  0.0010000  0  8 27 29 16 19 18 28  2 31
  23268114.255    -9693538.47549  -7543626.17149  23268120.0354   23268126.2664
  22187623.194     5933027.74149   4625684.91849  22187625.6444   22187631.5414
  25147031.694    -3004399.49249  -2325066.63049  25147034.8874   25147041.0214
  21227330.843   -17015817.76149 -13247406.60749  21227334.0514   21227340.1904
  20572864.977     -671138.82649   -516451.59949  20572867.4594   20572872.5444
  23511871.655    -8710523.343 9  -6753789.169 9  23511875.425    23511881.170
  24986139.783    -1377495.51049  -1062768.90149  24986140.8414   24986150.2704
  22676782.430   -12537562.66249  -9750066.45449  22676784.6804   22676790.8014
 96  2 17 19 19 30.0010000  0  8 27 29 16 19 18 28  2 31
  23255013.175    -9762404.45949  -7597287.95249  23255015.3274   23255021.2944
  22201824.208     6007659.01549   4683839.13749  22201827.2824   22201833.2364
  25134115.162    -3072274.67049  -2377956.36249  25134117.5924   25134126.6414
  21221939.579   -17044151.23649 -13269484.63449  21221942.6034   21221948.6194
  20576301.946     -653074.52349   -502375.52949  20576305.0754   20576310.2744
  23512893.188    -8705183.262 9  -6749628.054 9  23512891.932    23512897.368
  24968872.974    -1468223.25249  -1133465.65749  24968876.8044   24968884.8724
  22666427.833   -12591985.70549  -9792473.98449  22666428.6164   22666434.7304
 96  2 17 19 20  0.0010000  0  8 27 29 16 19 18 28  2 31
  23241924.060    -9831186.65749  -7650884.44049  23241926.2314   23241932.6754
  22216086.408     6082608.68649   4742241.45349  22216090.1364   22216096.0224
  25121275.758    -3139750.11549  -2430534.69849  25121277.7324   25121285.7384
  21216580.840   -17072311.10449 -13291427.38049  21216583.8414   21216589.8914
  20579829.217     -634537.85349   -487931.37749  20579832.1484   20579837.4284
  23514007.054    -8699301.758 9  -6745045.064 9  23514010.970    23514015.998
  24951634.197    -1558805.62349  -1204049.16949  24951639.0484   24951647.1384
  22656152.540   -12645965.11149  -9834535.80849  22656156.3964   22656162.4834
 96  2 17 19 20 30.0010000  0  8 27 29 16 19 18 28  2 31
  23228852.689    -9899868.98049  -7704403.11049  23228856.2924   23228862.3724
  22230409.675     6157875.58349   4800890.96849  22230412.9814   22230418.2754
  25108513.122    -3206817.14449  -2482794.70349  25108515.6784   25108522.5324
  21211252.204   -17100314.03049 -13313247.83249  21211255.0484   21211261.2074
  20583447.950     -615520.26549   -473112.48449  20583451.0844   20583456.5444
  23515232.247    -8692878.599 9  -6740039.996 9  23515233.092    23515238.472
  24934429.408    -1649231.47549  -1274510.68649  24934431.8424   24934438.3024
  22645966.773   -12699497.45149  -9876249.26549  22645969.4624   22645975.8094
 96  2 17 19 21  0.0010000  0  8 27 29 16 19 18 28  2 31
  23215806.035    -9968436.38349  -7757832.21949  23215808.4624   23215814.9264
  22244793.244     6233461.31649   4859788.91649  22244796.5374   22244802.1634
  25095830.852    -3273451.53949  -2534717.53849  25095835.4424   25095841.4744
  21205956.434   -17128145.32549 -13334934.54849  21205959.0974   21205964.8984
  20587162.395     -596004.36549   -457905.29849  20587164.7884   20587170.1084
  23516552.951    -8685909.037 9  -6734609.166 9  23516559.286    23516564.598
  24917247.436    -1739505.85549  -1344854.18449  24917253.0864   24917260.2504
  22635865.818   -12752578.05349  -9917610.72149  22635868.5034   22635874.1804
 96  2 17 19 21 30.0010000  0  8 27 29 16 19 18 28  2 31
  23202777.496   -10036894.64449  -7811176.29349  23202781.2774   23202787.8414
  22259240.101     6309379.52949   4918945.94049  22259243.7804   22259248.8344
  25083238.109    -3339645.52949  -2586297.19849  25083239.5304   25083246.5634
  21200694.466   -17155794.12049 -13356479.05549  21200697.5204   21200703.5294
  20590974.340     -575976.86849   -442299.46449  20590976.3244   20590981.3304
  23517988.461    -8678385.255 9  -6728746.484 9  23517991.319    23517996.409
  24900101.347    -1829619.61849  -1415072.51349  24900104.6774   24900112.6324
  22625851.985   -12805203.59549  -9958617.59349  22625854.4664   22625860.0874
 96  2 17 19 22  0.0010000  0  8 27 29 16 19 18 28  2 31
  23189769.128   -10105261.18149  -7864448.89749  23189771.6034   23189777.9874
  22273755.805     6385657.39049   4978383.21149  22273758.7304   22273763.7564
  25070720.356    -3405417.81749  -2637548.35249  25070722.2124   25070731.8914
  21195470.494   -17183249.52949 -13377872.87549  21195473.1744   21195478.8074
  20594884.616     -555426.70449   -426286.35849  20594886.6994   20594892.1134
  23519525.252    -8670306.577 9  -6722451.417 9  23519528.867    23519533.979
  24882982.830    -1919571.79649  -1485164.93949  24882987.4044   24882994.8584
  22615921.953   -12857378.34049  -9999273.18249  22615925.7524   22615931.4814
 96  2 17 19 22 30.0010000  0  8 27 29 16 19 18 28  2 31
  23176771.083   -10173557.22849  -7917666.56649  23176775.0134   23176781.7614
  22288340.151     6462302.94449   5038106.99749  22288343.5394   22288349.3814
  25058277.414    -3470794.75249  -2688491.44149  25058281.2834   25058289.2764
  21190283.575   -17210505.87149 -13399111.57949  21190286.5694   21190292.3744
  20598889.471     -534375.12449   -409882.53949  20598892.6104   20598897.9904
  23521166.401    -8661682.009 9  -6715730.981 9  23521169.803    23521175.259
  24865892.739    -2009387.30049  -1555150.87249  24865896.0354   24865903.7934
  22606079.096   -12909103.64449 -10039578.56249  22606083.1974   22606089.5934
 96  2 17 19 23  0.0010000  0  8 27 29 16 19 18 28  2 31
  23163787.171   -10241803.05449  -7970845.10649  23163788.1654   23163794.3414
  22302994.196     6539308.76949   5098111.50449  22302997.6444   22303003.1124
  25045911.466    -3535797.71949  -2739143.08949  25045912.3614   25045919.5374
  21185134.627   -17237565.40649 -13420196.92549  21185137.1974   21185143.0494
  20602986.318     -512849.08249   -393109.00749  20602988.9114   20602994.3734
  23522913.616    -8652520.728 9  -6708592.319 9  23522913.132    23522918.298
  24848825.891    -2099077.34849  -1625039.03849  24848828.3024   24848835.0374
  22596319.221   -12960386.35249 -10079539.07049  22596323.7764   22596329.4464
 96  2 17 19 23 30.0010000  0  8 27 29 16 19 18 28  2 31
  23150808.863   -10309988.58649  -8023976.65849  23150813.0574   23150819.1804
  22317719.095     6616689.60749   5158408.23849  22317722.5894   22317728.6064
  25033613.285    -3600422.50649  -2789500.07349  25033614.8254   25033620.7094
  21180023.501   -17264420.18949 -13441122.72749  21180026.8234   21180032.6184
  20607173.441     -490843.31749   -375961.66249  20607176.3054   20607181.8234
  23524755.055    -8642807.636 9  -6701023.683 9  23524761.347    23524766.888
  24831786.518    -2188622.45549  -1694814.30549  24831787.2734   24831795.7034
  22586653.866   -13011201.47249 -10119135.25449  22586654.6174   22586659.8424
 96  2 17 19 24  0.0010000  0  8 27 29 16 19 18 28  2 31
  23137847.113   -10378105.86549  -8077055.02749  23137850.5624   23137857.1344
  22332513.158     6694433.73149   5218988.05849  22332516.7244   22332522.8824
  25021388.209    -3664668.24549  -2839561.66949  25021388.9204   25021396.3724
  21174951.510   -17291074.25249 -13461892.12149  21174954.4184   21174960.5044
  20611451.055     -468364.88349   -358446.00249  20611453.8794   20611459.5104
  23526716.924    -8632542.230 9  -6693024.652 9  23526714.773    23526720.614
  24814771.107    -2278032.22549  -1764484.11449  24814773.8514   24814782.1554
  22577074.132   -13061537.08049 -10158357.74949  22577076.2094   22577080.5774
 96  2 17 19 24 30.0010000  0  8 27 29 16 19 18 28  2 31
  23124895.206   -10446167.31949  -8130089.89849  23124898.7894   23124905.5354
  22347369.472     6772504.34049   5279822.27649  22347373.2734   22347379.0934
  25009238.726    -3728518.04349  -2889314.75749  25009240.0114   25009247.3114
  21169914.632   -17317541.95549 -13482516.29849  21169917.8814   21169924.0194
  20615817.578     -445419.24249   -340566.28549  20615820.4224   20615825.8194
  23528771.564    -8621732.092 9  -6684601.167 9  23528771.887    23528777.458
  24797778.428    -2367326.46649  -1834063.92549  24797780.8764   24797789.7514
  22567584.183   -13111401.87149 -10197213.38149  22567586.5154   22567593.8514
 96  2 17 19 25  0.0010000  0  8 27 29 16 19 18 28  2 31
  23111953.315   -10514167.06949  -8183076.68549  23111958.9944   23111965.4544
  22362286.969     6850895.99249   5340906.64649  22362290.3294   22362296.4334
  24997163.265    -3791950.74749  -2938742.82949  24997167.5834   24997177.4244
  21164912.241   -17343833.01449 -13503002.83449  21164914.9024   21164920.9244
  20620279.605     -421972.00449   -322295.71149  20620282.0834   20620287.9674
  23530928.822    -8610372.488 9  -6675749.538 9  23530933.858    23530939.163
  24780812.474    -2456491.17449  -1903542.80549  24780814.8574   24780822.1944
  22558188.270   -13160787.38449 -10235695.55949  22558189.3024   22558194.0184
 96  2 17 19 25 30.0010000  0  8 27 29 16 19 18 28  2 31
  23099024.644   -10582107.35549  -8236017.13449  23099029.9354   23099036.8794
  22377266.617     6929609.20249   5402241.60149  22377268.9584   22377275.1194
  24985175.964    -3854961.83749  -2987842.37449  24985178.1694   24985186.1824
  21159941.524   -17369954.80449 -13523357.47349  21159944.1554   21159950.0444
  20624839.032     -398010.50349   -303624.41649  20624841.7574   20624847.5714
  23533198.972    -8598464.551 9  -6666470.617 9  23533199.620    23533205.641
  24763866.643    -2545535.11949  -1972927.60749  24763869.4854   24763876.5064
  22548879.447   -13209690.44949 -10273801.79749  22548883.5094   22548889.7924
 96  2 17 19 26  0.0010000  0  8 27 29 16 19 18 28  2 31
  23086109.730   -10649989.79849  -8288912.50149  23086112.7054   23086119.7984
  22392306.679     7008645.45449   5463828.26249  22392309.0784   22392314.8234
  24973266.941    -3917540.58449  -3036605.03049  24973267.3184   24973276.4644
  21155002.614   -17395905.99949 -13543579.17749  21155005.8304   21155011.9474
  20629500.317     -373518.53549   -284539.76949  20629502.6384   20629508.0894
  23535569.697    -8586007.583 9  -6656763.880 9  23535570.067    23535575.684
  24746944.942    -2634458.08849  -2042218.13349  24746947.9654   24746955.4044
  22539664.387   -13258116.92749 -10311536.67549  22539667.4924   22539673.5844
 96  2 17 19 26 30.0010000  0  8 27 29 16 19 18 28  2 31
  23073208.614   -10717796.72549  -8341749.04949  23073209.1174   23073215.3884
  22407409.277     7088016.62449   5525675.90149  22407413.0554   22407418.8044
  24961444.160    -3979680.17349  -3085025.45449  24961444.3574   24961452.5734
  21150100.645   -17421669.47649 -13563654.61249  21150103.4524   21150109.0034
  20634264.109     -348481.30449   -265030.23749  20634266.9224   20634272.5894
  23538046.132    -8572996.912 9  -6646625.694 9  23538045.770    23538051.325
  24730049.667    -2723241.75849  -2111400.10649  24730053.6984   24730060.8154
  22530543.380   -13306064.40849 -10348898.30849  22530543.9734   22530549.6284
 96  2 17 19 27  0.0010000  0  8 27 29 16 19 18 28  2 31
  23060321.944   -10785518.41349  -8394519.16349  23060322.2554   23060328.7314
  22422577.879     7167732.42249   5587792.08049  22422581.3914   22422588.2894
  24949696.463    -4041401.04649  -3133119.56149  24949698.8794   24949707.3154
  21145235.246   -17447233.59649 -13583574.70549  21145238.3734   21145244.2714
  20639131.509     -322905.11349   -245100.74249  20639134.1054   20639139.6044
  23540626.916    -8559431.639 9  -6636055.362 9  23540627.338    23540632.902
  24713186.309    -2811864.91949  -2180457.00149  24713188.2324   24713197.0514
  22521510.079   -13353519.62349 -10385876.35449  22521513.5984   22521518.4834
 96  2 17 19 27 30.0010000  0  8 27 29 16 19 18 28  2 31
  23047451.309   -10853142.93749  -8447213.56749  23047454.2424   23047460.2804
  22437817.499     7247806.51249   5650187.44249  22437820.2764   22437826.0924
  24938034.097    -4102690.46549  -3180877.52449  24938034.0504   24938044.7204
  21140414.357   -17472567.82749 -13603315.65449  21140417.4474   21140423.1874
  20644097.180     -296808.17349   -224765.46549  20644100.0904   20644105.7184
  23543314.003    -8545307.311 9  -6625049.399 9  23543315.170    23543321.049
  24696353.421    -2900321.87449  -2249384.38849  24696355.4364   24696364.1154
  22512575.155   -13400477.72149 -10422467.04349  22512577.6444   22512583.0844
 96  2 17 19 28  0.0010000  0  8 27 29 16 19 18 28  2 31
  23034600.375   -10920680.69749  -8499840.35749  23034601.6664   23034608.0924
  22453116.195     7328204.38649   5712835.11149  22453119.3354   22453125.0914
  24926451.717    -4163553.82849  -3228303.49349  24926456.1714   24926463.1634
  21135635.111   -17497685.73249 -13622888.03849  21135637.9914   21135643.7154
  20649155.883     -270225.46449   -204051.67049  20649158.6524   20649164.2864
  23546101.920    -8530647.793 9  -6613626.407 9  23546104.665    23546110.188
  24679549.180    -2988624.51449  -2318191.54249  24679551.9084   24679559.8914
  22503731.457   -13446954.00849 -10458682.29549  22503733.6934   22503739.5984
 96  2 17 19 28 30.0010000  0  8 27 29 16 19 18 28  2 31
  23021765.813   -10988124.03649  -8552393.57949  23021767.5714   23021774.5084
  22468476.174     7408925.65549   5775734.76949  22468479.8654   22468486.0864
  24914951.295    -4223983.08849  -3275391.22649  24914956.4804   24914964.6094
  21130897.924   -17522577.15949 -13642283.94049  21130901.0824   21130907.0264
  20654305.043     -243166.03849   -182966.40849  20654307.8424   20654313.8404
  23548995.788    -8515439.516 9  -6601775.809 9  23548998.763    23549004.150
  24662778.292    -3076756.79049  -2386865.92149  24662781.1524   24662788.9984
  22494983.932   -13492925.79249 -10494504.41449  22494985.7834   22494991.2184
 96  2 17 19 29  0.0010000  0  8 27 29 16 19 18 28  2 31
  23008945.160   -11055492.54649  -8604888.48149  23008948.3484   23008954.3914
  22483897.874     7489961.70149   5838879.70949  22483901.1254   22483906.6374
  24903538.178    -4283971.29549  -3322135.28049  24903539.5164   24903545.8324
  21126200.440   -17547262.66149 -13661519.38449  21126203.4804   21126209.5684
  20659542.886     -215640.28349   -161517.77249  20659545.9004   20659551.5554
  23551994.599    -8499686.114 9  -6589500.446 9  23551996.738    23552001.744
  24646038.157    -3164725.11749  -2455412.56849  24646041.0554   24646048.4894
  22486330.138   -13538394.09949 -10529934.21849  22486332.6924   22486337.4394
 96  2 17 19 29 30.0010000  0  8 27 29 16 19 18 28  2 31
  22996141.721   -11122778.19449  -8657318.83149  22996144.4454   22996150.0634
  22499379.951     7571319.43849   5902275.32149  22499382.9254   22499388.7744
  24892208.656    -4343500.97149  -3368522.01849  24892212.3624   24892220.1554
  21121540.044   -17571756.56349 -13680605.52849  21121542.8234   21121548.5414
  20664872.108     -187639.91649   -139699.30749  20664874.0674   20664879.8174
  23555099.481    -8483381.750 9  -6576795.754 9  23555099.034    23555104.601
  24629332.043    -3252520.59549  -2523824.53949  24629334.1814   24629341.7574
  22477772.709   -13583366.76149 -10564977.81549  22477774.7714   22477779.8584
 96  2 17 19 30  0.0010000  0  8 27 29 16 19 18 28  2 31
  22983354.427   -11189979.66649  -8709683.57949  22983355.8144   22983361.9904
  22514918.814     7652984.79749   5965910.62949  22514923.2174   22514928.8394
  24880963.849    -4402590.96349  -3414566.17549  24880967.2414   24880974.3464
  21116910.658   -17596079.88049 -13699558.75049  21116914.1364   21116920.1404
  20670290.256     -159163.96049   -117510.25349  20670293.0464   20670298.4884
  23558304.598    -8466524.726 9  -6563660.425 9  23558306.895    23558312.344
  24612660.879    -3340132.54449  -2592093.50849  24612662.2074   24612669.6944
  22469308.703   -13627846.92049 -10599637.64649  22469310.4694   22469316.2144
 96  2 17 19 30 30.0010000  0  8 27 29 16 19 18 28  2 31
  22970581.789   -11257091.91249  -8761978.81549  22970584.8544   22970591.2164
  22530522.746     7734978.99949   6029802.18349  22530525.4964   22530531.4184
  24869801.912    -4461245.64949  -3460271.15149  24869806.2154   24869813.8824
  21112315.749   -17620224.36749 -13718372.62549  21112319.4114   21112325.2264
  20675803.760     -130190.38649    -94933.44649  20675806.6114   20675812.1294
  23561617.020    -8449106.505 9  -6550087.805 9  23561621.184    23561626.836
  24596024.533    -3427554.02549  -2660214.05649  24596027.0774   24596033.2714
  22460935.256   -13671840.45949 -10633918.28149  22460938.5794   22460944.3804
 96  2 17 19 31  0.0010000  0  8 27 29 16 19 18 28  2 31
  22957834.624   -11324094.29849  -8814188.45349  22957835.1524   22957841.0914
  22546189.838     7817313.29149   6093958.74749  22546193.4004   22546199.5714
  24858725.958    -4519454.41749  -3505628.61649  24858730.5194   24858734.1144
  21107757.689   -17644181.92049 -13737040.83949  21107760.5504   21107766.1164
  20681414.847     -100702.00849    -71955.49449  20681417.8494   20681423.4014
  23565037.256    -8431131.735 9  -6536081.504 9  23565041.911    23565047.648
  24579424.767    -3514780.22549  -2728182.45649  24579428.3474   24579434.9934
  22452655.291   -13715358.06149 -10667828.07249  22452657.3534   22452663.1744
 96  2 17 19 31 30.0010000  0  8 27 29 16 19 18 28  2 31
  22945104.902   -11390981.69749  -8866308.48249  22945106.5254   22945113.1914
  22561921.947     7899977.39349   6158372.31049  22561924.2134   22561930.3184
  24847728.627    -4577237.02249  -3550654.04249  24847732.3014   24847739.8254
  21103236.399   -17667939.84149 -13755553.49349  21103239.5344   21103245.3184
  20687122.730      -70708.17849    -48583.68849  20687125.4314   20687131.0814
  23568564.748    -8412609.243 9  -6521648.423 9  23568567.069    23568571.942
  24562859.559    -3601825.87549  -2796010.18149  24562863.6224   24562869.9134
  22444462.476   -13758411.15549 -10701375.90149  22444465.0074   22444470.1834
 96  2 17 19 32  0.0010000  0  8 27 29 16 19 18 28  2 31
  22932393.848   -11457766.59049  -8918348.62849  22932397.4704   22932403.8854
  22577711.385     7982955.47849   6223030.51649  22577714.0694   22577720.4294
  24836815.056    -4634591.54949  -3595345.84749  24836819.9494   24836827.2774
  21098755.503   -17691488.61849 -13773903.18349  21098758.4544   21098764.1634
  20692926.722      -40209.15949    -24818.22449  20692929.3264   20692935.0894
  23572189.536    -8393547.190 9  -6506794.885 9  23572193.948    23572199.465
  24546325.410    -3688723.99649  -2863722.94349  24546327.7294   24546334.8524
  22436360.513   -13800986.62749 -10734551.57249  22436362.8144   22436369.0044
 96  2 17 19 32 30.0010000  0  8 27 29 16 19 18 28  2 31
  22919704.454   -11524445.46649  -8970306.17349  22919709.1494   22919715.3224
  22593566.276     8066272.64949   6287952.96549  22593569.3914   22593574.8594
  24825987.943    -4691481.27949  -3639675.47649  24825993.3784   24826000.6834
  21094319.637   -17714796.30849 -13792065.00649  21094322.9344   21094328.7284
  20698832.392       -9175.31149      -636.01349  20698835.1944   20698840.4144
  23575926.525    -8373927.594 9  -6491506.893 9  23575927.505    23575932.969
  24529815.927    -3775470.93749  -2931317.91449  24529819.2844   24529827.5174
  22428354.837   -13843053.56649 -10767330.98449  22428357.8644   22428362.7244
 96  2 17 19 33  0.0010000  0  8 27 29 16 19 18 28  2 31
  22907034.905   -11591033.87549  -9022193.22049  22907037.6684   22907044.5364
  22609480.404     8149904.99949   6353121.00349  22609483.3414   22609490.0044
  24815251.755    -4747921.23049  -3683654.66649  24815251.7884   24815260.1114
  21089926.965   -17737879.49049 -13810051.89749  21089930.2194   21089936.2644
  20704833.596       22363.17149     23939.41949  20704836.4964   20704842.0684
  23579763.372    -8353758.370 9  -6475790.644 9  23579765.938    23579770.981
  24513335.936    -3862085.65749  -2998809.86549  24513337.3234   24513344.6344
  22420447.826   -13884609.10149 -10799711.89549  22420450.7074   22420455.9744
 96  2 17 19 33 30.0010000  0  8 27 29 16 19 18 28  2 31
  22894375.351   -11657562.75449  -9074033.88649  22894378.0894   22894384.3504
  22625453.682     8233841.77149   6418526.24849  22625456.4934   22625462.9304
  24804591.186    -4803936.12249  -3727302.62649  24804593.5614   24804602.2414
  21085574.832   -17760753.90049 -13827876.10849  21085577.4484   21085583.2134
  20710926.821       54381.92549     48889.09249  20710929.5864   20710934.9554
  23583704.938    -8333045.427 9  -6459650.698 9  23583707.514    23583712.573
  24496874.450    -3948586.27149  -3066212.89149  24496877.6124   24496884.1594
  22412638.035   -13925642.69049 -10831686.09249  22412641.0864   22412646.2894
 96  2 17 19 34  0.0010000  0  8 27 29 16 19 18 28  2 31
  22881729.333   -11724015.88949  -9125815.53349  22881732.3914   22881738.2764
  22641488.423     8318107.39649   6484187.75949  22641491.3434   22641497.3874
  24794017.889    -4859494.08749  -3770594.55049  24794021.2264   24794027.3584
  21081263.590   -17783408.94249 -13845529.38449  21081266.3284   21081272.2424
  20717113.313       86892.94649     74222.35149  20717116.0794   20717121.5594
  23587754.512    -8311764.228 9  -6443067.946 9  23587756.821    23587762.611
  24480443.316    -4034932.46849  -3133495.58549  24480445.9454   24480453.4824
  22404935.683   -13966122.50249 -10863228.77949  22404937.8824   22404944.2244
 96  2 17 19 34 30.0010000  0  8 27 29 16 19 18 28  2 31
  22869096.603   -11790396.72349  -9177540.83849  22869100.2444   22869106.7164
  22657586.389     8402701.71649   6550105.37649  22657589.1114   22657596.1014
  24783528.102    -4914615.16949  -3813546.01349  24783533.2094   24783539.3024
  21076990.228   -17805863.40549 -13863026.36649  21076993.4684   21076999.4384
  20723390.758      119882.50949     99928.49749  20723394.0194   20723399.0964
  23591912.132    -8289920.597 9  -6426046.945 9  23591913.617    23591919.442
  24464044.879    -4121104.98849  -3200642.94149  24464047.7584   24464055.6814
  22397335.479   -14006068.38649 -10894355.42949  22397336.4794   22397342.2064
 96  2 17 19 35  0.0010000  0  8 27 29 16 19 18 28  2 31
  22856478.669   -11856714.21949  -9229216.78949  22856480.9884   22856487.0204
  22673741.384     8487598.10149   6616258.37249  22673745.2514   22673750.7914
  24773114.649    -4969327.09549  -3856178.67449  24773120.4024   24773128.5064
  21072747.699   -17828158.37049 -13880399.06449  21072750.9674   21072756.8724
  20729755.059      153326.70849    125988.90449  20729757.9654   20729763.4504
  23596168.737    -8267539.633 9  -6408607.229 9  23596172.461    23596178.467
  24447678.341    -4207113.84549  -3267662.78249  24447680.4904   24447688.0344
  22389828.163   -14045509.34749 -10925088.61549  22389831.6294   22389837.3454
 96  2 17 19 35 30.0010000  0  8 27 29 16 19 18 28  2 31
  22843874.274   -11922945.57749  -9280825.61649  22843876.8814   22843883.2664
  22689959.590     8572825.04849   6682668.94549  22689962.9074   22689969.0874
  24762793.838    -5023594.03149  -3898464.57349  24762793.9634   24762801.2464
  21068540.178   -17850269.82349 -13897628.76649  21068543.2544   21068548.9834
  20736212.637      187260.95049    152431.15849  20736215.5174   20736221.0704
  23600534.524    -8244604.745 9  -6390735.882 9  23600536.980    23600542.588
  24431350.099    -4292924.89349  -3334528.49849  24431351.8104   24431358.6394
  22382423.591   -14084421.94449 -10955410.11549  22382426.3574   22382432.5924
 96  2 17 19 36  0.0010000  0  8 27 29 16 19 18 28  2 31
  22831289.029   -11989077.91849  -9332357.27749  22831292.3174   22831298.7184
  22706242.499     8658389.78249   6749342.72849  22706245.4374   22706251.5534
  24752551.260    -5077400.10049  -3940391.36549  24752553.9154   24752563.4354
  21064370.143   -17872186.60649 -13914706.77749  21064372.4824   21064378.3344
  20742769.290      221714.35249    179277.95449  20742771.8054   20742777.3364
  23605006.344    -8221111.755 9  -6372429.647 9  23605007.302    23605013.366
  24415060.241    -4378524.04449  -3401229.10349  24415062.4444   24415070.0264
  22375118.645   -14122810.19249 -10985323.02249  22375121.4114   22375127.4874
 96  2 17 19 36 30.0010000  0  8 27 29 16 19 18 28  2 31
  22818723.330   -12055121.68449  -9383819.93049  22818724.3914   22818730.7504
  22722584.761     8744270.48949   6816262.73049  22722588.0704   22722593.5704
  24742399.624    -5130761.73649  -3981971.80549  24742400.0004   24742408.7954
  21060234.714   -17893916.32349 -13931639.02649  21060237.6184   21060243.3434
  20749424.631      256689.75249    206531.50349  20749427.3714   20749433.0424
  23609578.550    -8197076.448 9  -6353700.821 9  23609580.999    23609586.992
  24398807.293    -4463936.86149  -3467784.50249  24398808.8244   24398816.5464
  22367912.697   -14160681.92949 -11014833.45849  22367915.0114   22367920.8354
 96  2 17 19 37  0.0010000  0  8 27 29 16 19 18 28  2 31
  22806171.718   -12121064.03149  -9435203.55849  22806175.9914   22806182.3914
  22738989.813     8830475.57049   6883435.49449  22738992.5844   22738998.3594
  24732335.645    -5183653.10349  -4023185.84349  24732337.0684   24732344.6454
  21056139.776   -17915435.63049 -13948407.31549  21056142.7034   21056148.4354
  20756179.795      292189.85149    234193.90649  20756182.7174   20756188.4884
  23614255.451    -8172490.919 9  -6334543.259 9  23614259.681    23614265.046
  24382588.644    -4549159.92049  -3534192.05549  24382591.1304   24382598.7664
  22360807.033   -14198018.16549 -11043926.62049  22360809.8254   22360815.5354
 96  2 17 19 37 30.0010000  0  8 27 29 16 19 18 28  2 31
  22793643.745   -12186913.72449  -9486514.98449  22793645.8674   22793651.7754
  22755454.204     8917002.39349   6950858.95949  22755457.5534   22755463.5594
  24722357.052    -5236072.41349  -4064032.07149  24722361.7404   24722366.8654
  21052087.019   -17936731.76649 -13965001.70549  21052089.9364   21052095.7414
  20763032.627      328201.43249    262254.86649  20763035.5274   20763041.0774
  23619039.802    -8147361.002 9  -6314961.491 9  23619041.735    23619047.407
  24366404.188    -4634210.83749  -3600465.46949  24366405.8484   24366414.7374
  22353804.961   -14234817.86449 -11072601.70549  22353806.9604   22353812.9694
 96  2 17 19 38  0.0010000  0  8 27 29 16 19 18 28  2 31
  22781129.124   -12252679.81049  -9537761.26349  22781130.6444   22781137.0464
  22771979.181     9003836.63249   7018521.96749  22771982.3134   22771987.6884
  24712476.143    -5288018.79649  -4104509.73349  24712477.8684   24712486.0514
  21048076.105   -17957809.21749 -13981425.69349  21048079.2524   21048084.9884
  20769982.768      364722.94449    290713.17549  20769985.4874   20769990.9234
  23623923.931    -8121687.140 9  -6294955.868 9  23623927.745    23623933.012
  24350251.574    -4719098.07149  -3666611.32849  24350252.4324   24350260.2854
  22346903.387   -14271084.85049 -11100861.67849  22346906.2084   22346911.5114
 96  2 17 19 38 30.0010000  0  8 27 29 16 19 18 28  2 31
  22768631.277   -12318346.71749  -9588930.25049  22768634.0944   22768640.7424
  22788561.768     9090977.40749   7086423.83349  22788565.1944   22788569.5124
  24702680.851    -5339464.75749  -4144597.50549  24702685.7634   24702691.6444
  21044108.550   -17978663.78149 -13997676.00349  21044110.7484   21044116.3974
  20777029.806      401756.08349    319570.15249  20777032.6044   20777038.3154
  23628918.754    -8095455.877 9  -6274515.915 9  23628919.127    23628924.786
  24334129.794    -4803812.01249  -3732622.15549  24334133.2854   24334140.1054
  22340106.288   -14306801.62649 -11128692.92149  22340108.9354   22340114.7784
 96  2 17 19 39  0.0010000  0  8 27 29 16 19 18 28  2 31
  22756153.955   -12383924.82149  -9640030.05049  22756155.5424   22756161.5294
  22805202.614     9178431.06849   7154569.50349  22805205.5014   22805212.7564
  24692987.780    -5390413.09349  -4184297.57249  24692993.3454   24693003.8894
  21040179.270   -17999306.44849 -14013761.19449  21040182.3054   21040188.3114
  20784172.398      439293.75449    348820.27349  20784175.7384   20784181.4834
  23634010.350    -8068676.944 9  -6253649.206 9  23634015.027    23634020.280
  24318042.010    -4888359.60549  -3798503.35249  24318043.3394   24318051.4364
  22333413.053   -14341978.75249 -11156103.65649  22333415.3804   22333420.4164
 96  2 17 19 39 30.0010000  0  8 27 29 16 19 18 28  2 31
  22743689.027   -12449415.25849  -9691061.54249  22743692.9884   22743699.4614
  22821903.577     9266187.93049   7222951.43949  22821904.8684   22821911.7304
  24683385.966    -5440873.45249  -4223617.30349  24683390.2224   24683391.7764
  21036290.914   -18019739.81249 -14029683.29949  21036294.0234   21036299.6894
  20791416.199      477356.08949    378479.21049  20791418.7114   20791424.2464
  23639214.051    -8041344.820 9  -6232351.442 9  23639215.942    23639221.864
  24301984.577    -4972731.61049  -3864247.71749  24301987.3894   24301995.9994
  22326822.770   -14376610.68049 -11183089.55149  22326824.8424   22326831.3554
 96  2 17 19 40  0.0010000  0  8 27 29 16 19 18 28  2 31
  22731243.774   -12514817.28949  -9742024.13749  22731247.2574   22731253.4784
  22838655.599     9354226.28249   7291552.70449  22838658.1174   22838666.3054
  24673871.469    -5490861.75649  -4262569.23249  24673875.7444   24673882.8714
  21032441.057   -18039973.71349 -14045449.97449  21032443.6074   21032449.3224
  20798757.593      515936.36149    408541.74649  20798760.5084   20798765.9554
  23644518.591    -8013461.140 9  -6210623.890 9  23644522.396    23644527.740
  24285964.050    -5056916.87449  -3929846.54549  24285967.3114   24285976.1124
  22320333.835   -14410707.34249 -11209658.36249  22320336.7054   22320342.0044
 96  2 17 19 40 30.0010000  0  8 27 29 16 19 18 28  2 31
  22718818.356   -12580117.38549  -9792907.31049  22718821.2054   22718827.3934
  22855460.810     9442541.93849   7360370.05449  22855465.5484   22855470.6894
  24664449.901    -5540392.73749  -4301164.78449  24664450.3324   24664458.1454
  21028627.470   -18060012.13649 -14061064.33249  21028630.5324   21028636.2364
  20806193.679      555015.20149    438992.76849  20806197.0174   20806202.6794
  23649932.510    -7985032.821 9  -6188471.948 9  23649931.868    23649937.406
  24269979.645    -5140919.18949  -3995302.82749  24269982.7574   24269991.0574
  22313947.006   -14444267.08849 -11235808.79349  22313950.1664   22313955.9264
 96  2 17 19 41  0.0010000  0  8 27 29 16 19 18 28  2 31
  22706409.816   -12645326.84049  -9843719.85249  22706412.2924   22706418.3094
  22872319.507     9531126.54149   7429396.98149  22872322.4254   22872328.4984
  24655105.455    -5589487.87249  -4339420.70749  24655108.7994   24655115.2464
  21024851.978   -18079851.69249 -14076523.72149  21024855.3044   21024860.9994
  20813723.144      594577.37349    469820.41949  20813725.3484   20813730.8774
  23655443.789    -7956068.561 9  -6165902.399 9  23655443.682    23655449.174
  24254028.491    -5224743.05949  -4060620.06049  24254030.8714   24254039.2704
  22307663.263   -14477293.87449 -11261543.93249  22307665.1864   22307670.8044
 96  2 17 19 41 30.0010000  0  8 27 29 16 19 18 28  2 31
  22694019.657   -12710426.80649  -9894447.08449  22694024.5294   22694030.1124
  22889228.040     9619983.61149   7498636.22349  22889232.6914   22889236.7664
  24645850.332    -5638120.57849  -4377316.30649  24645853.1014   24645860.0774
  21021118.250   -18099469.34549 -14091810.20549  21021121.8734   21021127.9304
  20821346.292      634640.87749    501038.71849  20821349.1574   20821354.8464
  23661056.684    -7926544.161 9  -6142896.387 9  23661061.723    23661067.261
  24238117.220    -5308360.20349  -4125776.21749  24238120.6784   24238127.7574
  22301483.289   -14509764.20549 -11286845.46049  22301486.6704   22301492.7934
 96  2 17 19 42  0.0010000  0  8 27 29 16 19 18 28  2 31
  22681651.266   -12775432.15449  -9945100.58649  22681654.6144   22681659.9684
  22906189.989     9709119.08349   7568092.36849  22906193.4224   22906198.2784
  24636686.816    -5686285.17649  -4414847.18949  24636688.3224   24636694.6394
  21017425.035   -18118885.19249 -14106939.43549  21017427.5784   21017433.2234
  20829062.634      675188.79749    532634.48049  20829065.2254   20829070.7704
  23666782.491    -7896475.715 9  -6119466.444 9  23666783.617    23666789.226
  24222243.680    -5391786.32049  -4190783.50249  24222244.0044   24222252.0854
  22295410.519   -14541681.32349 -11311715.91949  22295412.7294   22295418.4064
 96  2 17 19 42 30.0010000  0  8 27 29 16 19 18 28  2 31
  22669295.746   -12840359.33949  -9995693.17949  22669299.1894   22669304.9064
  22923208.116     9798544.81049   7637774.71549  22923210.9994   22923215.6654
  24627611.482    -5733973.09549  -4452006.60349  24627613.1254   24627620.2654
  21013767.405   -18138104.24049 -14121915.31749  21013770.2204   21013776.1554
  20836871.344      716226.82749    564612.15049  20836874.3564   20836880.1314
  23672603.849    -7865874.072 9  -6095621.015 9  23672606.985    23672612.719
  24206403.157    -5475026.99449  -4255646.28849  24206404.0234   24206411.8944
  22289441.609   -14573043.14749 -11336153.67949  22289444.7224   22289450.9494
 96  2 17 19 43  0.0010000  0  8 27 29 16 19 18 28  2 31
  22656948.682   -12905238.68849 -10046248.49849  22656952.2454   22656958.6244
  22940280.922     9888262.29149   7707684.40149  22940282.9194   22940289.5284
  24618625.251    -5781182.14349  -4488792.86549  24618629.1824   24618637.0324
  21010145.668   -18157134.98749 -14136744.46849  21010148.7834   21010154.3804
  20844775.432      757759.65149    596975.37849  20844778.1964   20844783.7124
  23678528.339    -7834745.334 9  -6071364.866 9  23678530.721    23678536.022
  24190596.528    -5558077.74549  -4320361.08449  24190599.2134   24190607.7524
  22283578.494   -14603863.55849 -11360169.57249  22283580.2314   22283585.8234
 96  2 17 19 43 30.0010000  0  8 27 29 16 19 18 28  2 31
  22644616.767   -12970048.80049 -10096749.86749  22644619.4574   22644625.7694
  22957412.639     9978294.60549   7777839.42349  22957414.6414   22957421.3014
  24609739.769    -5827897.37649  -4525194.34049  24609739.8284   24609746.1554
  21006559.920   -18175982.70949 -14151431.00549  21006562.0924   21006567.9824
  20852774.579      799795.67949    629730.71149  20852777.3144   20852782.7174
  23684552.675    -7803079.747 9  -6046690.404 9  23684556.516    23684561.913
  24174831.471    -5640923.34249  -4384916.05149  24174835.4504   24174842.5774
  22277816.846   -14634129.80549 -11383753.64549  22277820.5714   22277825.8744
 96  2 17 19 44  0.0010000  0  8 27 29 16 19 18 28  2 31
  22632300.428   -13034772.24649 -10147183.71149  22632303.3464   22632308.9674
  22974606.525    10068647.79449   7848244.45949  22974609.0724   22974616.2824
  24600940.482    -5874120.35949  -4561212.21249  24600943.3224   24600953.3444
  21003009.814   -18194637.01649 -14165966.82549  21003012.6264   21003018.3124
  20860867.327      842325.23149    662870.60649  20860870.1704   20860875.8364
  23690681.595    -7770877.880 9  -6021598.066 9  23690683.914    23690689.937
  24159105.478    -5723567.70149  -4449314.20649  24159108.1474   24159115.9614
  22272165.745   -14663834.75749 -11406900.34849  22272167.8204   22272173.5084
 96  2 17 19 44 30.0010000  0  8 27 29 16 19 18 28  2 31
  22620002.057   -13099398.89849 -10197542.12349  22620005.1684   22620011.3414
  22991855.287    10159303.12049   7918884.93049  22991859.6924   22991865.2194
  24592240.075    -5919849.60549  -4596845.37849  24592242.4794   24592249.6124
  20999500.871   -18213074.84649 -14180333.96249  20999503.7124   20999509.5304
  20869051.297      885330.29749    696381.03249  20869053.9374   20869059.5824
  23696912.059    -7738135.217 9  -5996084.319 9  23696915.061    23696920.814
  24143417.954    -5806011.85749  -4513556.35749  24143419.4124   24143426.8024
  22266618.932   -14692979.26549 -11429610.33949  22266622.2744   22266627.5514
 96  2 17 19 45  0.0010000  0  8 27 29 16 19 18 28  2 31
  22607728.701   -13163906.79649 -10247808.00349  22607729.8844   22607735.8114
  23009167.563    10250262.02049   7989761.99349  23009168.4504   23009175.3614
  24583630.428    -5965082.72949  -4632091.95949  24583634.3394   24583641.0054
  20996034.748   -18231289.37249 -14194527.09449  20996037.5264   20996043.2254
  20877324.673      928811.02149    730262.10849  20877327.7304   20877333.5664
  23703246.561    -7704843.065 9  -5970142.408 9  23703250.755    23703255.735
  24127765.458    -5888259.85849  -4577645.64549  24127768.0224   24127775.9234
  22261183.888   -14721551.40249 -11451874.32249  22261185.2964   22261190.3864
 96  2 17 19 45 30.0010000  0  8 27 29 16 19 18 28  2 31
  22595477.383   -13228279.04149 -10297968.18349  22595480.0304   22595486.1294
  23026530.383    10341508.62549   8060863.17549  23026534.0604   23026538.0804
  24575116.874    -6009833.94249  -4666963.01649  24575118.1924   24575125.5284
  20992611.751   -18249276.95849 -14208543.38749  20992614.6294   20992620.3444
  20885688.429      972758.39949    764506.80449  20885690.8374   20885697.0074
  23709685.607    -7671011.942 9  -5943780.507 9  23709688.134    23709693.482
  24112146.470    -5970330.38849  -4641596.66749  24112151.1114   24112158.2704
  22255853.197   -14749549.83249 -11473691.26049  22255856.4474   22255862.4344
 96  2 17 19 46  0.0010000  0  8 27 29 16 19 18 28  2 31
  22583250.801   -13292535.91449 -10348038.45949  22583252.7324   22583258.4904
  23043947.718    10433034.66749   8132182.14549  23043949.4304   23043956.9094
  24566689.971    -6054110.08649  -4701463.88149  24566692.5794   24566701.6564
  20989233.912   -18267025.62849 -14222373.51449  20989237.3894   20989242.9854
  20894141.794     1017182.99749    799123.36049  20894144.5764   20894150.4224
  23716223.716    -7636644.046 9  -5917000.356 9  23716228.442    23716233.464
  24096563.871    -6052228.06449  -4705412.99149  24096566.1284   24096573.7014
  22250634.133   -14776978.90449 -11495064.55749  22250636.8794   22250643.2774
 96  2 17 19 46 30.0010000  0  8 27 29 16 19 18 28  2 31
  22571043.034   -13356684.08549 -10398024.03349  22571045.3654   22571051.3154
  23061420.717    10524858.22549   8203732.93549  23061423.7734   23061428.6494
  24558354.218    -6097907.36349  -4735591.62649  24558359.2904   24558366.7334
  20985900.543   -18284545.19349 -14236025.12349  20985903.4544   20985909.0944
  20902691.315     1062109.79649    834131.24249  20902693.9004   20902699.4624
  23722869.292    -7601730.956 9  -5889795.373 9  23722871.901    23722877.682
  24081015.299    -6133932.62149  -4769078.84849  24081018.2134   24081025.4424
  22245524.278   -14803836.59049 -11515992.61449  22245526.7044   22245531.5704
 96  2 17 19 47  0.0010000  0  8 27 29 16 19 18 28  2 31
  22558857.141   -13420722.91949 -10447924.40749  22558859.2624   22558865.3884
  23078951.110    10616986.91949   8275521.48749  23078954.8124   23078961.7114
  24550111.259    -6141235.23649  -4769353.59849  24550113.0324   24550121.3104
  20982605.297   -18301863.22449 -14249519.68749  20982607.9414   20982613.5734
  20911342.267     1107567.78449    869553.03749  20911344.6744   20911350.0944
  23729618.323    -7566275.474 9  -5862167.745 9  23729619.080    23729624.171
  24065508.099    -6215435.21449  -4832587.32749  24065509.1514   24065516.1884
  22240521.788   -14830124.42649 -11536476.62849  22240524.0514   22240529.0764
 96  2 17 19 47 30.0010000  0  8 27 29 16 19 18 28  2 31
  22546686.813   -13484670.69349 -10497753.81649  22546690.1644   22546696.5914
  23096538.849    10709404.42549   8347535.09249  23096541.5124   23096547.9544
  24541954.439    -6184093.78149  -4802749.84049  24541957.6954   24541964.2744
  20979346.331   -18318987.88549 -14262863.57249  20979349.2834   20979355.0994
  20920089.845     1153541.98149    905377.07549  20920093.1834   20920098.6004
  23736464.929    -7530285.241 9  -5834123.430 9  23736467.746    23736473.087
  24050036.443    -6296728.35349  -4895932.61449  24050039.3904   24050046.0334
  22235625.038   -14855856.94049 -11556527.93349  22235627.1074   22235632.8024
 96  2 17 19 48  0.0010000  0  8 27 29 16 19 18 28  2 31
  22534532.910   -13548542.45549 -10547524.00049  22534535.9874   22534542.0684
  23114178.987    10802105.95049   8419770.00949  23114182.5374   23114187.5244
  24533894.068    -6226469.14149  -4835769.56749  24533893.0974   24533900.6934
  20976120.964   -18335937.21349 -14276070.83849  20976124.0754   20976129.6614
  20928935.561     1200023.36249    941596.31849  20928938.1514   20928943.8824
  23743416.772    -7493763.760 9  -5805665.161 9  23743417.471    23743422.782
  24034608.040    -6377804.89849  -4959109.11249  24034610.8274   24034617.9804
  22230833.324   -14881044.73449 -11576154.77549  22230834.1114   22230839.6214
 96  2 17 19 48 30.0010000  0  8 27 29 16 19 18 28  2 31
  22522396.799   -13612313.37849 -10597215.62349  22522400.9124   22522406.4834
  23131873.228    10895092.06449   8492226.67249  23131876.2514   23131882.8624
  24525923.798    -6268334.82049  -4868392.20449  24525926.8174   24525936.0094
  20972931.693   -18352698.27849 -14289131.40749  20972934.3104   20972939.9744
  20937876.799     1247012.11049    978210.91549  20937879.6464   20937885.4224
  23750467.196    -7456704.410 9  -5776787.776 9  23750469.944    23750475.623
  24019221.928    -6458656.38849  -5022110.24549  24019225.2154   24019232.4164
  22226144.540   -14905680.64549 -11595351.57749  22226146.4314   22226151.8634
 96  2 17 19 49  0.0010000  0  8 27 29 16 19 18 28  2 31
  22510279.873   -13675993.01249 -10646836.10149  22510283.0474   22510289.0274
  23149618.167    10988340.74149   8564887.95049  23149620.8664   23149626.6944
  24518052.964    -6309685.28749  -4900613.32749  24518058.4134   24518067.8334
  20969779.347   -18369262.62649 -14302038.68849  20969782.3984   20969788.0994
  20946912.057     1294490.14449   1015206.77249  20946914.5164   20946920.2714
  23757618.842    -7419116.958 9  -5747498.873 9  23757622.384    23757628.262
  24003877.266    -6539299.46049  -5084948.95849  24003879.5374   24003886.3964
  22221561.175   -14929762.09849 -11614116.34049  22221563.2284   22221569.1694
 96  2 17 19 49 30.0010000  0  8 27 29 16 19 18 28  2 31
  22498178.093   -13739590.19249 -10696392.33849  22498181.0224   22498186.6364
  23167411.850    11081851.85649   8637753.69549  23167415.8724   23167422.2634
  24510284.548    -6350517.83949  -4932430.90749  24510288.5584   24510294.2304
  20966668.553   -18385608.31349 -14314775.58849  20966671.7774   20966677.5594
  20956035.297     1342434.82549   1052566.25449  20956038.3434   20956043.6604
  23764872.135    -7381001.451 9  -5717798.488 9  23764875.591    23764880.860
  23988569.693    -6619740.34949  -5147630.12749  23988571.9644   23988579.8474
  22217086.998   -14953281.78249 -11632443.35749  22217087.8394   22217093.4064
 96  2 17 19 50  0.0010000  0  8 27 29 16 19 18 28  2 31
  22486095.241   -13803082.06749 -10745866.51449  22486098.3974   22486104.5854
  23185258.048    11175633.92749   8710830.59249  23185261.3714   23185267.4244
  24502613.022    -6390838.45249  -4963849.57749  24502616.1664   24502622.5654
  20963602.342   -18401719.27749 -14327329.58849  20963605.7674   20963611.4804
  20965251.200     1390864.23149   1090303.44149  20965254.0324   20965259.6164
  23772228.960    -7342350.639 9  -5687680.976 9  23772230.568    23772235.723
  23973297.966    -6699984.66049  -5210158.11349  23973301.4034   23973308.7264
  22212720.983   -14976216.77449 -11650314.78349  22212723.7924   22212729.1294
 96  2 17 19 50 30.0010000  0  8 27 29 16 19 18 28  2 31
  22474033.759   -13866467.02549 -10795257.37849  22474036.8474   22474042.7894
  23203154.249    11269679.83949   8784113.06349  23203158.2364   23203165.2714
  24495037.343    -6430656.38049  -4994876.50949  24495039.9534   24495045.6364
  20960585.637   -18417579.19749 -14339687.96649  20960587.7764   20960593.4754
  20974559.221     1439779.80649   1128419.46449  20974562.2634   20974567.8684
  23779685.874    -7303163.035 9  -5657145.194 9  23779687.564    23779693.366
  23958064.829    -6780037.84849  -5272537.17349  23958068.1624   23958074.9794
  22208472.143   -14998544.60749 -11667713.08749  22208474.7714   22208480.8964
 96  2 17 19 51  0.0010000  0  8 27 29 16 19 18 28  2 31
  22461993.293   -13929747.24149 -10844566.63149  22461995.3544   22462000.7064
  23221098.070    11363975.41649   8857590.09149  23221101.3844   23221108.7154
  24487550.331    -6469992.44249  -5025527.99149  24487553.6424   24487560.9234
  20957609.022   -18433216.36649 -14351872.77549  20957612.0124   20957618.1114
  20983959.271     1489173.31949   1166907.90449  20983961.3574   20983967.2574
  23787246.049    -7263449.225 9  -5626199.385 9  23787245.156    23787250.148
  23942868.417    -6859910.00549  -5334775.17249  23942869.3094   23942876.0534
  22204339.441   -15020263.74249 -11684637.08649  22204341.6414   22204347.0044
 96  2 17 19 51 30.0010000  0  8 27 29 16 19 18 28  2 31
  22449976.688   -13992893.33649 -10893771.37149  22449978.6944   22449984.6184
  23239090.398    11458516.66149   8931258.54949  23239093.0894   23239098.9884
  24480157.720    -6508850.14549  -5055806.71749  24480159.6954   24480167.3024
  20954674.884   -18448636.84049 -14363888.73449  20954677.7764   20954683.5924
  20993449.420     1539046.65949   1205770.23549  20993452.3024   20993457.8044
  23794900.392    -7223209.605 9  -5594843.846 9  23794902.393    23794908.170
  23927704.251    -6939594.36249  -5396866.83149  23927706.2344   23927712.3854
  22200320.867   -15041388.94749 -11701098.28349  22200322.0494   22200327.4604
 96  2 17 19 52  0.0010000  0  8 27 29 16 19 18 28  2 31
  22437985.362   -14055898.32049 -10942866.14849  22437989.3164   22437995.4924
  23257126.938    11553298.46549   9005114.43049  23257129.2824   23257135.8824
  24472854.842    -6547223.98549  -5085708.39049  24472858.4774   24472863.0244
  20951780.471   -18463849.14949 -14375742.48249  20951782.9314   20951788.4784
  21003032.178     1589403.86349   1245009.60549  21003034.8734   21003040.1424
  23802658.189    -7182446.990 9  -5563080.774 9  23802659.311    23802664.617
  23912574.934    -7019093.86149  -5458814.42949  23912577.7294   23912584.4364
  22196410.073   -15061927.73449 -11717102.52449  22196413.4584   22196419.0134
 96  2 17 19 52 30.0010000  0  8 27 29 16 19 18 28  2 31
  22426023.098   -14118772.16049 -10991858.74949  22426024.9474   22426030.9994
  23275210.769    11648333.40449   9079167.59149  23275212.9014   23275220.6714
  24465647.464    -6585093.20249  -5115216.85749  24465649.6884   24465657.3104
  20948923.953   -18478861.27549 -14387440.24249  20948926.3644   20948931.9694
  21012705.827     1640241.72449   1284623.51149  21012709.0194   21012714.4034
  23810511.308    -7141160.674 9  -5530909.627 9  23810515.588    23810521.098
  23897484.939    -7098394.09449  -5520606.77649  23897486.5064   23897494.7154
  22192613.203   -15081888.27349 -11732656.18849  22192615.1364   22192620.3484
 96  2 17 19 53  0.0010000  0  8 27 29 16 19 18 28  2 31
  22414082.471   -14181516.58049 -11040750.49749  22414084.7544   22414090.9524
  23293344.476    11743633.64849   9153427.47449  23293349.5334   23293355.5114
  24458540.574    -6622451.57249  -5144327.28049  24458543.4234   24458551.3774
  20946103.971   -18493677.55049 -14398985.39749  20946106.8444   20946112.5714
  21022472.054     1691561.52649   1324612.95549  21022474.7524   21022480.4784
  23818472.523    -7099351.624 9  -5498331.148 9  23818471.661    23818477.465
  23882434.784    -7177489.55949  -5582239.56549  23882435.6364   23882442.6694
  22188919.468   -15101286.61449 -11747771.76649  22188922.6994   22188929.5044
 96  2 17 19 53 30.0010000  0  8 27 29 16 19 18 28  2 31
  22402163.463   -14244147.70749 -11089553.96549  22402166.6104   22402172.4104
  23311535.912    11839216.62049   9227907.64549  23311538.3004   23311544.1924
  24451525.958    -6659295.87649  -5173037.10149  24451528.1984   24451538.1274
  20943327.601   -18508268.56449 -14410355.02149  20943330.2754   20943336.1404
  21032330.582     1743366.81149   1364980.69949  21032332.9504   21032338.5984
  23826526.056    -7057013.678 9  -5465340.558 9  23826528.593    23826533.705
  23867423.262    -7256367.07749  -5643702.52549  23867426.4244   23867433.1824
  22185338.286   -15120117.83549 -11762445.43049  22185340.1174   22185345.5014
 96  2 17 19 54  0.0010000  0  8 27 29 16 19 18 28  2 31
  22390260.905   -14306699.79749 -11138295.84649  22390263.5194   22390269.2814
  23329778.154    11935084.67749   9302609.96149  23329781.2704   23329787.6214
  24444613.616    -6695626.31649  -5201346.52149  24444616.6004   24444623.6744
  20940594.757   -18522629.76049 -14421545.56449  20940597.3004   20940603.1914
  21042279.932     1795653.94649   1405723.91149  21042283.0014   21042288.7844
  23834682.714    -7014152.067 9  -5431941.917 9  23834684.789    23834689.982
  23852454.045    -7335026.52749  -5704995.55849  23852457.2124   23852464.6884
  22181863.746   -15138367.56749 -11776665.97749  22181867.3194   22181873.0224
 96  2 17 19 54 30.0010000  0  8 27 29 16 19 18 28  2 31
  22378371.401   -14369174.61149 -11186977.50549  22378374.6174   22378380.6634
  23348073.800    12031228.64749   9377527.28749  23348076.5994   23348082.7484
  24437801.437    -6731438.01449  -5229251.74949  24437803.2224   24437809.1284
  20937908.046   -18536746.71349 -14432545.78749  20937911.2264   20937916.9154
  21052323.324     1848431.89449   1446849.57249  21052325.9794   21052331.7544
  23842937.590    -6970767.647 9  -5398135.891 9  23842940.756    23842946.041
  23837531.109    -7413455.13249  -5766108.72449  23837533.6464   23837540.2774
  22178504.458   -15156026.57749 -11790426.22949  22178506.6234   22178512.5364
 96  2 17 19 55  0.0010000  0  8 27 29 16 19 18 28  2 31
  22366500.972   -14431560.31549 -11235589.73649  22366503.4974   22366509.1404
  23366418.348    12127634.31349   9452648.53849  23366422.6154   23366428.9704
  24431082.134    -6766739.53049  -5256759.41249  24431083.6834   24431092.7164
  20935268.961   -18550612.17949 -14443350.04649  20935272.6374   20935278.4334
  21062461.996     1901709.17149   1488364.32049  21062464.5924   21062470.3694
  23851292.475    -6926855.997 9  -5363919.046 9  23851296.290    23851301.923
  23822651.453    -7491644.55649  -5827035.52649  23822654.3004   23822661.1514
  22175257.988   -15173091.40049 -11803723.46449  22175259.6114   22175264.7064
 96  2 17 19 55 30.0010000  0  8 27 29 16 19 18 28  2 31
  22354645.849   -14493849.72549 -11284126.92849  22354650.0854   22354656.0534
  23384811.071    12224283.40049   9527959.47849  23384813.1244   23384819.0264
  24424459.623    -6801526.87849  -5283866.39349  24424462.4044   24424473.8014
  20932679.673   -18564222.75549 -14453955.68949  20932682.6584   20932688.0874
  21072694.338     1955483.04249   1530266.02449  21072697.2634   21072703.1224
  23859750.532    -6882417.708 9  -5329291.834 9  23859753.206    23859758.364
  23807817.657    -7569589.58949  -5887771.88949  23807821.1804   23807828.5784
  22172121.821   -15189560.73449 -11816556.68449  22172125.2354   22172131.1034
 96  2 17 19 56  0.0010000  0  8 27 29 16 19 18 28  2 31
  22342814.909   -14556031.44249 -11332580.19749  22342816.8884   22342823.2254
  23403246.463    12321163.45349   9603450.39349  23403250.0694   23403256.3564
  24417940.338    -6835798.95049  -5310571.90249  24417941.2414   24417950.4284
  20930133.669   -18577600.23649 -14464379.70249  20930136.6264   20930142.3734
  21083021.213     2009749.40549   1572551.48449  21083023.9964   21083029.7794
  23868306.360    -6837460.143 9  -5294259.978 9  23868308.020    23868313.584
  23793032.974    -7647292.73149  -5948319.78149  23793034.9754   23793042.4084
  22169100.270   -15205440.46849 -11828930.47949  22169103.6734   22169108.6664
 96  2 17 19 56 30.0010000  0  8 27 29 16 19 18 28  2 31
  22331006.214   -14618081.54549 -11380930.91049  22331009.1464   22331015.3824
  23421726.837    12418275.41149   9679121.98649  23421729.1194   23421736.4314
  24411520.991    -6869551.32049  -5336872.48849  24411522.0124   24411528.7354
  20927629.137   -18590761.31249 -14474635.08049  20927632.0524   20927637.9474
  21093440.107     2064501.30549   1615215.28949  21093443.1284   21093448.7814
  23876959.562    -6791980.373 9  -5258821.239 9  23876962.340    23876968.182
  23778292.514    -7724755.65149  -6008680.46549  23778293.9054   23778301.5004
  22166191.457   -15220736.98649 -11840849.81849  22166192.9894   22166198.7914
 96  2 17 19 57  0.0010000  0  8 27 29 16 19 18 28  2 31
  22319224.409   -14679996.13149 -11429176.02949  22319227.0204   22319233.4194
  23440252.735    12515629.95549   9754982.61749  23440255.2584   23440261.2344
  24405195.628    -6902784.57649  -5362768.50949  24405195.2904   24405203.6474
  20925161.595   -18603730.05849 -14484740.59649  20925164.5344   20925170.5514
  21103948.263     2119722.57449   1658244.83349  21103951.1594   21103956.9414
  23885715.821    -6745977.292 9  -5222974.702 9  23885716.513    23885722.739
  23763595.257    -7801985.05949  -6068859.19649  23763598.2194   23763605.0834
  22163388.767   -15235450.27749 -11852314.69749  22163392.4744   22163398.9504
 96  2 17 19 57 30.0010000  0  8 27 29 16 19 18 28  2 31
  22307464.367   -14741793.75149 -11477330.00349  22307467.7084   22307473.5354
  23458825.419    12613229.05849   9831033.80749  23458827.3244   23458834.9324
  24398965.153    -6935504.91349  -5388264.85049  24398968.1204   24398973.8044
  20922726.994   -18616524.36149 -14494710.18349  20922730.0124   20922735.4304
  21114543.219     2175396.86249   1701627.37749  21114545.4714   21114551.1444
  23894564.285    -6699466.067 9  -5186732.227 9  23894567.012    23894573.700
  23748938.883    -7879008.00449  -6128877.05049  23748941.3044   23748947.6794
  22160704.874   -15249573.33049 -11863319.66949  22160705.8104   22160710.6254
 96  2 17 19 58  0.0010000  0  8 27 29 16 19 18 28  2 31
  22295729.870   -14803464.03549 -11525384.75649  22295732.2954   22295737.8164
  23477448.945    12711104.93349   9907300.66649  23477453.0844   23477459.2774
  24392843.515    -6967701.32549  -5413353.00349  24392842.2354   24392851.3704
  20920326.802   -18629137.82949 -14504538.85549  20920329.6224   20920335.3294
  21125227.201     2231541.85449   1745376.70949  21125229.6134   21125235.5344
  23903514.274    -6652437.094 9  -5150086.301 9  23903516.574    23903522.567
  23734319.599    -7955828.58049  -6188737.20349  23734322.3744   23734329.6644
  22158130.442   -15263083.28049 -11873846.88949  22158134.7014   22158140.2624
 96  2 17 19 58 30.0010000  0  8 27 29 16 19 18 28  2 31
  22284015.472   -14865021.50949 -11573351.60249  22284018.0454   22284024.3784
  23496124.763    12809237.37349   9983767.53549  23496128.6094   23496134.0424
  24386812.001    -6999388.77149  -5438044.50549  24386811.7934   24386822.2984
  20917961.340   -18641569.59649 -14514225.94649  20917963.9824   20917969.7714
  21135999.593     2288150.78449   1789487.54849  21136002.0714   21136007.7654
  23912558.354    -6604904.683 9  -5113048.096 9  23912561.828    23912567.427
  23719737.407    -8032473.03149  -6248460.11749  23719737.3774   23719744.6804
  22155678.246   -15275982.96449 -11883898.58649  22155680.0274   22155685.3954
 96  2 17 19 59  0.0010000  0  8 27 29 16 19 18 28  2 31
  22272322.792   -14926463.62549 -11621228.55449  22272325.8204   22272331.6604
  23514849.062    12907640.26149  10060445.00949  23514852.5654   23514858.9804
  24380873.837    -7030559.88449  -5462333.68149  24380881.4774   24380887.9894
  20915636.942   -18653783.14749 -14523742.99749  20915639.6514   20915645.5794
  21146865.091     2345251.92149   1833981.92449  21146868.2614   21146873.7014
  23921702.755    -6556855.707 9  -5075607.345 9  23921705.415    23921711.282
  23705187.804    -8108923.43349  -6308031.82449  23705189.8434   23705196.5154
  22153342.952   -15288245.12449 -11893453.51449  22153346.3874   22153351.9224
 96  2 17 19 59 30.0010000  0  8 27 29 16 19 18 28  2 31
  22260649.345   -14987807.17449 -11669028.70449  22260652.8644   22260658.8094
  23533621.562    13006293.15549  10137317.38749  23533623.9584   23533631.5414
  24375045.482    -7061233.57849  -5486235.30149  24375045.2394   24375050.4604
  20913357.249   -18665764.57849 -14533079.17449  20913359.4654   20913365.3294
  21157823.511     2402837.21949   1878853.57349  21157826.1674   21157831.9114
  23930942.680    -6508309.356 9  -5037779.027 9  23930943.533    23930949.289
  23690674.710    -8185190.75349  -6367460.86249  23690676.2464   23690683.4414
  22151127.598   -15299889.33149 -11902526.92449  22151130.9974   22151135.9664
 96  2 17 20  0  0.0010000  0  8 27 29 16 19 18 28  2 31
  22248996.288   -15049052.91049 -11716752.63649  22248998.1414   22249004.0774
  23552439.696    13105168.69649  10214363.22749  23552441.5744   23552446.2354
  24369296.887    -7091420.44649  -5509757.53649  24369300.5174   24369307.5374
  20911121.285   -18677509.31449 -14542230.91249  20911124.7384   20911130.7184
  21168869.370     2460885.14349   1924085.70849  21168872.2944   21168878.1214
  23940268.691    -6459276.685 9  -4999571.775 9  23940274.019    23940280.448
  23676196.929    -8261263.80249  -6426738.50449  23676200.4334   23676207.0874
  22149027.286   -15310934.55349 -11911133.60249  22149028.3554   22149034.4394
 96  2 17 20  0 30.0010000  0  8 27 29 16 19 18 28  2 31
  22237361.452   -15110186.74149 -11764389.36849  22237364.6444   22237370.8094
  23571293.243    13204260.28249  10291577.34449  23571297.8374   23571305.1634
  24363653.761    -7121096.25849  -5532881.52449  24363654.7474   24363660.8904
  20908934.679   -18689002.86349 -14551186.92649  20908937.6954   20908943.3144
  21180003.020     2519390.62949   1969674.38649  21180005.5794   21180011.3394
  23949697.263    -6409742.045 9  -4960973.383 9  23949699.986    23949706.375
  23661763.800    -8337102.22549  -6485833.33049  23661768.0424   23661775.4514
  22147041.225   -15321366.41049 -11919262.33049  22147043.7084   22147049.1074
 96  2 17 20  1  0.0010000  0  8 27 29 16 19 18 28  2 31
  22225752.317   -15171201.45549 -11811933.28449  22225754.0334   22225759.9494
  23590194.395    13303578.14049  10368967.83449  23590198.0454   23590201.8464
  24358105.618    -7150243.33549  -5555593.52849  24358106.4474   24358114.7234
  20906796.887   -18700236.64649 -14559940.51949  20906800.0204   20906805.8054
  21191222.673     2578351.79649   2015618.14049  21191225.5554   21191231.2114
  23959225.301    -6359694.136 9  -4921975.011 9  23959224.014    23959230.103
  23647383.584    -8412680.36549  -6544725.33949  23647385.8264   23647393.1004
  22145172.598   -15331191.80849 -11926918.49449  22145173.4024   22145179.7304
 96  2 17 20  1 30.0010000  0  8 27 29 16 19 18 28  2 31
  22214165.576   -15232086.57549 -11859376.21949  22214168.0134   22214173.5934
  23609136.329    13403106.46949  10446522.35749  23609137.0514   23609144.2224
  24352659.445    -7178850.52049  -5577884.82449  24352662.1674   24352671.0504
  20904706.282   -18711223.65449 -14568501.82949  20904709.2344   20904714.7734
  21202529.388     2637767.32749   2061915.94049  21202531.7174   21202537.7764
  23968839.713    -6309136.327 9  -4882579.356 9  23968844.385    23968850.744
  23633050.960    -8488004.31449  -6603419.29249  23633052.3074   23633059.5434
  22143413.710   -15340428.02349 -11934115.55349  22143416.1954   22143421.7114
 96  2 17 20  2  0.0010000  0  8 27 29 16 19 18 28  2 31
  22202605.596   -15292834.93749 -11906712.59449  22202607.8034   22202613.7894
  23628113.219    13502839.28249  10524236.15649  23628117.2784   23628120.8554
  24347320.873    -7206911.73549  -5599750.73449  24347322.7564   24347330.9224
  20902658.578   -18721985.70049 -14576887.83749  20902661.5534   20902667.0914
  21213923.148     2697642.41949   2108571.84649  21213925.9014   21213931.6894
  23978559.593    -6258072.322 9  -4842789.232 9  23978561.093    23978566.591
  23618763.353    -8563082.44149  -6661921.67449  23618765.3084   23618773.2254
  22141768.708   -15349078.64749 -11940856.30749  22141770.4684   22141775.7964
 96  2 17 20  2 30.0010000  0  8 27 29 16 19 18 28  2 31
  22191070.232   -15353453.20349 -11953947.59349  22191072.5594   22191078.4194
  23647130.638    13602781.61749  10602113.26349  23647134.1504   23647141.3134
  24342085.329    -7234431.40949  -5621194.63249  24342085.8064   24342094.2784
  20900650.756   -18732535.75249 -14585108.66049  20900653.6234   20900659.4604
  21225406.100     2757986.37149   2155593.09549  21225409.0604   21225414.6964
  23988375.013    -6206512.122 9  -4802612.469 9  23988373.513    23988378.964
  23604517.184    -8637941.00649  -6720252.98649  23604520.8374   23604527.0214
  22140230.276   -15357156.46349 -11947150.71349  22140233.1124   22140238.7204
 96  2 17 20  3  0.0010000  0  8 27 29 16 19 18 28  2 31
  22179562.090   -15413930.50149 -12001072.75049  22179564.3244   22179570.1094
  23666192.302    13702943.40449  10680161.36249  23666194.4144   23666200.5174
  24336944.126    -7261427.70949  -5642230.69049  24336947.6964   24336956.3054
  20898683.238   -18742872.14149 -14593162.99349  20898686.3374   20898692.3764
  21236982.257     2818821.94749   2202997.42749  21236985.2044   21236991.3404
  23998281.415    -6154460.133 9  -4762052.504 9  23998279.143    23998284.496
  23590311.992    -8712597.37149  -6778426.75549  23590314.2794   23590320.7314
  22138801.985   -15364663.83449 -11953000.60549  22138804.6264   22138810.0214
 96  2 17 20  3 30.0010000  0  8 27 29 16 19 18 28  2 31
  22168080.606   -15474264.28449 -12048086.07549  22168082.9244   22168088.7764
  23685295.328    13803337.43049  10758390.39549  23685299.2844   23685304.9554
  24331909.985    -7287903.85049  -5662861.46949  24331910.9014   24331918.0384
  20896758.198   -18752992.56649 -14601049.04149  20896760.8424   20896766.6864
  21248655.335     2880158.67849   2250792.26949  21248657.6444   21248663.3374
  24008276.327    -6101913.799 9  -4721107.348 9  24008277.914    24008284.302
  23576142.663    -8787051.39749  -6836442.85649  23576145.6704   23576152.4384
  22137489.838   -15371562.62149 -11958376.27549  22137492.1364   22137497.4044
 96  2 17 20  4  0.0010000  0  8 27 29 16 19 18 28  2 31
  22156620.318   -15534480.78649 -12095008.02249  22156624.1994   22156630.0634
  23704447.817    13903980.39449  10836813.45949  23704450.3224   23704456.2474
  24326964.732    -7313874.43849  -5683098.26849  24326967.5304   24326974.7874
  20894873.344   -18762897.34649 -14608767.05749  20894875.9004   20894881.7114
  21260416.422     2941967.45949   2298954.93949  21260419.2074   21260425.0364
  24018370.042    -6048882.269 9  -4679784.095 9  24018369.443    24018375.491
  23562012.296    -8861302.55649  -6894300.87849  23562016.3074   23562022.9584
  22136293.474   -15377839.81749 -11963267.58149  22136297.2674   22136302.4584
 96  2 17 20  4 30.0010000  0  8 27 29 16 19 18 28  2 31
  22145186.047   -15594576.21949 -12141835.62549  22145188.7184   22145194.2914
  23723648.004    14004881.54349  10915437.64349  23723651.6864   23723657.7084
  24322124.367    -7339328.51049  -5702932.63849  24322124.6104   24322131.1704
  20893033.078   -18772567.45849 -14616302.21549  20893035.5734   20893041.4084
  21272267.559     3004242.43749   2347480.87649  21272269.8764   21272275.7344
  24028554.018    -5995351.579 9  -4638071.922 9  24028556.388    24028562.072
  23547927.454    -8935328.92549  -6951983.74849  23547929.4254   23547936.1524
  22135221.999   -15383476.78549 -11967660.01549  22135224.3234   22135229.6474
 96  2 17 20  5  0.0010000  0  8 27 29 16 19 18 28  2 31
  22133765.730   -15654583.65049 -12188594.65449  22133769.2634   22133775.2104
  23742891.563    14106010.59449  10994239.45749  23742895.2864   23742903.1374
  24317369.629    -7364282.97849  -5722377.65649  24317375.7714   24317382.7214
  20891233.308   -18782022.01449 -14623669.40949  20891236.6604   20891242.2194
  21284201.267     3066955.26349   2396347.99849  21284203.7374   21284209.5024
  24038830.872    -5941339.207 9  -4595984.389 9  24038834.957    24038840.212
  23533882.301    -9009135.07049  -7009495.03149  23533884.6384   23533890.9914
  22134268.381   -15388488.57249 -11971565.28349  22134270.6414   22134275.9764
 96  2 17 20  5 30.0010000  0  8 27 29 16 19 18 28  2 31
  22122364.228   -15714506.33849 -12235287.65549  22122366.5514   22122372.3644
  23762180.907    14207372.51649  11073222.71249  23762185.2244   23762190.9444
  24312725.284    -7388711.57049  -5741412.91849  24312727.4174   24312733.9144
  20889478.526   -18791244.99349 -14630856.14949  20889481.6224   20889487.4044
  21296215.376     3130088.64449   2445542.82549  21296217.6344   21296223.4494
  24049200.747    -5886836.553 9  -4553514.812 9  24049205.643    24049211.294
  23519881.291    -9082705.01249  -7066822.25749  23519884.7434   23519891.6344
  22133433.468   -15392870.75849 -11974979.94749  22133436.4884   22133442.4504
 96  2 17 20  6  0.0010000  0  8 27 29 16 19 18 28  2 31
  22110978.803   -15774336.67049 -12281908.68049  22110981.0304   22110987.1764
  23781512.046    14308947.41149  11152371.88649  23781512.9804   23781519.1634
  24308179.004    -7412616.63349  -5760040.23749  24308178.3554   24308185.7734
  20887765.963   -18800246.88649 -14637870.61349  20887768.7924   20887774.2414
  21308307.441     3193634.30349   2495058.90749  21308310.0074   21308315.9434
  24059662.806    -5831851.486 9  -4510669.320 9  24059669.560    24059675.025
  23505926.798    -9156035.83949  -7123963.15449  23505930.3534   23505937.2724
  22132712.749   -15396660.38149 -11977932.88449  22132715.9554   22132721.1374
 96  2 17 20  6 30.0010000  0  8 27 29 16 19 18 28  2 31
  22099616.872   -15834043.41149 -12328433.40649  22099619.4284   22099625.3894
  23800877.594    14410725.30349  11231679.28349  23800880.9634   23800887.7804
  24303725.594    -7435989.86049  -5778253.10449  24303728.6564   24303737.0124
  20886097.284   -18809017.65049 -14644704.97949  20886099.6784   20886105.5624
  21320483.386     3257619.34949   2544917.36249  21320486.1114   21320491.5664
  24070222.476    -5776373.011 9  -4467439.365 9  24070226.761    24070232.610
  23492021.823    -9229114.57049  -7180907.61549  23492023.8954   23492031.0214
  22132105.093   -15399853.09949 -11980420.70149  22132107.8494   22132113.4334
 96  2 17 20  7  0.0010000  0  8 27 29 16 19 18 28  2 31
  22088276.784   -15893630.56849 -12374864.94349  22088280.1914   22088286.1694
  23820285.144    14512704.65449  11311143.64349  23820287.6614   23820293.9324
  24299376.301    -7458847.69949  -5796064.42949  24299378.8044   24299387.8974
  20884470.326   -18817564.11549 -14651364.56449  20884473.3174   20884479.2614
  21332743.912     3322047.31349   2595120.94949  21332746.3324   21332752.2354
  24080872.802    -5720411.797 9  -4423833.247 9  24080875.532    24080882.089
  23478160.584    -9301949.07049  -7237661.76249  23478163.7984   23478171.1224
  22131611.672   -15402448.94749 -11982443.42849  22131614.2864   22131619.6274
 96  2 17 20  7 30.0010000  0  8 27 29 16 19 18 28  2 31
  22076963.251   -15953086.80449 -12421194.46749  22076966.3294   22076972.1524
  23839727.234    14614881.50149  11390761.95249  23839731.3374   23839738.2494
  24295126.080    -7481191.69049  -5813475.33349  24295129.1034   24295136.1974
  20882887.145   -18825887.95849 -14657850.67749  20882889.3824   20882895.0724
  21345088.521     3386921.09349   2645671.92749  21345091.1274   21345097.2704
  24091613.283    -5663972.769 9  -4379854.791 9  24091615.986    24091622.223
  23464346.812    -9374543.85249  -7294229.12049  23464349.4834   23464356.4024
  22131232.026   -15404449.30349 -11984002.12849  22131233.3574   22131238.9224
 96  2 17 20  8  0.0010000  0  8 27 29 16 19 18 28  2 31
  22065675.181   -16012409.06649 -12467419.59549  22065677.3484   22065683.2494
  23859206.376    14717246.42449  11470526.69549  23859211.0104   23859217.2644
  24290970.600    -7503033.78849  -5830495.14449  24290972.3134   24290980.6394
  20881342.390   -18834003.17449 -14664174.22049  20881345.0374   20881350.7174
  21357522.178     3452257.37149   2696583.28849  21357524.3794   21357530.2794
  24102443.433    -5607062.058 9  -4335508.810 9  24102445.150    24102452.124
  23450577.542    -9446898.98949  -7350609.75249  23450581.3244   23450587.9034
  22130963.699   -15405850.59249 -11985094.03549  22130966.9684   22130972.8014
 96  2 17 20  8 30.0010000  0  8 27 29 16 19 18 28  2 31
  22054411.684   -16071595.39249 -12513538.80049  22054414.6554   22054420.4074
  23878723.160    14819806.63949  11550443.65549  23878726.8694   23878733.1264
  24286908.505    -7524357.65549  -5847111.11749  24286912.8334   24286920.8664
  20879840.255   -18841896.34049 -14670324.73849  20879843.1374   20879848.6504
  21370042.949     3518055.82949   2747854.78949  21370045.4624   21370051.2284
  24113361.741    -5549673.137 9  -4290790.185 9  24113365.698    24113372.264
  23436855.410    -9519018.48549  -7406806.75449  23436856.8854   23436863.9184
  22130814.305   -15406634.29249 -11985704.71449  22130817.4174   22130822.8984
 96  2 17 20  9  0.0010000  0  8 27 29 16 19 18 28  2 31
  22043175.559   -16130644.26949 -12559550.89949  22043178.0104   22043184.0194
  23898276.816    14922563.79149  11630514.14449  23898281.2054   23898288.3614
  24282955.193    -7545142.79949  -5863307.35149  24282959.0874   24282965.5244
  20878382.273   -18849559.61249 -14676296.12149  20878384.6194   20878390.2364
  21382649.508     3584306.66849   2799478.79749  21382652.3584   21382658.2304
  24124375.803    -5491803.007 9  -4245696.593 9  24124378.392    24124384.722
  23423174.697    -9590910.36649  -7462826.39749  23423176.3724   23423183.7174
  22130781.769   -15406802.98749 -11985836.16349  22130785.2984   22130790.6794
 96  2 17 20  9 30.0010000  0  8 27 29 16 19 18 28  2 31
  22031964.756   -16189554.81849 -12605455.21349  22031967.5794   22031973.4634
  23917869.148    15025506.70149  11710729.27549  23917870.8184   23917877.0274
  24279105.189    -7565386.29749  -5879081.51849  24279107.9974   24279113.3804
  20876967.555   -18856993.66249 -14682088.88549  20876970.0654   20876975.6974
  21395338.823     3650988.66949   2851438.77149  21395341.6294   21395347.6814
  24135478.607    -5433458.155 9  -4200233.087 9  24135481.764    24135486.819
  23409536.995    -9662574.60449  -7518668.65249  23409539.0864   23409545.9874
  22130867.449   -15406369.15449 -11985498.12149  22130867.7704   22130873.5274
 96  2 17 20 10  0.0010000  0  8 27 29 16 19 18 28  2 31
  22020782.593   -16248314.29249 -12651241.80549  22020786.0014   22020791.7544
  23937494.979    15128654.91049  11791104.51549  23937498.2904   23937505.8514
  24275357.780    -7585084.41049  -5894430.69549  24275359.4294   24275365.8074
  20875601.055   -18864171.83349 -14687682.26349  20875604.2874   20875609.7144
  21408110.512     3718107.30249   2903738.97949  21408113.8724   21408119.5454
  24146673.180    -5374628.191 9  -4154391.550 9  24146675.897    24146682.144
  23395944.925    -9734006.64449  -7574329.98049  23395946.0724   23395953.1944
  22131064.818   -15405313.97549 -11984675.91349  22131068.9384   22131074.1674
 96  2 17 20 10 30.0010000  0  8 27 29 16 19 18 28  2 31
  22009631.344   -16306922.62049 -12696910.61449  22009633.2814   22009638.9264
  23957164.150    15232011.87249  11871642.33249  23957165.7064   23957175.3794
  24271711.520    -7604237.47949  -5909355.17249  24271713.3074   24271721.8704
  20874287.055   -18871079.70449 -14693065.01549  20874289.7204   20874295.1954
  21420966.877     3785663.02149   2956379.77749  21420969.3884   21420975.3544
  24157959.012    -5315314.546 9  -4108173.158 9  24157962.776    24157969.846
  23382395.048    -9805215.08849  -7629817.05849  23382395.3744   23382402.9264
  22131386.078   -15403635.66349 -11983368.14849  22131388.3194   22131393.4764
 96  2 17 20 11  0.0010000  0  8 27 29 16 19 18 28  2 31
  21998506.210   -16365380.20249 -12742461.96949  21998509.2694   21998514.7854
  23976874.665    15335599.28149  11952359.67949  23976879.5134   23976884.7184
  24268168.782    -7622849.14849  -5923857.73449  24268171.9954   24268180.5034
  20873025.240   -18877712.62349 -14698233.52349  20873027.4034   20873033.1434
  21433908.675     3853675.39949   3009376.40949  21433911.6704   21433917.3094
  24169338.426    -5255513.204 9  -4061574.720 9  24169342.686    24169348.822
  23368888.801    -9876182.74449  -7685116.49749  23368891.1804   23368897.5474
  22131825.402   -15401322.51649 -11981565.71749  22131828.3844   22131833.6084
 96  2 17 20 11 30.0010000  0  8 27 29 16 19 18 28  2 31
  21987408.323   -16423701.31249 -12787906.97549  21987411.0614   21987416.8204
  23996632.597    15439419.85049  12033258.79949  23996636.1374   23996642.3894
  24264724.187    -7640952.92149  -5937964.57549  24264726.5514   24264733.4984
  20871811.476   -18884089.46849 -14703202.49349  20871813.9794   20871819.6364
  21446939.990     3922154.41149   3062736.65449  21446942.6504   21446948.7554
  24180811.693    -5195237.200 9  -4014606.422 9  24180813.541    24180818.803
  23355429.665    -9946905.08349  -7740224.78049  23355433.0364   23355440.0494
  22132387.415   -15398367.78849 -11979263.34949  22132390.6754   22132396.0554
 96  2 17 20 12  0.0010000  0  9 27 29 16 12 19 18 28  2 31
  21976335.359   -16481888.62449 -12833247.73149  21976338.2324   21976343.9094
  24016431.406    15543462.30649  12114330.78449  24016435.1534   24016441.1984
  24261379.616    -7658540.93049  -5951669.55949  24261380.7384   24261386.3714
  24563065.926     -166134.53219   -115019.32619  24563070.079    24563079.382
  20870645.476   -18890213.32649 -14707974.33049  20870648.6544   20870654.2834
  21460064.470     3991125.53849   3116480.36049  21460067.6164   21460073.4864
  24192371.429    -5134484.834 9  -3967266.927 9  24192374.046    24192380.122
  23342017.478   -10017389.14249  -7795147.41149  23342020.2054   23342027.0464
  22133074.353   -15394761.11049 -11976452.97049  22133076.8294   22133082.5314
 96  2 17 20 12 30.0010000  0  9 27 29 16 12 19 18 28  2 31
  21965288.180   -16539943.74949 -12878485.47749  21965290.7264   21965296.6494
  24036269.627    15647711.79449  12195564.06249  24036272.7784   24036278.2224
  24258130.463    -7675602.97849  -5964964.66649  24258134.4994   24258140.7814
  24549582.788     -236998.77519   -170238.14019  24549584.878    24549594.183
  20869522.152   -18896115.70149 -14712573.58149  20869525.3334   20869531.1204
  21473282.359     4060583.14649   3170603.14649  21473285.2154   21473290.8434
  24204018.880    -5073255.575 9  -3919555.829 9  24204025.337    24204030.854
  23328653.048   -10087617.24049  -7849870.56849  23328656.1764   23328663.2134
  22133880.687   -15390522.04249 -11973149.81949  22133883.9014   22133889.1454
 96  2 17 20 13  0.0010000  0  9 27 29 16 12 19 18 28  2 31
  21954262.561   -16597878.68349 -12923629.57149  21954266.1554   21954272.0954
  24056140.560    15752138.63549  12276935.58449  24056144.3474   24056150.1724
  24254983.015    -7692150.59449  -5977858.91549  24254985.5384   24254992.0604
  24536127.265     -307713.645 9   -225340.674 9  24536128.598    24536137.422
  20868437.671   -18901816.46049 -14717015.73449  20868440.4574   20868446.1934
  21486585.886     4130496.33149   3225080.92549  21486588.6894   21486594.6284
  24215761.438    -5011566.102 9  -3871486.113 9  24215764.262    24215771.218
  23315336.522   -10157602.04449  -7904404.15949  23315339.0574   23315345.6554
  22134803.449   -15385672.56149 -11969371.01449  22134806.5094   22134811.7804
 96  2 17 20 13 30.0010000  0  9 27 29 16 12 19 18 28  2 31
  21943269.544   -16655653.00249 -12968648.51949  21943271.9884   21943277.8564
  24076045.767    15856733.38049  12358437.93849  24076048.2744   24076054.6254
  24251938.406    -7708150.10249  -5990326.07749  24251939.8734   24251947.6174
  24522700.628     -378257.524 9   -280309.834 9  24522703.493    24522713.333
  20867398.772   -18907274.94549 -14721269.10349  20867401.9914   20867407.5134
  21499980.164     4200880.86349   3279925.98749  21499983.0654   21499988.8434
  24227590.808    -4949396.406 9  -3823042.218 9  24227595.575    24227600.949
  23302068.498   -10227326.70449  -7958735.01649  23302070.1354   23302077.3414
  22135844.116   -15380202.29549 -11965108.48649  22135847.7844   22135853.0514
 96  2 17 20 14  0.0010000  0  9 27 29 16 12 19 18 28  2 31
  21932302.027   -16713280.30049 -13013552.89549  21932305.4764   21932311.4604
  24095976.099    15961469.56749  12440050.46549  24095978.4634   24095985.2834
  24248998.014    -7723588.38949  -6002355.89749  24249001.6254   24249011.0604
  24509307.066     -448648.724 9   -335160.106 9  24509309.305    24509317.851
  20866405.372   -18912497.97149 -14725338.99849  20866408.0274   20866413.6484
  21513456.185     4271696.73049   3335107.15849  21513458.5814   21513464.3504
  24239513.276    -4886766.670 9  -3774239.826 9  24239513.301    24239519.132
  23288843.891   -10296817.21149  -8012883.43149  23288846.8204   23288853.8504
  22136996.817   -15374151.11949 -11960393.28649  22136999.0664   22137004.8994
 96  2 17 20 14 30.0010000  0  9 27 29 16 12 19 18 28  2 31
  21921368.414   -16770743.82749 -13058329.66149  21921370.8274   21921377.0914
  24115938.289    16066383.21349  12521801.28049  24115942.1504   24115950.2014
  24246166.401    -7738458.28349  -6013942.84949  24246172.7344   24246179.2254
  24495940.674     -518881.222 9   -389886.673 9  24495943.979    24495953.763
  20865460.616   -18917463.98449 -14729208.62549  20865463.0664   20865468.5074
  21527010.985     4342931.11649   3390614.44149  21527014.2354   21527020.2684
  24251518.520    -4823672.393 9  -3725075.502 9  24251519.696    24251525.589
  23275667.321   -10366055.31549  -8066835.17449  23275671.1184   23275677.9454
  22138257.894   -15367520.37149 -11955226.48249  22138260.8994   22138265.8714
 96  2 17 20 15  0.0010000  0  9 27 29 16 12 19 18 28  2 31
  21910464.532   -16828040.25849 -13102976.22049  21910467.7824   21910473.9104
  24135941.900    16171487.12749  12603700.35549  24135944.0184   24135950.7434
  24243448.893    -7752754.91349  -6025083.09849  24243450.8564   24243459.0834
  24482607.323     -588953.787 9   -444488.644 9  24482610.306    24482619.074
  20864569.603   -18922144.46749 -14732855.76449  20864572.5064   20864577.9954
  21540648.711     4414595.16149   3446456.52849  21540651.3014   21540657.4334
  24263611.705    -4760114.275 9  -3675549.698 9  24263614.707    24263619.083
  23262540.112   -10435049.51149  -8120596.86349  23262541.7454   23262548.4914
  22139636.585   -15360282.57249 -11949586.63349  22139638.1584   22139643.4064
 96  2 17 20 15 30.0010000  0  9 27 29 16 12 19 18 28  2 31
  21899590.820   -16885176.28949 -13147497.79749  21899595.0254   21899601.2384
  24155980.142    16276797.15549  12685760.03549  24155983.6704   24155990.5594
  24240839.131    -7766486.39949  -6035782.98549  24240839.6454   24240843.8784
  24469304.671     -658867.132 9   -498966.532 9  24469306.106    24469315.171
  20863731.206   -18926550.84649 -14736289.31549  20863733.9314   20863739.6174
  21554368.228     4486689.88049   3502634.20349  21554370.4514   21554376.6174
  24275794.638    -4696094.871 9  -3625664.476 9  24275796.522    24275802.539
  23249457.719   -10503793.37749  -8174163.48149  23249460.2954   23249467.0974
  22141130.414   -15352434.86249 -11943471.52849  22141131.6734   22141137.1844
 96  2 17 20 16  0.0010000  0  9 27 29 16 12 19 18 28  2 31
  21888750.771   -16942151.09749 -13191893.74449  21888753.1604   21888759.2214
  24176062.540    16382339.33349  12768000.56849  24176067.3724   24176073.0694
  24238327.395    -7779665.66149  -6046052.55149  24238332.0664   24238337.8184
  24456030.082     -728614.469 9   -553315.032 9  24456033.169    24456043.003
  20862940.031   -18930706.14449 -14739527.21449  20862943.1814   20862949.2014
  21568169.086     4559212.09449   3559144.98849  21568170.9774   21568177.1874
  24288064.145    -4631609.106 9  -3575415.877 9  24288068.093    24288073.588
  23236425.515   -10572282.91349  -8227531.93249  23236427.3224   23236434.0654
  22142742.159   -15343955.96749 -11936864.59049  22142745.0354   22142750.2844
 96  2 17 20 16 30.0010000  0  9 27 29 16 12 19 18 28  2 31
  21877934.578   -16998985.25449 -13236180.09549  21877937.9864   21877943.9854
  24196188.515    16488086.83449  12850401.20549  24196190.9484   24196197.5814
  24235919.428    -7792334.12849  -6055924.07749  24235920.8094   24235927.6144
  24442786.169     -798210.047 9   -607545.272 9  24442789.760    24442799.595
  20862191.713   -18934641.62949 -14742593.83749  20862194.4884   20862200.0054
  21582048.787     4632157.84549   3615985.79949  21582052.2554   21582058.2724
  24300420.151    -4566673.073 9  -3524816.385 9  24300425.117    24300430.036
  23223438.073   -10640530.57249  -8280711.91049  23223440.1094   23223446.5864
  22144478.415   -15334840.74049 -11929761.80749  22144479.9734   22144484.8424
 96  2 17 20 17  0.0010000  0  9 27 29 16 12 19 18 28  2 31
  21867144.589   -17055692.00249 -13280367.16349  21867146.9084   21867152.9024
  24216343.097    16594007.60949  12932936.75149  24216346.2144   24216353.1514
  24233601.222    -7804502.31849  -6065405.78649  24233603.5184   24233613.0914
  24429570.926     -867657.836 9   -661660.358 9  24429574.198    24429583.800
  20861481.751   -18938371.76749 -14745500.44349  20861484.5584   20861490.0804
  21596011.621     4705529.65249   3673158.61749  21596014.4484   21596020.3114
  24312864.397    -4501292.524 9  -3473870.527 9  24312866.900    24312872.092
  23210492.611   -10708553.09649  -8333716.45649  23210495.8204   23210502.4514
  22146334.352   -15325086.20749 -11922160.85349  22146335.7734   22146340.8364
 96  2 17 20 17 30.0010000  0  9 27 29 16 12 19 18 28  2 31
  21856380.637   -17112254.07549 -13324441.50349  21856383.6524   21856389.3324
  24236530.945    16700097.77949  13015604.29549  24236534.8424   24236542.5084
  24231385.116    -7816167.98649  -6074495.92449  24231383.9174   24231392.0094
  24416384.506     -936948.655 9   -715653.153 9  24416388.783    24416397.833
  20860811.504   -18941891.00649 -14748242.71949  20860814.9264   20860820.6224
  21610054.462     4779321.84649   3730658.99649  21610056.6204   21610062.8134
  24325391.004    -4435459.956 9  -3422572.453 9  24325393.403    24325399.848
  23197592.027   -10776338.15449  -8386535.97549  23197596.7354   23197603.4754
  22148311.202   -15314690.36549 -11914060.19049  22148314.0054   22148319.2234
 96  2 17 20 18  0.0010000  0  9 27 29 16 12 19 18 28  2 31
  21845649.878   -17168647.06749 -13368384.08449  21845652.4804   21845658.3144
  24256748.277    16806356.84349  13098403.50849  24256755.0194   24256761.6264
  24229260.552    -7827306.90849  -6083175.57849  24229264.0054   24229272.6314
  24403232.173    -1006070.810 9   -769514.514 9  24403234.835    24403244.647
  20860186.661   -18945176.51249 -14750802.85949  20860189.5164   20860195.1264
  21624179.329     4853552.35649   3788500.92249  21624182.1034   21624188.4854
  24338007.510    -4369165.411 9  -3370914.407 9  24338009.432    24338016.431
  23184744.861   -10843870.86849  -8439158.85449  23184745.6314   23184752.3424
  22150413.577   -15303650.36549 -11905457.58149  22150414.7164   22150420.2844
 96  2 17 20 18 30.0010000  0  9 27 29 16 12 19 18 28  2 31
  21834950.181   -17224871.53849 -13412195.35449  21834953.3044   21834958.9064
  24276999.989    16912772.20949  13181324.51549  24277005.4954   24277013.0134
  24227244.691    -7837902.83749  -6091432.17749  24227247.7984   24227254.9754
  24390110.053    -1075025.981 9   -823245.806 9  24390113.327    24390122.067
  20859610.826   -18948204.87849 -14753162.62949  20859613.3354   20859618.7064
  21638385.845     4928210.58649   3846676.13749  21638389.4654   21638395.2484
  24350709.772    -4302412.581 9  -3318899.267 9  24350712.190    24350719.262
  23171944.052   -10911135.60449  -8491572.92449  23171945.5184   23171952.2774
  22152634.219   -15291978.46049 -11896362.58049  22152636.3264   22152641.4414
 96  2 17 20 19  0.0010000  0  9 27 29 16 12 19 18 28  2 31
  21824287.439   -17280906.80949 -13455859.19349  21824289.8614   21824295.7084
  24297285.723    17019356.44849  13264377.07849  24297288.5314   24297295.8814
  24225332.726    -7847937.98949  -6099251.78949  24225338.1454   24225347.0464
  24377022.770    -1143810.497 9   -876844.117 9  24377024.784    24377032.398
  20859086.948   -18950958.22049 -14755308.09749  20859089.5244   20859094.9214
  21652674.478     5003293.97049   3905182.64449  21652677.3024   21652683.1124
  24363499.562    -4235199.492 9  -3266525.445 9  24363502.440    24363507.711
  23159197.788   -10978117.41449  -8543766.52849  23159199.5564   23159205.8584
  22154973.078   -15279681.26149 -11886780.34049  22154976.3004   22154981.5254
 96  2 17 20 19 30.0010000  0  9 27 29 16 12 19 18 28  2 31
  21813657.170   -17336768.46349 -13499387.74649  21813659.8824   21813665.7624
  24317594.050    17126093.76449  13347548.91049  24317600.1164   24317606.5214
  24223528.326    -7857429.30849  -6106647.64349  24223531.4134   24223539.3684
  24363960.100    -1212442.923 9   -930323.934 9  24363963.630    24363971.824
  20858612.597   -18953450.01449 -14757249.75749  20858615.1364   20858620.7204
  21667038.569     5078778.06749   3964001.38849  21667041.4874   21667047.1854
  24376376.284    -4167546.666 9  -3213808.979 9  24376376.470    24376381.697
  23146502.597   -11044820.74449  -8595743.12649  23146506.2844   23146512.6544
  22157428.676   -15266779.29649 -11876726.86149  22157431.2184   22157436.6054
 96  2 17 20 20  0.0010000  0  9 27 29 16 12 19 18 28  2 31
  21803056.507   -17392473.93149 -13542794.59549  21803059.3374   21803065.0124
  24337938.746    17232989.45949  13430844.15849  24337941.2034   24337948.5944
  24221830.467    -7866374.16649  -6113617.64349  24221830.7004   24221838.9784
  24350930.722    -1280924.866 9   -983686.418 9  24350932.127    24350940.178
  20858188.637   -18955679.14249 -14758986.74149  20858191.1594   20858196.8844
  21681482.680     5154680.45749   4023146.07849  21681485.1774   21681490.9454
  24389332.369    -4099457.617 9  -3160752.604 9  24389332.707    24389338.762
  23133863.622   -11111247.37849  -8647504.12249  23133865.5244   23133872.8824
  22160000.375   -15253268.01849 -11866198.59049  22160002.5694   22160007.8914
 96  2 17 20 20 30.0010000  0  9 27 29 16 12 19 18 28  2 31
  21792485.565   -17448029.29649 -13586084.48049  21792487.8164   21792493.2454
  24358314.573    17340067.87649  13514281.83449  24358317.6884   24358325.3304
  24220232.064    -7874764.08749  -6120155.29149  24220232.9684   24220241.3074
  24337926.548    -1349244.547 9  -1036922.492 9  24337931.009    24337939.536
  20857816.197   -18957634.77449 -14760510.61349  20857819.0594   20857824.5074
  21696008.367     5231015.28149   4082627.73249  21696011.3744   21696016.8164
  24402372.170    -4030922.553 9  -3107348.670 9  24402374.743    24402380.982
  23121273.750   -11177404.44649  -8699055.05849  23121276.5494   23121282.5584
  22162691.972   -15239118.90749 -11855173.31649  22162694.7714   22162700.2464
 96  2 17 20 21  0.0010000  0  9 27 29 16 12 19 18 28  2 31
  21781938.210   -17503450.78949 -13629270.05449  21781941.3724   21781946.9394
  24378727.097    17447327.76549  13597860.83549  24378729.3924   24378736.6454
  24218737.143    -7882616.82349  -6126274.31449  24218739.4804   24218746.8154
  24324957.621    -1417404.403 9  -1090034.054 9  24324960.051    24324969.629
  20857494.698   -18959323.54749 -14761826.54249  20857497.4824   20857503.0934
  21710620.789     5307801.91449   4142461.44149  21710623.4094   21710628.8734
  24415499.853    -3961945.792 9  -3053600.555 9  24415500.718    24415508.448
  23108730.890   -11243319.04749  -8750417.06749  23108733.1554   23108739.8914
  22165508.200   -15224324.95449 -11843645.56149  22165510.1814   22165515.5764
 96  2 17 20 21 30.0010000  0  9 27 29 16 12 19 18 28  2 31
  21771415.277   -17558756.96449 -13672365.76549  21771416.9504   21771422.5824
  24399167.751    17554761.45049  13681575.32249  24399172.5524   24399180.5024
  24217341.334    -7889951.46749  -6131989.61549  24217343.9284   24217352.1054
  24312017.330    -1485412.147 9  -1143027.052 9  24312020.146    24312028.598
  20857222.637   -18960751.30849 -14762939.08149  20857225.7454   20857231.3324
  21725317.132     5385030.64349   4202639.64349  21725319.3304   21725324.8354
  24428707.484    -3892536.879 9  -2999515.709 9  24428708.835    24428715.398
  23096228.552   -11309010.03749  -8801604.81649  23096232.3724   23096238.9604
  22168444.830   -15208889.33949 -11831617.81449  22168447.5794   22168452.4324
 96  2 17 20 22  0.0010000  0  9 27 29 16 12 19 18 28  2 31
  21760913.577   -17613938.52149 -13715364.37149  21760916.0854   21760921.9274
  24419647.033    17662375.79749  13765430.59549  24419651.4124   24419658.5304
  24216042.703    -7896769.27249  -6137302.20949  24216047.1774   24216054.7534
  24299102.551    -1553269.578 9  -1195902.874 9  24299106.531    24299116.380
  20856999.576   -18961926.61549 -14763854.90749  20857002.4064   20857007.9444
  21740095.852     5462696.72549   4263158.64049  21740098.7544   21740104.2334
  24441996.909    -3822699.354 9  -2945096.870 9  24441998.922    24442005.884
  23083770.439   -11374487.39649  -8852626.11549  23083772.8964   23083779.5134
  22171501.520   -15192826.73649 -11819101.50449  22171503.7754   22171509.1714
 96  2 17 20 22 30.0010000  0  9 27 29 16 12 19 18 28  2 31
  21750441.375   -17668972.54349 -13758248.01649  21750443.4494   21750449.3174
  24440160.126    17770162.14749  13849419.87149  24440162.1244   24440169.6154
  24214847.546    -7903063.55749  -6142206.82749  24214848.5274   24214857.2784
  24286220.099    -1620971.944 9  -1248657.954 9  24286222.938    24286229.514
  20856823.672   -18962850.02349 -14764574.44849  20856826.5924   20856831.8894
  21754953.376     5540773.10049   4323997.34449  21754956.3674   21754962.1064
  24455368.206    -3752430.297 9  -2890341.796 9  24455370.009    24455377.819
  23071354.076   -11439731.91349  -8903465.96949  23071356.6554   23071363.6044
  22174674.467   -15176147.31849 -11806104.56249  22174678.0114   22174683.1284
 96  2 17 20 23  0.0010000  0  9 27 29 16 12 19 18 28  2 31
  21740000.725   -17723834.18149 -13800997.33349  21740003.5284   21740009.5744
  24460700.862    17878103.92949  13933530.22549  24460702.3814   24460710.6904
  24213749.117    -7908832.93849  -6146702.47649  24213751.4804   24213758.7574
  24273368.907    -1688513.571 9  -1301287.809 9  24273370.193    24273380.291
  20856698.809   -18963505.37449 -14765085.11449  20856702.1064   20856707.4304
  21769884.217     5619234.69049   4385136.21249  21769887.3324   21769892.9524
  24468823.688    -3681726.167 9  -2835247.640 9  24468825.715    24468832.261
  23058989.651   -11504709.59249  -8954097.90849  23058991.8724   23058998.9224
  22177965.492   -15158856.61449 -11792631.28249  22177968.1464   22177973.6394
 96  2 17 20 23 30.0010000  0  9 27 29 16 12 19 18 28  2 31
  21729595.890   -17778506.52349 -13843599.14749  21729599.5284   21729605.7864
  24481266.857    17986189.81049  14017752.83649  24481270.7054   24481277.9214
  24212757.039    -7914061.94849  -6150777.06849  24212756.5894   24212764.5774
  24260544.379    -1755901.608 9  -1353797.958 9  24260547.834    24260554.543
  20856623.271   -18963905.65049 -14765397.01649  20856625.7544   20856631.2154
  21784884.270     5698059.73449   4446558.30049  21784886.7624   21784892.3824
  24482357.836    -3610596.041 9  -2779821.581 9  24482359.707    24482367.475
  23046678.953   -11569403.64049  -9004508.82449  23046681.4534   23046687.9324
  22181368.378   -15140973.97549 -11778696.75149  22181371.2734   22181376.7304
 96  2 17 20 24  0.0010000  0  9 27 29 16 12 19 18 28  2 31
  21719227.798   -17832994.12249 -13886057.01049  21719231.0024   21719237.1194
  24501861.522    18094401.68249  14102073.64349  24501863.3074   24501871.3644
  24211865.113    -7918734.64549  -6154418.15949  24211867.8244   24211873.5954
  24247748.616    -1823141.686 9  -1406192.780 9  24247752.637    24247762.565
  20856592.385   -18964067.54449 -14765523.17049  20856594.7784   20856600.3144
  21799952.047     5777243.57049   4508259.96549  21799955.0904   21799961.0044
  24495974.697    -3539047.525 9  -2724069.491 9  24495976.643    24495980.147
  23034421.865   -11633814.08249  -9054698.76849  23034424.1474   23034430.8304
  22184882.201   -15122508.55349 -11764308.11049  22184885.3394   22184890.0284
 96  2 17 20 24 30.0010000  0  9 27 29 16 12 19 18 28  2 31
  21708892.815   -17887312.98449 -13928383.38949  21708894.6054   21708900.4344
  24522473.072    18202722.44749  14186479.37349  24522475.4114   24522483.4874
  24211083.138    -7922853.58749  -6157627.69349  24211084.0454   24211091.1444
  24234980.137    -1890236.014 9  -1458474.041 9  24234983.961    24234991.909
  20856607.154   -18963985.79849 -14765459.47249  20856610.4454   20856615.9064
  21815090.657     5856797.39449   4570249.93249  21815093.8224   21815099.7174
  24509666.975    -3467084.463 9  -2667994.396 9  24509670.182    24509675.730
  23022218.805   -11697947.25749  -9104672.65449  23022220.3004   23022226.9864
  22188511.945   -15103438.86049 -11749448.60749  22188514.0464   22188519.1444
 96  2 17 20 25  0.0010000  0  9 27 29 16 12 19 18 28  2 31
  21698587.281   -17941464.35249 -13970579.25749  21698590.1824   21698596.1544
  24543109.415    18311172.26549  14270985.65349  24543113.2864   24543120.9904
  24210400.288    -7926419.20649  -6160406.13049  24210405.2184   24210412.3724
  24222241.897    -1957178.431 9  -1510636.890 9  24222244.672    24222253.243
  20856670.404   -18963653.85249 -14765200.81649  20856673.4224   20856678.9904
  21830306.756     5936754.99649   4632554.53049  21830309.3224   21830315.1244
  24523442.144    -3394702.907 9  -2611593.195 9  24523444.465    24523448.971
  23010064.280   -11761815.78149  -9154440.31249  23010066.5694   23010073.4714
  22192256.922   -15083749.96849 -11734106.61349  22192260.7034   22192265.9544
 96  2 17 20 25 30.0010000  0  9 27 29 16 12 19 18 28  2 31
  21688310.328   -17995470.36149 -14012661.84949  21688313.2374   21688318.9724
  24563773.343    18419751.59549  14355592.85449  24563775.4584   24563782.8114
  24209830.549    -7929451.95749  -6162769.31749  24209826.6294   24209835.9114
  24209527.442    -2023984.569 9  -1562693.560 9  24209530.830    24209542.114
  20856774.800   -18963107.56949 -14764775.14049  20856777.6954   20856783.0684
  21845601.669     6017127.03249   4695182.06949  21845603.8564   21845609.7364
  24537290.459    -3321920.402 9  -2554879.556 9  24537293.771    24537299.659
  22997952.794   -11825456.92149  -9204030.79349  22997955.4114   22997962.3854
  22196120.367   -15063458.15049 -11718294.80149  22196122.2434   22196127.0174
 96  2 17 20 26  0.0010000  0  9 27 29 16 12 19 18 28  2 31
  21678058.309   -18049341.05849 -14054639.01149  21678061.5854   21678067.3014
  24584462.983    18528473.09849  14440310.77649  24584464.2094   24584471.4584
  24209343.865    -7931965.91749  -6164728.25349  24209348.1364   24209356.3424
  24196845.282    -2090649.384 9  -1614640.146 9  24196846.274    24196854.798
  20856922.298   -18962334.08449 -14764172.42749  20856924.8264   20856930.5144
  21860973.630     6097915.95949   4758134.45349  21860976.9724   21860983.4064
  24551220.327    -3248733.854 9  -2497851.086 9  24551220.406    24551227.325
  22985884.393   -11888882.68149  -9253453.45449  22985886.2544   22985893.3114
  22200099.531   -15042543.78549 -11701997.88649  22200101.6754   22200107.1034
 96  2 17 20 26 30.0010000  0  9 27 29 16 12 19 18 28  2 31
  21667836.764   -18103060.03249 -14096497.95249  21667839.3504   21667845.1554
  24605183.101    18637359.08749  14525156.91949  24605185.8094   24605192.5144
  24208961.278    -7933972.93849  -6166292.19049  24208966.6574   24208974.6404
  24184185.025    -2157165.696 9  -1666470.952 9  24184189.436    24184197.143
  20857119.200   -18961300.58049 -14763367.10149  20857121.3024   20857126.8064
  21876428.238     6179124.49049   4821413.79849  21876430.6384   21876436.9214
  24565224.169    -3175138.156 9  -2440503.822 9  24565226.316    24565231.411
  22973854.553   -11952094.47849  -9302709.38849  22973857.6724   22973864.4514
  22204199.871   -15020998.49849 -11685209.34449  22204201.9284   22204207.2204
 96  2 17 20 27  0.0010000  0  9 27 29 16 12 19 18 28  2 31
  21657646.779   -18156605.42649 -14138221.62549  21657650.1064   21657655.9394
  24625933.630    18746405.87649  14610128.44149  24625936.3194   24625940.9774
  24208679.243    -7935472.00549  -6167460.31549  24208681.3814   24208689.4634
  24171554.683    -2223538.237 9  -1718189.778 9  24171558.680    24171567.405
  20857363.089   -18960017.42749 -14762367.24249  20857365.4994   20857371.2574
  21891956.685     6260728.78149   4885001.53749  21891959.7434   21891965.4584
  24579302.209    -3101139.869 9  -2382842.810 9  24579307.015    24579313.957
  22961869.684   -12015084.58049  -9351792.57549  22961871.1244   22961877.7854
  22208415.304   -14998845.05949 -11667946.92949  22208417.5954   22208422.4404
 96  2 17 20 27 30.0010000  0  9 27 29 16 12 19 18 28  2 31
  21647494.691   -18209957.10149 -14179794.35449  21647497.5154   21647503.2484
  24646712.635    18855606.81949  14695220.05849  24646716.1604   24646723.6434
  24208496.356    -7936437.41649  -6168212.58749  24208498.8684   24208504.1814
  24158957.447    -2289750.075 9  -1769783.347 9  24158958.404    24158968.233
  20857658.082   -18958466.61649 -14761158.82049  20857660.7944   20857666.5224
  21907561.315     6342732.24949   4948900.32549  21907564.4314   21907570.2024
  24593465.230    -3026724.000 9  -2324856.433 9  24593469.206    24593472.474
  22949927.752   -12077834.83049  -9400688.85749  22949929.7324   22949936.5064
  22212749.301   -14976068.55749 -11650199.00249  22212751.8134   22212757.4204
 96  2 17 20 28  0.0010000  0  9 27 29 16 12 19 18 28  2 31
  21637378.686   -18263118.94049 -14221219.15749  21637381.1284   21637386.8224
  24667520.204    18964937.54449  14780412.72749  24667521.8174   24667528.2604
  24208413.373    -7936868.23849  -6168548.28949  24208416.1134   24208423.4324
  24146382.852    -2355808.871 9  -1821257.696 9  24146387.990    24146395.558
  20858004.712   -18956645.04349 -14759739.41449  20858007.6274   20858012.8924
  21923236.287     6425108.97049   5013089.95449  21923240.2004   21923246.1834
  24607704.562    -2951900.435 9  -2266552.371 9  24607706.199    24607710.978
  22938033.702   -12140342.45449  -9449396.08649  22938035.4864   22938042.0944
  22217201.348   -14952672.70049 -11631968.46949  22217203.8974   22217209.2324
 96  2 17 20 28 30.0010000  0  9 27 29 16 12 19 18 28  2 31
  21627299.993   -18316085.26249 -14262491.61349  21627301.8814   21627307.6654
  24688346.067    19074384.92349  14865696.29249  24688348.5314   24688355.8974
  24208431.048    -7936765.92549  -6168468.58249  24208436.1304   24208443.2484
  24133843.951    -2421717.094 9  -1872614.664 9  24133845.380    24133854.741
  20858401.030   -18954562.91849 -14758116.98249  20858403.7794   20858409.1154
  21938984.482     6507858.23149   5077569.86649  21938986.5774   21938992.4894
  24622019.406    -2876673.530 9  -2207934.059 9  24622022.523    24622026.233
  22926188.239   -12202583.75249  -9497895.79249  22926190.9704   22926197.8324
  22221768.539   -14928671.33049 -11613266.10549  22221771.3864   22221776.4124
 96  2 17 20 29  0.0010000  0  9 27 29 16 12 19 18 28  2 31
  21617254.244   -18368871.73449 -14303623.92049  21617256.9044   21617262.8794
  24709193.269    19183935.14649  14951060.01449  24709194.9884   24709202.8404
  24208555.097    -7936136.07249  -6167977.80649  24208555.8664   24208563.1894
  24121329.275    -2487476.689 9  -1923855.860 9  24121333.524    24121340.563
  20858843.895   -18952236.03049 -14756303.82349  20858846.4804   20858851.9504
  21954800.698     6590975.02749   5142336.18249  21954803.5474   21954809.1214
  24636409.331    -2801047.370 9  -2149004.624 9  24636412.655    24636419.627
  22914397.401   -12264541.55349  -9546174.57849  22914400.7664   22914407.3874
  22226451.033   -14904063.88549 -11594091.47549  22226453.7004   22226459.4374
 96  2 17 20 29 30.0010000  0  9 27 29 16 12 19 18 28  2 31
  21607240.609   -18421496.90249 -14344630.54249  21607242.9594   21607248.7194
  24730061.387    19293602.00949  15036514.62349  24730064.2154   24730071.2794
  24208768.335    -7934991.71349  -6167086.10749  24208771.2454   24208781.4374
  24108846.039    -2553083.738 9  -1974978.159 9  24108848.571    24108856.976
  20859337.287   -18949642.42549 -14754282.83649  20859339.9094   20859345.3104
  21970689.439     6674469.32149   5207396.65649  21970691.9024   21970697.5404
  24650879.963    -2725019.908 9  -2089762.452 9  24650880.318    24650886.986
  22902661.740   -12326220.26849  -9594235.89849  22902663.7854   22902669.8654
  22231251.191   -14878834.74549 -11574432.41549  22231254.8894   22231260.0284
 96  2 17 20 30  0.0010000  0  9 27 29 16 12 19 18 28  2 31
  21597256.101   -18473958.60749 -14385509.78349  21597259.6634   21597265.4964
  24750956.405    19403402.50649  15122073.33149  24750958.0544   24750964.7544
  24209084.367    -7933348.45149  -6165805.66149  24209085.9994   24209093.5754
  24096388.855    -2618536.898 9  -2025980.573 9  24096392.370    24096401.033
  20859884.223   -18946768.22749 -14752043.20449  20859886.9244   20859892.4904
  21986649.252     6758342.06049   5272752.01449  21986652.0094   21986658.1674
  24665421.376    -2648591.717 9  -2030208.048 9  24665424.793    24665431.024
  22890980.476   -12387603.71849  -9642067.15149  22890983.1174   22890989.3354
  22236171.944   -14852983.29349 -11554288.43949  22236174.3794   22236179.3524
 96  2 17 20 30 30.0010000  0  9 27 29 16 12 19 18 28  2 31
  21587303.933   -18526262.95949 -14426266.41349  21587306.6114   21587312.0964
  24771875.566    19513334.94349  15207734.80849  24771878.9514   24771885.7904
  24209488.352    -7931208.59649  -6164138.24249  24209493.2494   24209501.7714
  24083964.072    -2683837.181 9  -2076863.866 9  24083966.963    24083975.505
  20860486.090   -18943606.24349 -14749579.32049  20860488.7384   20860494.2754
  22002682.230     6842596.56549   5338404.84449  22002685.6144   22002691.3174
  24680040.089    -2571766.180 9  -1970343.979 9  24680042.861    24680049.213
  22879354.560   -12448700.61649  -9689675.10449  22879356.5024   22879363.3324
  22241210.493   -14826509.07649 -11533659.18549  22241212.1474   22241217.0014
 96  2 17 20 31  0.0010000  0  9 27 29 16 12 19 18 28  2 31
  21577381.173   -18578406.89149 -14466898.04449  21577383.9954   21577389.7624
  24792819.571    19623392.55449  15293493.82949  24792821.3224   24792829.3144
  24209992.161    -7928570.60649  -6162082.67849  24209995.3054   24210002.1044
  24071562.962    -2748988.500 9  -2127631.074 9  24071568.810    24071577.034
  20861141.004   -18940162.43249 -14746895.83649  20861144.0084   20861149.3594
  22018787.150     6927224.79149   5404348.89049  22018789.4004   22018795.4714
  24694735.061    -2494549.126 9  -1910174.884 9  24694736.953    24694742.530
  22867774.587   -12509549.55949  -9737089.84549  22867777.2564   22867783.7674
  22246365.658   -14799413.33849 -11512545.63049  22246368.1484   22246373.5324
 96  2 17 20 31 30.0010000  0  9 27 29 16 12 19 18 28  2 31
  21567490.728   -18630380.80049 -14507397.18349  21567493.6064   21567499.0944
  24813781.666    19733561.07549  15379339.28649  24813786.2234   24813793.7674
  24210592.282    -7925427.84649  -6159633.79649  24210593.0794   24210601.4994
  24059193.285    -2813997.796 9  -2178287.607 9  24059197.782    24059206.289
  20861846.590   -18936456.18249 -14744007.84949  20861849.0644   20861854.6974
  22034963.111     7012230.51049   5470587.09649  22034965.7764   22034971.6454
  24709499.385    -2416949.241 9  -1849707.476 9  24709503.157    24709509.355
  22856240.181   -12570161.62149  -9784320.01049  22856243.2874   22856249.7254
  22251638.480   -14771706.33649 -11490955.77349  22251640.4754   22251646.0404
 96  2 17 20 32  0.0010000  0  9 27 29 16 12 19 18 28  2 31
  21557634.549   -18682177.45049 -14547758.20249  21557637.1524   21557642.6504
  24834766.357    19843825.85949  15465259.76149  24834768.9514   24834776.2714
  24211287.930    -7921762.96949  -6156778.02249  24211291.4154   24211299.6174
  24046848.605    -2878867.853 9  -2228835.640 9  24046852.766    24046861.304
  20862597.302   -18932508.72849 -14740931.91149  20862600.4454   20862605.9424
  22051209.266     7097608.75949   5537115.57749  22051212.7734   22051218.6464
  24724342.139    -2338971.544 9  -1788945.662 9  24724342.667    24724349.049
  22844750.697   -12630540.39649  -9831368.38949  22844753.7604   22844760.1644
  22257024.783   -14743404.18449 -11468902.15449  22257026.6214   22257031.6574
 96  2 17 20 32 30.0010000  0  9 27 29 16 12 19 18 28  2 31
  21547813.212   -18733786.77449 -14587973.24549  21547816.0554   21547821.8174
  24855766.934    19954187.61149  15551255.83049  24855770.4424   24855777.6424
  24212088.564    -7917560.88749  -6153503.69149  24212091.7734   24212097.2574
  24034531.310    -2943596.703 9  -2279273.700 9  24034534.731    24034544.868
  20863392.731   -18928330.74749 -14737676.34549  20863395.5014   20863401.0334
  22067529.334     7183367.28549   5603940.38049  22067531.9724   22067537.8234
  24739250.402    -2260616.201 9  -1727889.535 9  24739253.205    24739261.223
  22833305.730   -12690689.28449  -9878237.63849  22833307.6764   22833314.4054
  22262523.527   -14714506.19049 -11446384.24249  22262525.7044   22262531.0594
 96  2 17 20 33  0.0010000  0  9 27 29 16 12 19 18 28  2 31
  21538030.010   -18785196.92549 -14628033.09249  21538033.0844   21538038.7324
  24876789.971    20064659.54749  15637337.76049  24876792.3534   24876800.0034
  24212994.839    -7912819.53949  -6149809.14849  24212992.3054   24213000.3664
  24022243.655    -3008179.527 9  -2329597.958 9  24022245.456    24022254.269
  20864232.615   -18923915.61149 -14734235.98649  20864235.5894   20864241.0194
  22083924.777     7269520.51849   5671072.74249  22083926.2104   22083932.1014
  24754234.647    -2181880.470 9  -1666537.011 9  24754236.002    24754241.318
  22821906.395   -12750590.16549  -9924913.63249  22821908.8744   22821915.5614
  22268134.339   -14685018.96449 -11423407.19549  22268136.4844   22268141.7214
 96  2 17 20 33 30.0010000  0  9 27 29 16 12 19 18 28  2 31
  21528284.496   -18836410.40049 -14667939.68449  21528287.3444   21528293.2704
  24897832.662    20175250.38949  15723512.35349  24897837.6274   24897844.5154
  24213996.949    -7907524.85449  -6145683.40149  24214000.4264   24214008.5584
  24009983.128    -3072605.880 9  -2379800.288 9  24009984.978    24009995.702
  20865122.853   -18919240.50849 -14730593.04949  20865125.3734   20865130.8494
  22100395.276     7356078.06349   5738520.15749  22100397.4994   22100403.6454
  24769292.241    -2102755.975 9  -1604881.556 9  24769292.952    24769298.487
  22810561.021   -12810216.91049  -9971376.01549  22810562.7924   22810568.6934
  22273856.256   -14654947.01549 -11399974.51149  22273858.9024   22273864.5484
 96  2 17 20 34  0.0010000  0  9 27 29 16 12 19 18 28  2 31
  21518572.086   -18887448.87249 -14707709.91449  21518575.1574   21518580.8064
  24918900.680    20285956.85649  15809777.01849  24918903.9194   24918911.4194
  24215105.371    -7901697.72049  -6141142.79949  24215108.6454   24215116.3284
  23997749.947    -3136888.518 9  -2429890.646 9  23997752.646    23997761.272
  20866062.991   -18914300.28349 -14726743.53149  20866065.3494   20866070.7204
  22116937.956     7443010.35149   5806259.56549  22116940.4974   22116946.3714
  24784416.693    -2023257.431 9  -1542934.674 9  24784420.152    24784427.200
  22799261.256   -12869590.09249 -10017640.82649  22799264.0194   22799270.3694
  22279686.991   -14624308.08049 -11376100.02449  22279689.6744   22279694.4834
 96  2 17 20 34 30.0010000  0  9 27 29 16 12 19 18 28  2 31
  21508893.123   -18938313.03949 -14747344.32149  21508896.0964   21508901.5884
  24939989.040    20396782.34649  15896134.43849  24939993.2164   24940000.3744
  24216315.149    -7895353.91549  -6136199.57349  24216316.0794   24216322.5864
  23985545.082    -3201028.742 9  -2479870.035 9  23985547.633    23985558.108
  20867054.765   -18909088.13949 -14722682.12649  20867057.4664   20867062.8214
  22133550.802     7530311.92549   5874286.73849  22133553.4824   22133559.3064
  24799619.761    -1943388.434 9  -1480699.108 9  24799619.638    24799627.204
  22788013.588   -12928699.43849 -10063700.04649  22788015.7814   22788022.6514
  22285627.672   -14593095.02249 -11351778.17249  22285629.4324   22285634.6734
 96  2 17 20 35  0.0010000  0  9 27 29 16 12 19 18 28  2 31
  21499245.226   -18989013.28549 -14786850.99749  21499247.9604   21499253.8864
  24961099.205    20507706.74349  15982568.95549  24961101.8434   24961109.3024
  24217617.720    -7888505.42549  -6130863.11049  24217620.2144   24217625.5124
  23973366.726    -3265032.178 9  -2529742.825 9  23973367.677    23973376.022
  20868098.316   -18903602.20449 -14718407.37549  20868101.1734   20868106.6604
  22150230.460     7617965.72149   5942588.37449  22150233.2734   22150239.3154
  24814884.271    -1863156.688 9  -1418180.870 9  24814886.892    24814893.813
  22776811.838   -12987564.71149 -10109569.07049  22776814.1874   22776820.7464
  22291675.336   -14561309.68849 -11327010.38849  22291677.8234   22291682.5824
 96  2 17 20 35 30.0010000  0  9 27 29 16 12 19 18 28  2 31
  21489630.823   -19039536.59649 -14826219.80349  21489633.7034   21489639.3534
  24982224.682    20618723.12649  16069075.15049  24982227.4724   24982234.3534
  24219018.747    -7881148.17049  -6125130.17549  24219020.1054   24219028.9364
  23961212.284    -3328890.429 9  -2579502.453 9  23961216.446    23961224.648
  20869194.337   -18897841.78349 -14713918.74249  20869197.5864   20869202.8454
  22166976.284     7705961.82249   6011156.73049  22166978.6124   22166984.6214
  24830221.118    -1782556.012 9  -1355375.142 9  24830226.004    24830230.602
  22765658.157   -13046180.31049 -10155243.55449  22765660.0214   22765666.8884
  22297838.620   -14528918.59649 -11301770.58349  22297841.7074   22297846.7564
 96  2 17 20 36  0.0010000  0  9 27 29 16 12 19 18 28  2 31
  21480050.774   -19089878.60649 -14865447.33649  21480054.1924   21480059.6514
  25003364.215    20729819.95149  16155644.02749  25003368.2764   25003375.2554
  24220514.951    -7873296.94449  -6119012.35249  24220514.4004   24220521.5844
  23949089.073    -3392606.730 9  -2629151.456 9  23949092.734    23949099.645
  20870342.085   -18891811.70949 -14709219.98949  20870344.9104   20870350.1774
  22183786.030     7794299.02649   6079990.88849  22183788.6144   22183794.6884
  24845631.187    -1701591.587 9  -1292286.023 9  24845632.386    24845638.181
  22754549.366   -13104547.36149 -10200724.35649  22754553.0174   22754559.4614
  22304123.902   -14495889.71549 -11276033.80549  22304126.4014   22304132.0514
 96  2 17 20 36 30.0010000  0  9 27 29 16 12 19 18 28  2 31
  21470508.983   -19140023.34049 -14904521.14549  21470511.8454   21470517.2544
  25024518.581    20840980.15549  16242262.29149  25024521.2274   25024529.1524
  24222097.715    -7864944.25749  -6112503.76049  24222103.6434   24222110.5074
  23936992.945    -3456178.407 9  -2678687.801 9  23936993.979    23937001.254
  20871542.359   -18885504.58749 -14704305.35649  20871544.9924   20871550.5114
  22200660.624     7882978.06149   6149091.40049  22200663.7614   22200669.9764
  24861104.910    -1620262.854 9  -1228912.967 9  24861107.743    24861116.016
  22743493.375   -13162655.17549 -10246003.15949  22743495.3614   22743502.1794
  22310531.800   -14462215.59849 -11249794.24449  22310534.4814   22310539.8934
 96  2 17 20 37  0.0010000  0  9 27 29 16 12 19 18 28  2 31
  21461004.040   -19189974.16749 -14943443.85849  21461006.5864   21461011.9724
  25045680.760    20952186.60849  16328916.59149  25045684.0244   25045690.5174
  24223789.220    -7856081.20249  -6105597.48649  24223790.5844   24223799.0144
  23924918.518    -3519609.670 9  -2728114.703 9  23924923.955    23924931.967
  20872793.143   -18878928.72749 -14699181.31749  20872796.4714   20872801.9084
  22217600.457     7971995.39349   6218455.52749  22217603.0554   22217609.3824
  24876648.514    -1538576.127 9  -1165260.955 9  24876652.591    24876658.233
  22732484.510   -13220508.50749 -10291083.66649  22732486.1024   22732492.7484
  22317060.169   -14427908.17849 -11223061.19849  22317063.2734   22317068.5274
 96  2 17 20 37 30.0010000  0  9 27 29 16 12 19 18 28  2 31
  21451533.706   -19239739.29949 -14982221.87549  21451536.2424   21451542.0264
  25066851.957    21063439.50749  16415607.07549  25066854.1634   25066861.8364
  24225568.612    -7846708.16349  -6098293.82549  24225574.0744   24225580.4724
  23912875.831    -3582910.033 9  -2777439.624 9  23912877.602    23912889.419
  20874094.338   -18872094.65549 -14693856.07649  20874097.1264   20874102.2604
  22234602.868     8061344.47749   6288078.15149  22234605.4894   22234611.4304
  24892261.359    -1456543.016 9  -1101339.067 9  24892263.630    24892268.403
  22721525.359   -13278097.49849 -10335958.19549  22721527.5764   22721534.3614
  22323703.808   -14392994.47049 -11195855.71549  22323706.7914   22323712.5864
 96  2 17 20 38  0.0010000  0  9 27 29 16 12 19 18 28  2 31
  21442104.959   -19289285.65649 -15020829.41649  21442108.0044   21442113.6214
  25088042.486    21174792.23149  16502375.35749  25088042.8714   25088050.5754
  24227461.765    -7836785.15549  -6090561.62249  24227462.7444   24227470.0404
  23900860.590    -3646042.364 9  -2826633.609 9  23900864.212    23900873.501
  20875450.160   -18864969.66949 -14688304.14149  20875452.5734   20875458.2884
  22251678.383     8151077.29649   6357999.79649  22251681.1974   22251687.3714
  24907943.432    -1374128.659 9  -1037120.163 9  24907945.062    24907951.818
  22710624.186   -13335385.40149 -10380598.10549  22710625.7054   22710632.2684
  22330463.884   -14357475.01349 -11168178.21749  22330466.1434   22330471.6064
